<?xml version="1.0" encoding="UTF-8" standalone="no" ?>
<gpx xmlns="http://www.topografix.com/GPX/1/1" xmlns:xsi="http://www.w3.org/2001/XMLSchema-instance" xsi:schemaLocation="http://www.topografix.com/GPX/1/1 http://www.topografix.com/GPX/1/1/gpx.xsd" version="1.1" creator="VisuGPX - https://www.visugpx.com">
  <metadata>
    <name>2019-09-02 16:25:11</name>
    <desc><![CDATA[

]]></desc>
  </metadata>
  <trk>
    <name><![CDATA[2019-09-02 16:25:11]]></name>
    <trkseg>
      <trkpt lat="43.18721" lon="2.03642">
        <ele>322.39</ele>
        <time>2019-09-02T07:02:32Z</time>
      </trkpt>
      <trkpt lat="43.18715" lon="2.03642">
        <ele>325.55</ele>
        <time>2019-09-02T07:02:44Z</time>
      </trkpt>
      <trkpt lat="43.18715" lon="2.03641">
        <ele>328.58</ele>
        <time>2019-09-02T07:02:48Z</time>
      </trkpt>
      <trkpt lat="43.18716" lon="2.0364">
        <ele>331.79</ele>
        <time>2019-09-02T07:02:52Z</time>
      </trkpt>
      <trkpt lat="43.1873" lon="2.03635">
        <ele>334.81</ele>
        <time>2019-09-02T07:02:58Z</time>
      </trkpt>
      <trkpt lat="43.18724" lon="2.03628">
        <ele>338.11</ele>
        <time>2019-09-02T07:03:05Z</time>
      </trkpt>
      <trkpt lat="43.18715" lon="2.0362">
        <ele>341.08</ele>
        <time>2019-09-02T07:03:14Z</time>
      </trkpt>
      <trkpt lat="43.18709" lon="2.03612">
        <ele>342.6</ele>
        <time>2019-09-02T07:03:20Z</time>
      </trkpt>
      <trkpt lat="43.18707" lon="2.03598">
        <ele>344.73</ele>
        <time>2019-09-02T07:03:30Z</time>
      </trkpt>
      <trkpt lat="43.18707" lon="2.03593">
        <ele>347.8</ele>
        <time>2019-09-02T07:03:59Z</time>
      </trkpt>
      <trkpt lat="43.18708" lon="2.03591">
        <ele>349.76</ele>
        <time>2019-09-02T07:04:47Z</time>
      </trkpt>
      <trkpt lat="43.18712" lon="2.03591">
        <ele>349.76</ele>
        <time>2019-09-02T07:05:31Z</time>
      </trkpt>
      <trkpt lat="43.18708" lon="2.03589">
        <ele>349.76</ele>
        <time>2019-09-02T07:06:21Z</time>
      </trkpt>
      <trkpt lat="43.187" lon="2.0359">
        <ele>349.76</ele>
        <time>2019-09-02T07:06:51Z</time>
      </trkpt>
      <trkpt lat="43.18707" lon="2.03592">
        <ele>349.76</ele>
        <time>2019-09-02T07:07:18Z</time>
      </trkpt>
      <trkpt lat="43.18715" lon="2.03577">
        <ele>349.76</ele>
        <time>2019-09-02T07:07:32Z</time>
      </trkpt>
      <trkpt lat="43.18718" lon="2.03557">
        <ele>348.87</ele>
        <time>2019-09-02T07:07:47Z</time>
      </trkpt>
      <trkpt lat="43.18729" lon="2.03539">
        <ele>348.61</ele>
        <time>2019-09-02T07:08:00Z</time>
      </trkpt>
      <trkpt lat="43.18736" lon="2.03518">
        <ele>349.51</ele>
        <time>2019-09-02T07:08:14Z</time>
      </trkpt>
      <trkpt lat="43.18735" lon="2.03495">
        <ele>348.6</ele>
        <time>2019-09-02T07:08:32Z</time>
      </trkpt>
      <trkpt lat="43.1872" lon="2.0349">
        <ele>348.94</ele>
        <time>2019-09-02T07:08:45Z</time>
      </trkpt>
      <trkpt lat="43.18715" lon="2.03488">
        <ele>348.87</ele>
        <time>2019-09-02T07:08:49Z</time>
      </trkpt>
      <trkpt lat="43.18698" lon="2.03469">
        <ele>347.54</ele>
        <time>2019-09-02T07:09:11Z</time>
      </trkpt>
      <trkpt lat="43.18698" lon="2.03463">
        <ele>347.46</ele>
        <time>2019-09-02T07:09:40Z</time>
      </trkpt>
      <trkpt lat="43.18697" lon="2.0346">
        <ele>347.13</ele>
        <time>2019-09-02T07:10:09Z</time>
      </trkpt>
      <trkpt lat="43.18687" lon="2.03456">
        <ele>347.51</ele>
        <time>2019-09-02T07:10:18Z</time>
      </trkpt>
      <trkpt lat="43.1868" lon="2.03453">
        <ele>346.92</ele>
        <time>2019-09-02T07:10:24Z</time>
      </trkpt>
      <trkpt lat="43.18677" lon="2.03455">
        <ele>346.65</ele>
        <time>2019-09-02T07:10:27Z</time>
      </trkpt>
      <trkpt lat="43.18675" lon="2.03453">
        <ele>346.55</ele>
        <time>2019-09-02T07:10:29Z</time>
      </trkpt>
      <trkpt lat="43.18667" lon="2.03452">
        <ele>345.14</ele>
        <time>2019-09-02T07:10:40Z</time>
      </trkpt>
      <trkpt lat="43.18664" lon="2.03451">
        <ele>344.81</ele>
        <time>2019-09-02T07:10:43Z</time>
      </trkpt>
      <trkpt lat="43.18647" lon="2.03448">
        <ele>342.82</ele>
        <time>2019-09-02T07:10:55Z</time>
      </trkpt>
      <trkpt lat="43.18645" lon="2.03449">
        <ele>342.43</ele>
        <time>2019-09-02T07:10:57Z</time>
      </trkpt>
      <trkpt lat="43.1864" lon="2.03449">
        <ele>341.65</ele>
        <time>2019-09-02T07:11:01Z</time>
      </trkpt>
      <trkpt lat="43.18638" lon="2.0345">
        <ele>341.43</ele>
        <time>2019-09-02T07:11:02Z</time>
      </trkpt>
      <trkpt lat="43.18637" lon="2.03451">
        <ele>341.23</ele>
        <time>2019-09-02T07:11:03Z</time>
      </trkpt>
      <trkpt lat="43.18621" lon="2.03444">
        <ele>338.41</ele>
        <time>2019-09-02T07:11:17Z</time>
      </trkpt>
      <trkpt lat="43.18611" lon="2.0345">
        <ele>336.07</ele>
        <time>2019-09-02T07:11:26Z</time>
      </trkpt>
      <trkpt lat="43.18597" lon="2.0346">
        <ele>332.96</ele>
        <time>2019-09-02T07:11:39Z</time>
      </trkpt>
      <trkpt lat="43.18587" lon="2.03472">
        <ele>329.8</ele>
        <time>2019-09-02T07:11:51Z</time>
      </trkpt>
      <trkpt lat="43.18575" lon="2.0348">
        <ele>327.56</ele>
        <time>2019-09-02T07:12:02Z</time>
      </trkpt>
      <trkpt lat="43.18568" lon="2.0349">
        <ele>325.72</ele>
        <time>2019-09-02T07:12:12Z</time>
      </trkpt>
      <trkpt lat="43.18557" lon="2.03497">
        <ele>324.08</ele>
        <time>2019-09-02T07:12:24Z</time>
      </trkpt>
      <trkpt lat="43.18536" lon="2.03495">
        <ele>322.78</ele>
        <time>2019-09-02T07:12:37Z</time>
      </trkpt>
      <trkpt lat="43.18534" lon="2.03494">
        <ele>322.72</ele>
        <time>2019-09-02T07:12:38Z</time>
      </trkpt>
      <trkpt lat="43.18533" lon="2.03493">
        <ele>322.66</ele>
        <time>2019-09-02T07:12:39Z</time>
      </trkpt>
      <trkpt lat="43.18525" lon="2.03503">
        <ele>322.35</ele>
        <time>2019-09-02T07:12:52Z</time>
      </trkpt>
      <trkpt lat="43.1852" lon="2.03506">
        <ele>322.43</ele>
        <time>2019-09-02T07:12:57Z</time>
      </trkpt>
      <trkpt lat="43.18518" lon="2.03507">
        <ele>322.48</ele>
        <time>2019-09-02T07:12:58Z</time>
      </trkpt>
      <trkpt lat="43.18509" lon="2.03515">
        <ele>322.1</ele>
        <time>2019-09-02T07:13:18Z</time>
      </trkpt>
      <trkpt lat="43.18515" lon="2.03514">
        <ele>322.02</ele>
        <time>2019-09-02T07:13:30Z</time>
      </trkpt>
      <trkpt lat="43.18516" lon="2.03512">
        <ele>322.01</ele>
        <time>2019-09-02T07:13:31Z</time>
      </trkpt>
      <trkpt lat="43.18517" lon="2.03511">
        <ele>322</ele>
        <time>2019-09-02T07:13:32Z</time>
      </trkpt>
      <trkpt lat="43.18518" lon="2.03511">
        <ele>322.02</ele>
        <time>2019-09-02T07:13:33Z</time>
      </trkpt>
      <trkpt lat="43.18519" lon="2.0351">
        <ele>322.09</ele>
        <time>2019-09-02T07:13:34Z</time>
      </trkpt>
      <trkpt lat="43.1852" lon="2.0351">
        <ele>322.19</ele>
        <time>2019-09-02T07:13:35Z</time>
      </trkpt>
      <trkpt lat="43.18521" lon="2.0351">
        <ele>322.28</ele>
        <time>2019-09-02T07:13:36Z</time>
      </trkpt>
      <trkpt lat="43.18528" lon="2.03504">
        <ele>322.51</ele>
        <time>2019-09-02T07:13:48Z</time>
      </trkpt>
      <trkpt lat="43.18533" lon="2.03489">
        <ele>322.51</ele>
        <time>2019-09-02T07:13:58Z</time>
      </trkpt>
      <trkpt lat="43.18538" lon="2.0346">
        <ele>321.54</ele>
        <time>2019-09-02T07:14:15Z</time>
      </trkpt>
      <trkpt lat="43.18539" lon="2.03459">
        <ele>321.52</ele>
        <time>2019-09-02T07:14:16Z</time>
      </trkpt>
      <trkpt lat="43.18537" lon="2.0345">
        <ele>321.02</ele>
        <time>2019-09-02T07:14:22Z</time>
      </trkpt>
      <trkpt lat="43.18536" lon="2.03449">
        <ele>320.98</ele>
        <time>2019-09-02T07:14:23Z</time>
      </trkpt>
      <trkpt lat="43.18534" lon="2.03448">
        <ele>320.92</ele>
        <time>2019-09-02T07:14:24Z</time>
      </trkpt>
      <trkpt lat="43.18532" lon="2.03447">
        <ele>320.79</ele>
        <time>2019-09-02T07:14:25Z</time>
      </trkpt>
      <trkpt lat="43.18531" lon="2.03446">
        <ele>320.62</ele>
        <time>2019-09-02T07:14:26Z</time>
      </trkpt>
      <trkpt lat="43.18529" lon="2.03445">
        <ele>320.43</ele>
        <time>2019-09-02T07:14:27Z</time>
      </trkpt>
      <trkpt lat="43.1851" lon="2.03438">
        <ele>319.3</ele>
        <time>2019-09-02T07:14:41Z</time>
      </trkpt>
      <trkpt lat="43.185" lon="2.03436">
        <ele>319.34</ele>
        <time>2019-09-02T07:14:48Z</time>
      </trkpt>
      <trkpt lat="43.18498" lon="2.03435">
        <ele>319.28</ele>
        <time>2019-09-02T07:14:50Z</time>
      </trkpt>
      <trkpt lat="43.18497" lon="2.03435">
        <ele>319.23</ele>
        <time>2019-09-02T07:14:51Z</time>
      </trkpt>
      <trkpt lat="43.18495" lon="2.03434">
        <ele>319.18</ele>
        <time>2019-09-02T07:14:52Z</time>
      </trkpt>
      <trkpt lat="43.18488" lon="2.03431">
        <ele>319.08</ele>
        <time>2019-09-02T07:14:58Z</time>
      </trkpt>
      <trkpt lat="43.18487" lon="2.03431">
        <ele>319.08</ele>
        <time>2019-09-02T07:14:59Z</time>
      </trkpt>
      <trkpt lat="43.18483" lon="2.03431">
        <ele>319.24</ele>
        <time>2019-09-02T07:15:02Z</time>
      </trkpt>
      <trkpt lat="43.18479" lon="2.03432">
        <ele>319.39</ele>
        <time>2019-09-02T07:15:06Z</time>
      </trkpt>
      <trkpt lat="43.18471" lon="2.03433">
        <ele>319.87</ele>
        <time>2019-09-02T07:15:16Z</time>
      </trkpt>
      <trkpt lat="43.18451" lon="2.03425">
        <ele>321.53</ele>
        <time>2019-09-02T07:15:35Z</time>
      </trkpt>
      <trkpt lat="43.18451" lon="2.03424">
        <ele>321.6</ele>
        <time>2019-09-02T07:15:36Z</time>
      </trkpt>
      <trkpt lat="43.18469" lon="2.03431">
        <ele>320.55</ele>
        <time>2019-09-02T07:15:55Z</time>
      </trkpt>
      <trkpt lat="43.18466" lon="2.03424">
        <ele>319.53</ele>
        <time>2019-09-02T07:18:51Z</time>
      </trkpt>
      <trkpt lat="43.18465" lon="2.03424">
        <ele>319.38</ele>
        <time>2019-09-02T07:18:52Z</time>
      </trkpt>
      <trkpt lat="43.18469" lon="2.03426">
        <ele>320.51</ele>
        <time>2019-09-02T07:20:36Z</time>
      </trkpt>
      <trkpt lat="43.18473" lon="2.03442">
        <ele>320.32</ele>
        <time>2019-09-02T07:20:43Z</time>
      </trkpt>
      <trkpt lat="43.18474" lon="2.03444">
        <ele>320.32</ele>
        <time>2019-09-02T07:20:44Z</time>
      </trkpt>
      <trkpt lat="43.18476" lon="2.03445">
        <ele>319.87</ele>
        <time>2019-09-02T07:21:01Z</time>
      </trkpt>
      <trkpt lat="43.1847" lon="2.03437">
        <ele>320.03</ele>
        <time>2019-09-02T07:21:12Z</time>
      </trkpt>
      <trkpt lat="43.18472" lon="2.03438">
        <ele>320.32</ele>
        <time>2019-09-02T07:21:17Z</time>
      </trkpt>
      <trkpt lat="43.18473" lon="2.03446">
        <ele>319.94</ele>
        <time>2019-09-02T07:21:34Z</time>
      </trkpt>
      <trkpt lat="43.18478" lon="2.03418">
        <ele>319.91</ele>
        <time>2019-09-02T07:22:50Z</time>
      </trkpt>
      <trkpt lat="43.18471" lon="2.03429">
        <ele>319.36</ele>
        <time>2019-09-02T07:23:02Z</time>
      </trkpt>
      <trkpt lat="43.18472" lon="2.03427">
        <ele>319.9</ele>
        <time>2019-09-02T07:23:30Z</time>
      </trkpt>
      <trkpt lat="43.18475" lon="2.03428">
        <ele>320.55</ele>
        <time>2019-09-02T07:23:55Z</time>
      </trkpt>
      <trkpt lat="43.18479" lon="2.0343">
        <ele>321</ele>
        <time>2019-09-02T07:24:33Z</time>
      </trkpt>
      <trkpt lat="43.18476" lon="2.03431">
        <ele>320.63</ele>
        <time>2019-09-02T07:25:01Z</time>
      </trkpt>
      <trkpt lat="43.18475" lon="2.03431">
        <ele>321.13</ele>
        <time>2019-09-02T07:25:22Z</time>
      </trkpt>
      <trkpt lat="43.18473" lon="2.03431">
        <ele>321.13</ele>
        <time>2019-09-02T07:25:53Z</time>
      </trkpt>
      <trkpt lat="43.18471" lon="2.03427">
        <ele>321.13</ele>
        <time>2019-09-02T07:26:15Z</time>
      </trkpt>
      <trkpt lat="43.18451" lon="2.03428">
        <ele>322.74</ele>
        <time>2019-09-02T07:26:39Z</time>
      </trkpt>
      <trkpt lat="43.18441" lon="2.03428">
        <ele>324.38</ele>
        <time>2019-09-02T07:26:46Z</time>
      </trkpt>
      <trkpt lat="43.18431" lon="2.03429">
        <ele>324.27</ele>
        <time>2019-09-02T07:26:53Z</time>
      </trkpt>
      <trkpt lat="43.18408" lon="2.03421">
        <ele>324.66</ele>
        <time>2019-09-02T07:27:10Z</time>
      </trkpt>
      <trkpt lat="43.18386" lon="2.03423">
        <ele>326.07</ele>
        <time>2019-09-02T07:27:29Z</time>
      </trkpt>
      <trkpt lat="43.18382" lon="2.03425">
        <ele>326.53</ele>
        <time>2019-09-02T07:27:33Z</time>
      </trkpt>
      <trkpt lat="43.18381" lon="2.03426">
        <ele>326.58</ele>
        <time>2019-09-02T07:27:34Z</time>
      </trkpt>
      <trkpt lat="43.18364" lon="2.03433">
        <ele>326.94</ele>
        <time>2019-09-02T07:27:50Z</time>
      </trkpt>
      <trkpt lat="43.18351" lon="2.03429">
        <ele>327.37</ele>
        <time>2019-09-02T07:27:59Z</time>
      </trkpt>
      <trkpt lat="43.1835" lon="2.03428">
        <ele>327.46</ele>
        <time>2019-09-02T07:28:00Z</time>
      </trkpt>
      <trkpt lat="43.18334" lon="2.03427">
        <ele>328.73</ele>
        <time>2019-09-02T07:28:17Z</time>
      </trkpt>
      <trkpt lat="43.1832" lon="2.03423">
        <ele>330.01</ele>
        <time>2019-09-02T07:28:35Z</time>
      </trkpt>
      <trkpt lat="43.18315" lon="2.03418">
        <ele>331.52</ele>
        <time>2019-09-02T07:28:57Z</time>
      </trkpt>
      <trkpt lat="43.1831" lon="2.03421">
        <ele>331.49</ele>
        <time>2019-09-02T07:29:20Z</time>
      </trkpt>
      <trkpt lat="43.18298" lon="2.03419">
        <ele>332.84</ele>
        <time>2019-09-02T07:29:33Z</time>
      </trkpt>
      <trkpt lat="43.18283" lon="2.03417">
        <ele>334.86</ele>
        <time>2019-09-02T07:29:48Z</time>
      </trkpt>
      <trkpt lat="43.18262" lon="2.03413">
        <ele>337.5</ele>
        <time>2019-09-02T07:30:10Z</time>
      </trkpt>
      <trkpt lat="43.18249" lon="2.03412">
        <ele>340.68</ele>
        <time>2019-09-02T07:30:25Z</time>
      </trkpt>
      <trkpt lat="43.18231" lon="2.03398">
        <ele>343.75</ele>
        <time>2019-09-02T07:30:47Z</time>
      </trkpt>
      <trkpt lat="43.18227" lon="2.03396">
        <ele>344.21</ele>
        <time>2019-09-02T07:30:50Z</time>
      </trkpt>
      <trkpt lat="43.18225" lon="2.03394">
        <ele>344.75</ele>
        <time>2019-09-02T07:30:52Z</time>
      </trkpt>
      <trkpt lat="43.182" lon="2.03382">
        <ele>342.88</ele>
        <time>2019-09-02T07:31:13Z</time>
      </trkpt>
      <trkpt lat="43.18198" lon="2.03381">
        <ele>342.1</ele>
        <time>2019-09-02T07:31:15Z</time>
      </trkpt>
      <trkpt lat="43.18193" lon="2.03378">
        <ele>345.45</ele>
        <time>2019-09-02T07:31:19Z</time>
      </trkpt>
      <trkpt lat="43.18191" lon="2.03377">
        <ele>346.26</ele>
        <time>2019-09-02T07:31:21Z</time>
      </trkpt>
      <trkpt lat="43.18166" lon="2.03363">
        <ele>343.74</ele>
        <time>2019-09-02T07:31:43Z</time>
      </trkpt>
      <trkpt lat="43.18142" lon="2.03351">
        <ele>343.06</ele>
        <time>2019-09-02T07:32:03Z</time>
      </trkpt>
      <trkpt lat="43.18115" lon="2.03338">
        <ele>342.3</ele>
        <time>2019-09-02T07:32:25Z</time>
      </trkpt>
      <trkpt lat="43.18088" lon="2.03304">
        <ele>341.2</ele>
        <time>2019-09-02T07:32:54Z</time>
      </trkpt>
      <trkpt lat="43.18063" lon="2.03269">
        <ele>340.85</ele>
        <time>2019-09-02T07:33:20Z</time>
      </trkpt>
      <trkpt lat="43.18026" lon="2.03254">
        <ele>341.13</ele>
        <time>2019-09-02T07:33:49Z</time>
      </trkpt>
      <trkpt lat="43.17991" lon="2.03244">
        <ele>342.02</ele>
        <time>2019-09-02T07:34:17Z</time>
      </trkpt>
      <trkpt lat="43.1796" lon="2.03227">
        <ele>343.36</ele>
        <time>2019-09-02T07:34:43Z</time>
      </trkpt>
      <trkpt lat="43.1793" lon="2.03198">
        <ele>343.89</ele>
        <time>2019-09-02T07:35:11Z</time>
      </trkpt>
      <trkpt lat="43.17903" lon="2.03171">
        <ele>343.71</ele>
        <time>2019-09-02T07:35:37Z</time>
      </trkpt>
      <trkpt lat="43.17869" lon="2.03144">
        <ele>344.12</ele>
        <time>2019-09-02T07:36:08Z</time>
      </trkpt>
      <trkpt lat="43.17841" lon="2.03127">
        <ele>345.22</ele>
        <time>2019-09-02T07:36:34Z</time>
      </trkpt>
      <trkpt lat="43.17841" lon="2.03126">
        <ele>345.21</ele>
        <time>2019-09-02T07:36:39Z</time>
      </trkpt>
      <trkpt lat="43.17842" lon="2.03128">
        <ele>344.95</ele>
        <time>2019-09-02T07:37:04Z</time>
      </trkpt>
      <trkpt lat="43.17842" lon="2.03128">
        <ele>344.95</ele>
        <time>2019-09-02T07:38:05Z</time>
      </trkpt>
      <trkpt lat="43.17842" lon="2.03127">
        <ele>344.95</ele>
        <time>2019-09-02T07:38:27Z</time>
      </trkpt>
      <trkpt lat="43.17839" lon="2.03128">
        <ele>344.95</ele>
        <time>2019-09-02T07:38:44Z</time>
      </trkpt>
      <trkpt lat="43.17837" lon="2.03127">
        <ele>344.95</ele>
        <time>2019-09-02T07:38:46Z</time>
      </trkpt>
      <trkpt lat="43.17805" lon="2.03112">
        <ele>345.6</ele>
        <time>2019-09-02T07:39:12Z</time>
      </trkpt>
      <trkpt lat="43.17772" lon="2.03094">
        <ele>344.02</ele>
        <time>2019-09-02T07:39:39Z</time>
      </trkpt>
      <trkpt lat="43.17737" lon="2.03077">
        <ele>343.37</ele>
        <time>2019-09-02T07:40:07Z</time>
      </trkpt>
      <trkpt lat="43.17707" lon="2.0306">
        <ele>341.66</ele>
        <time>2019-09-02T07:40:31Z</time>
      </trkpt>
      <trkpt lat="43.17672" lon="2.03041">
        <ele>340.74</ele>
        <time>2019-09-02T07:40:59Z</time>
      </trkpt>
      <trkpt lat="43.17641" lon="2.03024">
        <ele>341.31</ele>
        <time>2019-09-02T07:41:25Z</time>
      </trkpt>
      <trkpt lat="43.17612" lon="2.03009">
        <ele>343.19</ele>
        <time>2019-09-02T07:41:51Z</time>
      </trkpt>
      <trkpt lat="43.17594" lon="2.03001">
        <ele>345.1</ele>
        <time>2019-09-02T07:42:13Z</time>
      </trkpt>
      <trkpt lat="43.17591" lon="2.03">
        <ele>345.3</ele>
        <time>2019-09-02T07:42:15Z</time>
      </trkpt>
      <trkpt lat="43.1759" lon="2.03">
        <ele>345.36</ele>
        <time>2019-09-02T07:42:16Z</time>
      </trkpt>
      <trkpt lat="43.17573" lon="2.0299">
        <ele>346.18</ele>
        <time>2019-09-02T07:42:34Z</time>
      </trkpt>
      <trkpt lat="43.17553" lon="2.02979">
        <ele>347.97</ele>
        <time>2019-09-02T07:42:53Z</time>
      </trkpt>
      <trkpt lat="43.17532" lon="2.0297">
        <ele>348.93</ele>
        <time>2019-09-02T07:43:10Z</time>
      </trkpt>
      <trkpt lat="43.17516" lon="2.02963">
        <ele>347.87</ele>
        <time>2019-09-02T07:43:24Z</time>
      </trkpt>
      <trkpt lat="43.17513" lon="2.02963">
        <ele>347.9</ele>
        <time>2019-09-02T07:43:26Z</time>
      </trkpt>
      <trkpt lat="43.17486" lon="2.02956">
        <ele>345.39</ele>
        <time>2019-09-02T07:43:47Z</time>
      </trkpt>
      <trkpt lat="43.17482" lon="2.02955">
        <ele>345.03</ele>
        <time>2019-09-02T07:43:50Z</time>
      </trkpt>
      <trkpt lat="43.17459" lon="2.0295">
        <ele>343.24</ele>
        <time>2019-09-02T07:44:10Z</time>
      </trkpt>
      <trkpt lat="43.17435" lon="2.02944">
        <ele>341.97</ele>
        <time>2019-09-02T07:44:27Z</time>
      </trkpt>
      <trkpt lat="43.1741" lon="2.02937">
        <ele>340.69</ele>
        <time>2019-09-02T07:44:46Z</time>
      </trkpt>
      <trkpt lat="43.17389" lon="2.02931">
        <ele>339.24</ele>
        <time>2019-09-02T07:45:05Z</time>
      </trkpt>
      <trkpt lat="43.17387" lon="2.02929">
        <ele>337.69</ele>
        <time>2019-09-02T07:45:25Z</time>
      </trkpt>
      <trkpt lat="43.17382" lon="2.02929">
        <ele>338.48</ele>
        <time>2019-09-02T07:45:48Z</time>
      </trkpt>
      <trkpt lat="43.17377" lon="2.02927">
        <ele>338.6</ele>
        <time>2019-09-02T07:46:19Z</time>
      </trkpt>
      <trkpt lat="43.17354" lon="2.02922">
        <ele>338.18</ele>
        <time>2019-09-02T07:46:42Z</time>
      </trkpt>
      <trkpt lat="43.17341" lon="2.02919">
        <ele>337.52</ele>
        <time>2019-09-02T07:46:58Z</time>
      </trkpt>
      <trkpt lat="43.17313" lon="2.02912">
        <ele>336.21</ele>
        <time>2019-09-02T07:47:22Z</time>
      </trkpt>
      <trkpt lat="43.17291" lon="2.02905">
        <ele>334.81</ele>
        <time>2019-09-02T07:47:42Z</time>
      </trkpt>
      <trkpt lat="43.17267" lon="2.0289">
        <ele>333.67</ele>
        <time>2019-09-02T07:48:04Z</time>
      </trkpt>
      <trkpt lat="43.17244" lon="2.02867">
        <ele>330.99</ele>
        <time>2019-09-02T07:48:28Z</time>
      </trkpt>
      <trkpt lat="43.17217" lon="2.02838">
        <ele>328.19</ele>
        <time>2019-09-02T07:48:54Z</time>
      </trkpt>
      <trkpt lat="43.17198" lon="2.0282">
        <ele>326.35</ele>
        <time>2019-09-02T07:49:13Z</time>
      </trkpt>
      <trkpt lat="43.17172" lon="2.02793">
        <ele>323.77</ele>
        <time>2019-09-02T07:49:38Z</time>
      </trkpt>
      <trkpt lat="43.1714" lon="2.02763">
        <ele>320.98</ele>
        <time>2019-09-02T07:50:07Z</time>
      </trkpt>
      <trkpt lat="43.17112" lon="2.02739">
        <ele>320.76</ele>
        <time>2019-09-02T07:50:31Z</time>
      </trkpt>
      <trkpt lat="43.17089" lon="2.02719">
        <ele>323.02</ele>
        <time>2019-09-02T07:50:51Z</time>
      </trkpt>
      <trkpt lat="43.17062" lon="2.02697">
        <ele>321.52</ele>
        <time>2019-09-02T07:51:15Z</time>
      </trkpt>
      <trkpt lat="43.17041" lon="2.02677">
        <ele>324.06</ele>
        <time>2019-09-02T07:51:38Z</time>
      </trkpt>
      <trkpt lat="43.17016" lon="2.02657">
        <ele>327.12</ele>
        <time>2019-09-02T07:52:02Z</time>
      </trkpt>
      <trkpt lat="43.16991" lon="2.02637">
        <ele>330.28</ele>
        <time>2019-09-02T07:52:28Z</time>
      </trkpt>
      <trkpt lat="43.16966" lon="2.02617">
        <ele>333.13</ele>
        <time>2019-09-02T07:52:54Z</time>
      </trkpt>
      <trkpt lat="43.1694" lon="2.02597">
        <ele>335.5</ele>
        <time>2019-09-02T07:53:19Z</time>
      </trkpt>
      <trkpt lat="43.16914" lon="2.02576">
        <ele>337.89</ele>
        <time>2019-09-02T07:53:44Z</time>
      </trkpt>
      <trkpt lat="43.16893" lon="2.02559">
        <ele>339.52</ele>
        <time>2019-09-02T07:54:06Z</time>
      </trkpt>
      <trkpt lat="43.1687" lon="2.0254">
        <ele>342.66</ele>
        <time>2019-09-02T07:54:30Z</time>
      </trkpt>
      <trkpt lat="43.16849" lon="2.02524">
        <ele>345.8</ele>
        <time>2019-09-02T07:54:52Z</time>
      </trkpt>
      <trkpt lat="43.16832" lon="2.02512">
        <ele>348.8</ele>
        <time>2019-09-02T07:55:09Z</time>
      </trkpt>
      <trkpt lat="43.16821" lon="2.02511">
        <ele>349.64</ele>
        <time>2019-09-02T07:55:19Z</time>
      </trkpt>
      <trkpt lat="43.16821" lon="2.0251">
        <ele>349.73</ele>
        <time>2019-09-02T07:55:20Z</time>
      </trkpt>
      <trkpt lat="43.1682" lon="2.02509">
        <ele>349.84</ele>
        <time>2019-09-02T07:55:21Z</time>
      </trkpt>
      <trkpt lat="43.16802" lon="2.02492">
        <ele>350.39</ele>
        <time>2019-09-02T07:55:38Z</time>
      </trkpt>
      <trkpt lat="43.16781" lon="2.02476">
        <ele>349.95</ele>
        <time>2019-09-02T07:55:58Z</time>
      </trkpt>
      <trkpt lat="43.1676" lon="2.02459">
        <ele>349.51</ele>
        <time>2019-09-02T07:56:17Z</time>
      </trkpt>
      <trkpt lat="43.16742" lon="2.02445">
        <ele>349.57</ele>
        <time>2019-09-02T07:56:34Z</time>
      </trkpt>
      <trkpt lat="43.16724" lon="2.02432">
        <ele>350.79</ele>
        <time>2019-09-02T07:56:52Z</time>
      </trkpt>
      <trkpt lat="43.16696" lon="2.02416">
        <ele>352.98</ele>
        <time>2019-09-02T07:57:18Z</time>
      </trkpt>
      <trkpt lat="43.16676" lon="2.02407">
        <ele>356.16</ele>
        <time>2019-09-02T07:57:38Z</time>
      </trkpt>
      <trkpt lat="43.16674" lon="2.02406">
        <ele>356.53</ele>
        <time>2019-09-02T07:57:40Z</time>
      </trkpt>
      <trkpt lat="43.16654" lon="2.02399">
        <ele>358.79</ele>
        <time>2019-09-02T07:57:59Z</time>
      </trkpt>
      <trkpt lat="43.1663" lon="2.0239">
        <ele>360.03</ele>
        <time>2019-09-02T07:58:20Z</time>
      </trkpt>
      <trkpt lat="43.16606" lon="2.0238">
        <ele>360.92</ele>
        <time>2019-09-02T07:58:41Z</time>
      </trkpt>
      <trkpt lat="43.16583" lon="2.02377">
        <ele>360.57</ele>
        <time>2019-09-02T07:59:02Z</time>
      </trkpt>
      <trkpt lat="43.1656" lon="2.02379">
        <ele>360.43</ele>
        <time>2019-09-02T07:59:20Z</time>
      </trkpt>
      <trkpt lat="43.16537" lon="2.02379">
        <ele>359.75</ele>
        <time>2019-09-02T07:59:37Z</time>
      </trkpt>
      <trkpt lat="43.16514" lon="2.02376">
        <ele>360.54</ele>
        <time>2019-09-02T07:59:55Z</time>
      </trkpt>
      <trkpt lat="43.16484" lon="2.02364">
        <ele>362.97</ele>
        <time>2019-09-02T08:00:19Z</time>
      </trkpt>
      <trkpt lat="43.16461" lon="2.02354">
        <ele>363.97</ele>
        <time>2019-09-02T08:00:40Z</time>
      </trkpt>
      <trkpt lat="43.16437" lon="2.02341">
        <ele>365.75</ele>
        <time>2019-09-02T08:01:02Z</time>
      </trkpt>
      <trkpt lat="43.16414" lon="2.0233">
        <ele>367.41</ele>
        <time>2019-09-02T08:01:23Z</time>
      </trkpt>
      <trkpt lat="43.16388" lon="2.02327">
        <ele>368.26</ele>
        <time>2019-09-02T08:01:45Z</time>
      </trkpt>
      <trkpt lat="43.16364" lon="2.02336">
        <ele>369.14</ele>
        <time>2019-09-02T08:02:07Z</time>
      </trkpt>
      <trkpt lat="43.16343" lon="2.02354">
        <ele>367.89</ele>
        <time>2019-09-02T08:02:27Z</time>
      </trkpt>
      <trkpt lat="43.1632" lon="2.02377">
        <ele>367.09</ele>
        <time>2019-09-02T08:02:49Z</time>
      </trkpt>
      <trkpt lat="43.16291" lon="2.0239">
        <ele>366.91</ele>
        <time>2019-09-02T08:03:15Z</time>
      </trkpt>
      <trkpt lat="43.16263" lon="2.02371">
        <ele>368.74</ele>
        <time>2019-09-02T08:03:39Z</time>
      </trkpt>
      <trkpt lat="43.16233" lon="2.02355">
        <ele>369.72</ele>
        <time>2019-09-02T08:04:04Z</time>
      </trkpt>
      <trkpt lat="43.16208" lon="2.0234">
        <ele>369.82</ele>
        <time>2019-09-02T08:04:26Z</time>
      </trkpt>
      <trkpt lat="43.16195" lon="2.02319">
        <ele>370.02</ele>
        <time>2019-09-02T08:04:44Z</time>
      </trkpt>
      <trkpt lat="43.16184" lon="2.02303">
        <ele>370.76</ele>
        <time>2019-09-02T08:05:01Z</time>
      </trkpt>
      <trkpt lat="43.16174" lon="2.02292">
        <ele>372.05</ele>
        <time>2019-09-02T08:05:13Z</time>
      </trkpt>
      <trkpt lat="43.16171" lon="2.02289">
        <ele>372.19</ele>
        <time>2019-09-02T08:05:15Z</time>
      </trkpt>
      <trkpt lat="43.1617" lon="2.02288">
        <ele>372.24</ele>
        <time>2019-09-02T08:05:16Z</time>
      </trkpt>
      <trkpt lat="43.16169" lon="2.02286">
        <ele>372.27</ele>
        <time>2019-09-02T08:05:17Z</time>
      </trkpt>
      <trkpt lat="43.16159" lon="2.02261">
        <ele>374.18</ele>
        <time>2019-09-02T08:05:35Z</time>
      </trkpt>
      <trkpt lat="43.16156" lon="2.02228">
        <ele>376.36</ele>
        <time>2019-09-02T08:06:00Z</time>
      </trkpt>
      <trkpt lat="43.16153" lon="2.02201">
        <ele>377.9</ele>
        <time>2019-09-02T08:06:16Z</time>
      </trkpt>
      <trkpt lat="43.16141" lon="2.02159">
        <ele>379.89</ele>
        <time>2019-09-02T08:06:41Z</time>
      </trkpt>
      <trkpt lat="43.16135" lon="2.02142">
        <ele>380.24</ele>
        <time>2019-09-02T08:06:52Z</time>
      </trkpt>
      <trkpt lat="43.16124" lon="2.02121">
        <ele>381.73</ele>
        <time>2019-09-02T08:07:08Z</time>
      </trkpt>
      <trkpt lat="43.16122" lon="2.02118">
        <ele>381.87</ele>
        <time>2019-09-02T08:07:10Z</time>
      </trkpt>
      <trkpt lat="43.16112" lon="2.02102">
        <ele>382.3</ele>
        <time>2019-09-02T08:07:24Z</time>
      </trkpt>
      <trkpt lat="43.16107" lon="2.02086">
        <ele>383.18</ele>
        <time>2019-09-02T08:07:35Z</time>
      </trkpt>
      <trkpt lat="43.16106" lon="2.02084">
        <ele>383.23</ele>
        <time>2019-09-02T08:07:36Z</time>
      </trkpt>
      <trkpt lat="43.16096" lon="2.0206">
        <ele>385.33</ele>
        <time>2019-09-02T08:07:55Z</time>
      </trkpt>
      <trkpt lat="43.16084" lon="2.02036">
        <ele>388.44</ele>
        <time>2019-09-02T08:08:12Z</time>
      </trkpt>
      <trkpt lat="43.16062" lon="2.02009">
        <ele>390.44</ele>
        <time>2019-09-02T08:08:37Z</time>
      </trkpt>
      <trkpt lat="43.16047" lon="2.01983">
        <ele>390.66</ele>
        <time>2019-09-02T08:08:56Z</time>
      </trkpt>
      <trkpt lat="43.1603" lon="2.01954">
        <ele>388.5</ele>
        <time>2019-09-02T08:09:17Z</time>
      </trkpt>
      <trkpt lat="43.16013" lon="2.01916">
        <ele>388.77</ele>
        <time>2019-09-02T08:09:42Z</time>
      </trkpt>
      <trkpt lat="43.16007" lon="2.01878">
        <ele>386.79</ele>
        <time>2019-09-02T08:10:04Z</time>
      </trkpt>
      <trkpt lat="43.15996" lon="2.01852">
        <ele>387.38</ele>
        <time>2019-09-02T08:10:21Z</time>
      </trkpt>
      <trkpt lat="43.15973" lon="2.01828">
        <ele>389.03</ele>
        <time>2019-09-02T08:10:43Z</time>
      </trkpt>
      <trkpt lat="43.15953" lon="2.01822">
        <ele>390.12</ele>
        <time>2019-09-02T08:11:03Z</time>
      </trkpt>
      <trkpt lat="43.15934" lon="2.01817">
        <ele>391.71</ele>
        <time>2019-09-02T08:11:22Z</time>
      </trkpt>
      <trkpt lat="43.15933" lon="2.01817">
        <ele>391.89</ele>
        <time>2019-09-02T08:11:23Z</time>
      </trkpt>
      <trkpt lat="43.15932" lon="2.01817">
        <ele>392.06</ele>
        <time>2019-09-02T08:11:24Z</time>
      </trkpt>
      <trkpt lat="43.15931" lon="2.01816">
        <ele>392.21</ele>
        <time>2019-09-02T08:11:25Z</time>
      </trkpt>
      <trkpt lat="43.1593" lon="2.01816">
        <ele>392.36</ele>
        <time>2019-09-02T08:11:26Z</time>
      </trkpt>
      <trkpt lat="43.15913" lon="2.01811">
        <ele>394.23</ele>
        <time>2019-09-02T08:11:45Z</time>
      </trkpt>
      <trkpt lat="43.15894" lon="2.01806">
        <ele>395.87</ele>
        <time>2019-09-02T08:12:04Z</time>
      </trkpt>
      <trkpt lat="43.15872" lon="2.0181">
        <ele>398.08</ele>
        <time>2019-09-02T08:12:24Z</time>
      </trkpt>
      <trkpt lat="43.15859" lon="2.01827">
        <ele>399.23</ele>
        <time>2019-09-02T08:12:39Z</time>
      </trkpt>
      <trkpt lat="43.15852" lon="2.01841">
        <ele>397.8</ele>
        <time>2019-09-02T08:12:55Z</time>
      </trkpt>
      <trkpt lat="43.1585" lon="2.01843">
        <ele>398.11</ele>
        <time>2019-09-02T08:12:58Z</time>
      </trkpt>
      <trkpt lat="43.15844" lon="2.01851">
        <ele>397.45</ele>
        <time>2019-09-02T08:13:15Z</time>
      </trkpt>
      <trkpt lat="43.15842" lon="2.01852">
        <ele>397.41</ele>
        <time>2019-09-02T08:13:16Z</time>
      </trkpt>
      <trkpt lat="43.15841" lon="2.01853">
        <ele>397.37</ele>
        <time>2019-09-02T08:13:17Z</time>
      </trkpt>
      <trkpt lat="43.1584" lon="2.01854">
        <ele>397.33</ele>
        <time>2019-09-02T08:13:18Z</time>
      </trkpt>
      <trkpt lat="43.15828" lon="2.01871">
        <ele>395.65</ele>
        <time>2019-09-02T08:13:32Z</time>
      </trkpt>
      <trkpt lat="43.15817" lon="2.01882">
        <ele>394.44</ele>
        <time>2019-09-02T08:13:43Z</time>
      </trkpt>
      <trkpt lat="43.15815" lon="2.01887">
        <ele>393.96</ele>
        <time>2019-09-02T08:13:46Z</time>
      </trkpt>
      <trkpt lat="43.158" lon="2.019">
        <ele>391.69</ele>
        <time>2019-09-02T08:13:59Z</time>
      </trkpt>
      <trkpt lat="43.15786" lon="2.01909">
        <ele>390.52</ele>
        <time>2019-09-02T08:14:11Z</time>
      </trkpt>
      <trkpt lat="43.15784" lon="2.01911">
        <ele>390.31</ele>
        <time>2019-09-02T08:14:13Z</time>
      </trkpt>
      <trkpt lat="43.15765" lon="2.01923">
        <ele>388.64</ele>
        <time>2019-09-02T08:14:28Z</time>
      </trkpt>
      <trkpt lat="43.15747" lon="2.0195">
        <ele>386.36</ele>
        <time>2019-09-02T08:14:47Z</time>
      </trkpt>
      <trkpt lat="43.15735" lon="2.01971">
        <ele>384.57</ele>
        <time>2019-09-02T08:15:01Z</time>
      </trkpt>
      <trkpt lat="43.15716" lon="2.01988">
        <ele>384.12</ele>
        <time>2019-09-02T08:15:18Z</time>
      </trkpt>
      <trkpt lat="43.15702" lon="2.01977">
        <ele>383.17</ele>
        <time>2019-09-02T08:15:33Z</time>
      </trkpt>
      <trkpt lat="43.15696" lon="2.01959">
        <ele>382.18</ele>
        <time>2019-09-02T08:15:45Z</time>
      </trkpt>
      <trkpt lat="43.1569" lon="2.01943">
        <ele>381.97</ele>
        <time>2019-09-02T08:15:56Z</time>
      </trkpt>
      <trkpt lat="43.1568" lon="2.01911">
        <ele>383.83</ele>
        <time>2019-09-02T08:16:14Z</time>
      </trkpt>
      <trkpt lat="43.15674" lon="2.01886">
        <ele>384.91</ele>
        <time>2019-09-02T08:16:28Z</time>
      </trkpt>
      <trkpt lat="43.15671" lon="2.01863">
        <ele>384.81</ele>
        <time>2019-09-02T08:16:43Z</time>
      </trkpt>
      <trkpt lat="43.15665" lon="2.0183">
        <ele>385.28</ele>
        <time>2019-09-02T08:17:01Z</time>
      </trkpt>
      <trkpt lat="43.15661" lon="2.01812">
        <ele>385.16</ele>
        <time>2019-09-02T08:17:15Z</time>
      </trkpt>
      <trkpt lat="43.15655" lon="2.01788">
        <ele>385.16</ele>
        <time>2019-09-02T08:17:29Z</time>
      </trkpt>
      <trkpt lat="43.1565" lon="2.01767">
        <ele>385.5</ele>
        <time>2019-09-02T08:17:42Z</time>
      </trkpt>
      <trkpt lat="43.15643" lon="2.01727">
        <ele>385.97</ele>
        <time>2019-09-02T08:18:03Z</time>
      </trkpt>
      <trkpt lat="43.15639" lon="2.01691">
        <ele>384.72</ele>
        <time>2019-09-02T08:18:23Z</time>
      </trkpt>
      <trkpt lat="43.15638" lon="2.01685">
        <ele>384.64</ele>
        <time>2019-09-02T08:18:26Z</time>
      </trkpt>
      <trkpt lat="43.15635" lon="2.01662">
        <ele>383.44</ele>
        <time>2019-09-02T08:18:39Z</time>
      </trkpt>
      <trkpt lat="43.15631" lon="2.01639">
        <ele>382.18</ele>
        <time>2019-09-02T08:18:53Z</time>
      </trkpt>
      <trkpt lat="43.15624" lon="2.01602">
        <ele>380.79</ele>
        <time>2019-09-02T08:19:13Z</time>
      </trkpt>
      <trkpt lat="43.15618" lon="2.01576">
        <ele>379.86</ele>
        <time>2019-09-02T08:19:27Z</time>
      </trkpt>
      <trkpt lat="43.15613" lon="2.0156">
        <ele>379.44</ele>
        <time>2019-09-02T08:19:37Z</time>
      </trkpt>
      <trkpt lat="43.15611" lon="2.01554">
        <ele>379.14</ele>
        <time>2019-09-02T08:19:40Z</time>
      </trkpt>
      <trkpt lat="43.15594" lon="2.01526">
        <ele>377.51</ele>
        <time>2019-09-02T08:19:59Z</time>
      </trkpt>
      <trkpt lat="43.15573" lon="2.01496">
        <ele>375.03</ele>
        <time>2019-09-02T08:20:21Z</time>
      </trkpt>
      <trkpt lat="43.15546" lon="2.01459">
        <ele>373.74</ele>
        <time>2019-09-02T08:20:49Z</time>
      </trkpt>
      <trkpt lat="43.1552" lon="2.01426">
        <ele>373.54</ele>
        <time>2019-09-02T08:21:14Z</time>
      </trkpt>
      <trkpt lat="43.15489" lon="2.0139">
        <ele>372.83</ele>
        <time>2019-09-02T08:21:45Z</time>
      </trkpt>
      <trkpt lat="43.15468" lon="2.01366">
        <ele>372.09</ele>
        <time>2019-09-02T08:22:06Z</time>
      </trkpt>
      <trkpt lat="43.15466" lon="2.01363">
        <ele>371.59</ele>
        <time>2019-09-02T08:22:09Z</time>
      </trkpt>
      <trkpt lat="43.15465" lon="2.01363">
        <ele>371.43</ele>
        <time>2019-09-02T08:22:10Z</time>
      </trkpt>
      <trkpt lat="43.15464" lon="2.01362">
        <ele>371.24</ele>
        <time>2019-09-02T08:22:11Z</time>
      </trkpt>
      <trkpt lat="43.15463" lon="2.01361">
        <ele>371.03</ele>
        <time>2019-09-02T08:22:12Z</time>
      </trkpt>
      <trkpt lat="43.15462" lon="2.0136">
        <ele>370.78</ele>
        <time>2019-09-02T08:22:13Z</time>
      </trkpt>
      <trkpt lat="43.15461" lon="2.01358">
        <ele>370.52</ele>
        <time>2019-09-02T08:22:14Z</time>
      </trkpt>
      <trkpt lat="43.15461" lon="2.01357">
        <ele>370.27</ele>
        <time>2019-09-02T08:22:15Z</time>
      </trkpt>
      <trkpt lat="43.15449" lon="2.01339">
        <ele>368.35</ele>
        <time>2019-09-02T08:22:29Z</time>
      </trkpt>
      <trkpt lat="43.15437" lon="2.01324">
        <ele>365.34</ele>
        <time>2019-09-02T08:22:41Z</time>
      </trkpt>
      <trkpt lat="43.15427" lon="2.01315">
        <ele>362.25</ele>
        <time>2019-09-02T08:22:50Z</time>
      </trkpt>
      <trkpt lat="43.15412" lon="2.01292">
        <ele>360.78</ele>
        <time>2019-09-02T08:23:06Z</time>
      </trkpt>
      <trkpt lat="43.15389" lon="2.01264">
        <ele>358.69</ele>
        <time>2019-09-02T08:23:29Z</time>
      </trkpt>
      <trkpt lat="43.15386" lon="2.01265">
        <ele>359.11</ele>
        <time>2019-09-02T08:23:46Z</time>
      </trkpt>
      <trkpt lat="43.15384" lon="2.01264">
        <ele>359.28</ele>
        <time>2019-09-02T08:24:13Z</time>
      </trkpt>
      <trkpt lat="43.1538" lon="2.0126">
        <ele>358.02</ele>
        <time>2019-09-02T08:24:33Z</time>
      </trkpt>
      <trkpt lat="43.15374" lon="2.01258">
        <ele>357.57</ele>
        <time>2019-09-02T08:24:40Z</time>
      </trkpt>
      <trkpt lat="43.15372" lon="2.01258">
        <ele>357.42</ele>
        <time>2019-09-02T08:24:42Z</time>
      </trkpt>
      <trkpt lat="43.1537" lon="2.01258">
        <ele>357.31</ele>
        <time>2019-09-02T08:24:43Z</time>
      </trkpt>
      <trkpt lat="43.15369" lon="2.01258">
        <ele>357.2</ele>
        <time>2019-09-02T08:24:44Z</time>
      </trkpt>
      <trkpt lat="43.15362" lon="2.0126">
        <ele>357.01</ele>
        <time>2019-09-02T08:24:50Z</time>
      </trkpt>
      <trkpt lat="43.15361" lon="2.0126">
        <ele>357.04</ele>
        <time>2019-09-02T08:24:51Z</time>
      </trkpt>
      <trkpt lat="43.1536" lon="2.0126">
        <ele>357.14</ele>
        <time>2019-09-02T08:24:52Z</time>
      </trkpt>
      <trkpt lat="43.15339" lon="2.01267">
        <ele>357.57</ele>
        <time>2019-09-02T08:25:09Z</time>
      </trkpt>
      <trkpt lat="43.15311" lon="2.01265">
        <ele>356.23</ele>
        <time>2019-09-02T08:25:30Z</time>
      </trkpt>
      <trkpt lat="43.15286" lon="2.0126">
        <ele>354.76</ele>
        <time>2019-09-02T08:25:49Z</time>
      </trkpt>
      <trkpt lat="43.15263" lon="2.01259">
        <ele>354.05</ele>
        <time>2019-09-02T08:26:06Z</time>
      </trkpt>
      <trkpt lat="43.15236" lon="2.01259">
        <ele>353.79</ele>
        <time>2019-09-02T08:26:26Z</time>
      </trkpt>
      <trkpt lat="43.15217" lon="2.01258">
        <ele>354.66</ele>
        <time>2019-09-02T08:26:43Z</time>
      </trkpt>
      <trkpt lat="43.15193" lon="2.01257">
        <ele>353.95</ele>
        <time>2019-09-02T08:27:02Z</time>
      </trkpt>
      <trkpt lat="43.15179" lon="2.01259">
        <ele>354.02</ele>
        <time>2019-09-02T08:27:14Z</time>
      </trkpt>
      <trkpt lat="43.15172" lon="2.0126">
        <ele>354.08</ele>
        <time>2019-09-02T08:27:19Z</time>
      </trkpt>
      <trkpt lat="43.15148" lon="2.01256">
        <ele>353.45</ele>
        <time>2019-09-02T08:27:35Z</time>
      </trkpt>
      <trkpt lat="43.15116" lon="2.01256">
        <ele>351.63</ele>
        <time>2019-09-02T08:27:59Z</time>
      </trkpt>
      <trkpt lat="43.15086" lon="2.01254">
        <ele>349.54</ele>
        <time>2019-09-02T08:28:21Z</time>
      </trkpt>
      <trkpt lat="43.15061" lon="2.01251">
        <ele>348.2</ele>
        <time>2019-09-02T08:28:40Z</time>
      </trkpt>
      <trkpt lat="43.15033" lon="2.01243">
        <ele>347.23</ele>
        <time>2019-09-02T08:29:01Z</time>
      </trkpt>
      <trkpt lat="43.15006" lon="2.01226">
        <ele>346.42</ele>
        <time>2019-09-02T08:29:23Z</time>
      </trkpt>
      <trkpt lat="43.14981" lon="2.01209">
        <ele>345.95</ele>
        <time>2019-09-02T08:29:44Z</time>
      </trkpt>
      <trkpt lat="43.14961" lon="2.01193">
        <ele>346.98</ele>
        <time>2019-09-02T08:30:04Z</time>
      </trkpt>
      <trkpt lat="43.1494" lon="2.01179">
        <ele>349.85</ele>
        <time>2019-09-02T08:30:25Z</time>
      </trkpt>
      <trkpt lat="43.14927" lon="2.0117">
        <ele>350.76</ele>
        <time>2019-09-02T08:30:42Z</time>
      </trkpt>
      <trkpt lat="43.14923" lon="2.01168">
        <ele>350.77</ele>
        <time>2019-09-02T08:30:49Z</time>
      </trkpt>
      <trkpt lat="43.14905" lon="2.01158">
        <ele>350.95</ele>
        <time>2019-09-02T08:31:09Z</time>
      </trkpt>
      <trkpt lat="43.14885" lon="2.01148">
        <ele>351.55</ele>
        <time>2019-09-02T08:31:30Z</time>
      </trkpt>
      <trkpt lat="43.14858" lon="2.01125">
        <ele>360.74</ele>
        <time>2019-09-02T08:31:49Z</time>
      </trkpt>
      <trkpt lat="43.14857" lon="2.01123">
        <ele>356.18</ele>
        <time>2019-09-02T08:31:50Z</time>
      </trkpt>
      <trkpt lat="43.14856" lon="2.01122">
        <ele>352.7</ele>
        <time>2019-09-02T08:31:52Z</time>
      </trkpt>
      <trkpt lat="43.14829" lon="2.01099">
        <ele>350.52</ele>
        <time>2019-09-02T08:32:10Z</time>
      </trkpt>
      <trkpt lat="43.14812" lon="2.0108">
        <ele>351.15</ele>
        <time>2019-09-02T08:32:30Z</time>
      </trkpt>
      <trkpt lat="43.14811" lon="2.01078">
        <ele>351.13</ele>
        <time>2019-09-02T08:32:31Z</time>
      </trkpt>
      <trkpt lat="43.14791" lon="2.0105">
        <ele>351.64</ele>
        <time>2019-09-02T08:32:49Z</time>
      </trkpt>
      <trkpt lat="43.14784" lon="2.01034">
        <ele>352.11</ele>
        <time>2019-09-02T08:33:04Z</time>
      </trkpt>
      <trkpt lat="43.14773" lon="2.01016">
        <ele>352.95</ele>
        <time>2019-09-02T08:33:17Z</time>
      </trkpt>
      <trkpt lat="43.14766" lon="2.01006">
        <ele>352.97</ele>
        <time>2019-09-02T08:33:31Z</time>
      </trkpt>
      <trkpt lat="43.14753" lon="2.00991">
        <ele>353.5</ele>
        <time>2019-09-02T08:33:48Z</time>
      </trkpt>
      <trkpt lat="43.14728" lon="2.0096">
        <ele>354.65</ele>
        <time>2019-09-02T08:34:11Z</time>
      </trkpt>
      <trkpt lat="43.14718" lon="2.00951">
        <ele>355.42</ele>
        <time>2019-09-02T08:34:21Z</time>
      </trkpt>
      <trkpt lat="43.14715" lon="2.00949">
        <ele>355.61</ele>
        <time>2019-09-02T08:34:23Z</time>
      </trkpt>
      <trkpt lat="43.14699" lon="2.00931">
        <ele>357.43</ele>
        <time>2019-09-02T08:34:39Z</time>
      </trkpt>
      <trkpt lat="43.14685" lon="2.00916">
        <ele>358.24</ele>
        <time>2019-09-02T08:34:55Z</time>
      </trkpt>
      <trkpt lat="43.14675" lon="2.00905">
        <ele>358.97</ele>
        <time>2019-09-02T08:35:08Z</time>
      </trkpt>
      <trkpt lat="43.1466" lon="2.00886">
        <ele>360.69</ele>
        <time>2019-09-02T08:35:26Z</time>
      </trkpt>
      <trkpt lat="43.14649" lon="2.00866">
        <ele>363.69</ele>
        <time>2019-09-02T08:35:45Z</time>
      </trkpt>
      <trkpt lat="43.14642" lon="2.00848">
        <ele>365.81</ele>
        <time>2019-09-02T08:36:01Z</time>
      </trkpt>
      <trkpt lat="43.14632" lon="2.00826">
        <ele>368.46</ele>
        <time>2019-09-02T08:36:21Z</time>
      </trkpt>
      <trkpt lat="43.14629" lon="2.00819">
        <ele>369.18</ele>
        <time>2019-09-02T08:36:26Z</time>
      </trkpt>
      <trkpt lat="43.14628" lon="2.00817">
        <ele>369.32</ele>
        <time>2019-09-02T08:36:27Z</time>
      </trkpt>
      <trkpt lat="43.14627" lon="2.00815">
        <ele>369.44</ele>
        <time>2019-09-02T08:36:28Z</time>
      </trkpt>
      <trkpt lat="43.14618" lon="2.0079">
        <ele>370.79</ele>
        <time>2019-09-02T08:36:46Z</time>
      </trkpt>
      <trkpt lat="43.14606" lon="2.00756">
        <ele>373.18</ele>
        <time>2019-09-02T08:37:11Z</time>
      </trkpt>
      <trkpt lat="43.14593" lon="2.00731">
        <ele>374.74</ele>
        <time>2019-09-02T08:37:31Z</time>
      </trkpt>
      <trkpt lat="43.14582" lon="2.00704">
        <ele>376.21</ele>
        <time>2019-09-02T08:37:52Z</time>
      </trkpt>
      <trkpt lat="43.14577" lon="2.00673">
        <ele>377.75</ele>
        <time>2019-09-02T08:38:13Z</time>
      </trkpt>
      <trkpt lat="43.14565" lon="2.00653">
        <ele>380.48</ele>
        <time>2019-09-02T08:38:31Z</time>
      </trkpt>
      <trkpt lat="43.14551" lon="2.00627">
        <ele>383.15</ele>
        <time>2019-09-02T08:38:53Z</time>
      </trkpt>
      <trkpt lat="43.14548" lon="2.00616">
        <ele>384.71</ele>
        <time>2019-09-02T08:39:00Z</time>
      </trkpt>
      <trkpt lat="43.14539" lon="2.00583">
        <ele>385.36</ele>
        <time>2019-09-02T08:39:21Z</time>
      </trkpt>
      <trkpt lat="43.14528" lon="2.00552">
        <ele>386.78</ele>
        <time>2019-09-02T08:39:42Z</time>
      </trkpt>
      <trkpt lat="43.14518" lon="2.00531">
        <ele>387.55</ele>
        <time>2019-09-02T08:39:58Z</time>
      </trkpt>
      <trkpt lat="43.14505" lon="2.00505">
        <ele>389.08</ele>
        <time>2019-09-02T08:40:18Z</time>
      </trkpt>
      <trkpt lat="43.14492" lon="2.00481">
        <ele>391.24</ele>
        <time>2019-09-02T08:40:40Z</time>
      </trkpt>
      <trkpt lat="43.1448" lon="2.0047">
        <ele>393.12</ele>
        <time>2019-09-02T08:40:55Z</time>
      </trkpt>
      <trkpt lat="43.14465" lon="2.00474">
        <ele>396.24</ele>
        <time>2019-09-02T08:41:13Z</time>
      </trkpt>
      <trkpt lat="43.14461" lon="2.00478">
        <ele>397.67</ele>
        <time>2019-09-02T08:41:32Z</time>
      </trkpt>
      <trkpt lat="43.14453" lon="2.00485">
        <ele>397.68</ele>
        <time>2019-09-02T08:42:01Z</time>
      </trkpt>
      <trkpt lat="43.14448" lon="2.00493">
        <ele>398.05</ele>
        <time>2019-09-02T08:42:07Z</time>
      </trkpt>
      <trkpt lat="43.14433" lon="2.00491">
        <ele>397.42</ele>
        <time>2019-09-02T08:42:19Z</time>
      </trkpt>
      <trkpt lat="43.14432" lon="2.00461">
        <ele>394.29</ele>
        <time>2019-09-02T08:42:37Z</time>
      </trkpt>
      <trkpt lat="43.14431" lon="2.00424">
        <ele>391.29</ele>
        <time>2019-09-02T08:42:58Z</time>
      </trkpt>
      <trkpt lat="43.14432" lon="2.00391">
        <ele>388.25</ele>
        <time>2019-09-02T08:43:16Z</time>
      </trkpt>
      <trkpt lat="43.14432" lon="2.00358">
        <ele>385.2</ele>
        <time>2019-09-02T08:43:35Z</time>
      </trkpt>
      <trkpt lat="43.14424" lon="2.00326">
        <ele>383.43</ele>
        <time>2019-09-02T08:43:56Z</time>
      </trkpt>
      <trkpt lat="43.1441" lon="2.00288">
        <ele>382.9</ele>
        <time>2019-09-02T08:44:17Z</time>
      </trkpt>
      <trkpt lat="43.14389" lon="2.00263">
        <ele>383.91</ele>
        <time>2019-09-02T08:44:38Z</time>
      </trkpt>
      <trkpt lat="43.14364" lon="2.00242">
        <ele>385.61</ele>
        <time>2019-09-02T08:45:01Z</time>
      </trkpt>
      <trkpt lat="43.14336" lon="2.00225">
        <ele>385.25</ele>
        <time>2019-09-02T08:45:25Z</time>
      </trkpt>
      <trkpt lat="43.14309" lon="2.00193">
        <ele>384.94</ele>
        <time>2019-09-02T08:45:54Z</time>
      </trkpt>
      <trkpt lat="43.14302" lon="2.00181">
        <ele>385.16</ele>
        <time>2019-09-02T08:46:06Z</time>
      </trkpt>
      <trkpt lat="43.14299" lon="2.00178">
        <ele>385.36</ele>
        <time>2019-09-02T08:46:09Z</time>
      </trkpt>
      <trkpt lat="43.14278" lon="2.00136">
        <ele>387.25</ele>
        <time>2019-09-02T08:46:39Z</time>
      </trkpt>
      <trkpt lat="43.14265" lon="2.00107">
        <ele>388.11</ele>
        <time>2019-09-02T08:46:59Z</time>
      </trkpt>
      <trkpt lat="43.14252" lon="2.00073">
        <ele>388.14</ele>
        <time>2019-09-02T08:47:21Z</time>
      </trkpt>
      <trkpt lat="43.14242" lon="2.00044">
        <ele>388.41</ele>
        <time>2019-09-02T08:47:41Z</time>
      </trkpt>
      <trkpt lat="43.14228" lon="2.00015">
        <ele>388.35</ele>
        <time>2019-09-02T08:48:00Z</time>
      </trkpt>
      <trkpt lat="43.14208" lon="1.99986">
        <ele>388.85</ele>
        <time>2019-09-02T08:48:22Z</time>
      </trkpt>
      <trkpt lat="43.14192" lon="1.99961">
        <ele>388.68</ele>
        <time>2019-09-02T08:48:42Z</time>
      </trkpt>
      <trkpt lat="43.14179" lon="1.99932">
        <ele>388.47</ele>
        <time>2019-09-02T08:49:04Z</time>
      </trkpt>
      <trkpt lat="43.14168" lon="1.999">
        <ele>389.14</ele>
        <time>2019-09-02T08:49:27Z</time>
      </trkpt>
      <trkpt lat="43.14162" lon="1.99873">
        <ele>390.45</ele>
        <time>2019-09-02T08:49:48Z</time>
      </trkpt>
      <trkpt lat="43.1416" lon="1.9988">
        <ele>391.19</ele>
        <time>2019-09-02T08:50:00Z</time>
      </trkpt>
      <trkpt lat="43.1416" lon="1.99882">
        <ele>391.24</ele>
        <time>2019-09-02T08:50:01Z</time>
      </trkpt>
      <trkpt lat="43.14159" lon="1.99884">
        <ele>391.26</ele>
        <time>2019-09-02T08:50:02Z</time>
      </trkpt>
      <trkpt lat="43.1415" lon="1.99912">
        <ele>391.84</ele>
        <time>2019-09-02T08:50:22Z</time>
      </trkpt>
      <trkpt lat="43.14139" lon="1.99935">
        <ele>392.15</ele>
        <time>2019-09-02T08:50:39Z</time>
      </trkpt>
      <trkpt lat="43.1413" lon="1.99963">
        <ele>392.49</ele>
        <time>2019-09-02T08:50:55Z</time>
      </trkpt>
      <trkpt lat="43.14121" lon="1.9999">
        <ele>394.55</ele>
        <time>2019-09-02T08:51:14Z</time>
      </trkpt>
      <trkpt lat="43.14107" lon="2.00028">
        <ele>395.88</ele>
        <time>2019-09-02T08:51:37Z</time>
      </trkpt>
      <trkpt lat="43.14093" lon="2.00061">
        <ele>397.32</ele>
        <time>2019-09-02T08:51:58Z</time>
      </trkpt>
      <trkpt lat="43.14072" lon="2.00095">
        <ele>396.33</ele>
        <time>2019-09-02T08:52:22Z</time>
      </trkpt>
      <trkpt lat="43.14048" lon="2.00128">
        <ele>393.72</ele>
        <time>2019-09-02T08:52:45Z</time>
      </trkpt>
      <trkpt lat="43.14023" lon="2.00148">
        <ele>392.71</ele>
        <time>2019-09-02T08:53:07Z</time>
      </trkpt>
      <trkpt lat="43.13987" lon="2.0015">
        <ele>391.45</ele>
        <time>2019-09-02T08:53:33Z</time>
      </trkpt>
      <trkpt lat="43.13952" lon="2.00154">
        <ele>391.48</ele>
        <time>2019-09-02T08:53:59Z</time>
      </trkpt>
      <trkpt lat="43.13918" lon="2.00171">
        <ele>391.25</ele>
        <time>2019-09-02T08:54:27Z</time>
      </trkpt>
      <trkpt lat="43.13881" lon="2.00185">
        <ele>393.07</ele>
        <time>2019-09-02T08:54:57Z</time>
      </trkpt>
      <trkpt lat="43.13844" lon="2.00198">
        <ele>394.86</ele>
        <time>2019-09-02T08:55:25Z</time>
      </trkpt>
      <trkpt lat="43.13807" lon="2.00202">
        <ele>397.03</ele>
        <time>2019-09-02T08:55:55Z</time>
      </trkpt>
      <trkpt lat="43.13769" lon="2.00201">
        <ele>399.62</ele>
        <time>2019-09-02T08:56:25Z</time>
      </trkpt>
      <trkpt lat="43.13747" lon="2.00183">
        <ele>398.85</ele>
        <time>2019-09-02T08:56:45Z</time>
      </trkpt>
      <trkpt lat="43.13728" lon="2.00159">
        <ele>398.35</ele>
        <time>2019-09-02T08:57:04Z</time>
      </trkpt>
      <trkpt lat="43.13701" lon="2.00147">
        <ele>398.26</ele>
        <time>2019-09-02T08:57:24Z</time>
      </trkpt>
      <trkpt lat="43.13681" lon="2.00139">
        <ele>397.46</ele>
        <time>2019-09-02T08:57:41Z</time>
      </trkpt>
      <trkpt lat="43.13659" lon="2.00129">
        <ele>397.72</ele>
        <time>2019-09-02T08:57:58Z</time>
      </trkpt>
      <trkpt lat="43.13624" lon="2.00121">
        <ele>397.78</ele>
        <time>2019-09-02T08:58:24Z</time>
      </trkpt>
      <trkpt lat="43.13603" lon="2.00119">
        <ele>398.42</ele>
        <time>2019-09-02T08:58:41Z</time>
      </trkpt>
      <trkpt lat="43.13576" lon="2.00111">
        <ele>400.24</ele>
        <time>2019-09-02T08:59:02Z</time>
      </trkpt>
      <trkpt lat="43.13543" lon="2.00103">
        <ele>402.35</ele>
        <time>2019-09-02T08:59:30Z</time>
      </trkpt>
      <trkpt lat="43.1351" lon="2.00096">
        <ele>404.84</ele>
        <time>2019-09-02T08:59:55Z</time>
      </trkpt>
      <trkpt lat="43.13473" lon="2.00086">
        <ele>404.18</ele>
        <time>2019-09-02T09:00:24Z</time>
      </trkpt>
      <trkpt lat="43.13447" lon="2.00078">
        <ele>406.29</ele>
        <time>2019-09-02T09:00:45Z</time>
      </trkpt>
      <trkpt lat="43.13412" lon="2.00057">
        <ele>406.25</ele>
        <time>2019-09-02T09:01:14Z</time>
      </trkpt>
      <trkpt lat="43.13378" lon="2.00038">
        <ele>405.23</ele>
        <time>2019-09-02T09:01:42Z</time>
      </trkpt>
      <trkpt lat="43.1334" lon="2.0004">
        <ele>405.14</ele>
        <time>2019-09-02T09:02:13Z</time>
      </trkpt>
      <trkpt lat="43.13318" lon="2.00059">
        <ele>406.36</ele>
        <time>2019-09-02T09:02:35Z</time>
      </trkpt>
      <trkpt lat="43.13294" lon="2.00083">
        <ele>407.62</ele>
        <time>2019-09-02T09:02:59Z</time>
      </trkpt>
      <trkpt lat="43.13269" lon="2.00108">
        <ele>409.21</ele>
        <time>2019-09-02T09:03:23Z</time>
      </trkpt>
      <trkpt lat="43.13247" lon="2.00128">
        <ele>409.58</ele>
        <time>2019-09-02T09:03:45Z</time>
      </trkpt>
      <trkpt lat="43.13245" lon="2.00131">
        <ele>410.17</ele>
        <time>2019-09-02T09:04:05Z</time>
      </trkpt>
      <trkpt lat="43.13244" lon="2.00132">
        <ele>410.21</ele>
        <time>2019-09-02T09:04:06Z</time>
      </trkpt>
      <trkpt lat="43.1322" lon="2.00139">
        <ele>410.76</ele>
        <time>2019-09-02T09:04:26Z</time>
      </trkpt>
      <trkpt lat="43.13198" lon="2.00145">
        <ele>410.38</ele>
        <time>2019-09-02T09:04:44Z</time>
      </trkpt>
      <trkpt lat="43.13176" lon="2.0015">
        <ele>410.82</ele>
        <time>2019-09-02T09:05:01Z</time>
      </trkpt>
      <trkpt lat="43.13163" lon="2.00154">
        <ele>410.42</ele>
        <time>2019-09-02T09:05:13Z</time>
      </trkpt>
      <trkpt lat="43.13162" lon="2.00154">
        <ele>410.31</ele>
        <time>2019-09-02T09:05:14Z</time>
      </trkpt>
      <trkpt lat="43.1314" lon="2.00159">
        <ele>411.88</ele>
        <time>2019-09-02T09:05:31Z</time>
      </trkpt>
      <trkpt lat="43.13112" lon="2.00162">
        <ele>414.54</ele>
        <time>2019-09-02T09:05:54Z</time>
      </trkpt>
      <trkpt lat="43.13097" lon="2.00166">
        <ele>416.58</ele>
        <time>2019-09-02T09:06:14Z</time>
      </trkpt>
      <trkpt lat="43.13096" lon="2.00166">
        <ele>415.82</ele>
        <time>2019-09-02T09:06:35Z</time>
      </trkpt>
      <trkpt lat="43.13091" lon="2.0017">
        <ele>414.41</ele>
        <time>2019-09-02T09:06:51Z</time>
      </trkpt>
      <trkpt lat="43.13097" lon="2.00167">
        <ele>415</ele>
        <time>2019-09-02T09:07:15Z</time>
      </trkpt>
      <trkpt lat="43.13097" lon="2.00167">
        <ele>415.58</ele>
        <time>2019-09-02T09:07:41Z</time>
      </trkpt>
      <trkpt lat="43.13097" lon="2.00168">
        <ele>414.75</ele>
        <time>2019-09-02T09:08:15Z</time>
      </trkpt>
      <trkpt lat="43.13096" lon="2.00168">
        <ele>414.59</ele>
        <time>2019-09-02T09:08:49Z</time>
      </trkpt>
      <trkpt lat="43.13097" lon="2.00169">
        <ele>415.21</ele>
        <time>2019-09-02T09:09:21Z</time>
      </trkpt>
      <trkpt lat="43.13098" lon="2.00167">
        <ele>415.29</ele>
        <time>2019-09-02T09:10:05Z</time>
      </trkpt>
      <trkpt lat="43.13098" lon="2.00166">
        <ele>419.33</ele>
        <time>2019-09-02T09:10:17Z</time>
      </trkpt>
      <trkpt lat="43.13098" lon="2.00166">
        <ele>417.29</ele>
        <time>2019-09-02T09:10:18Z</time>
      </trkpt>
      <trkpt lat="43.13098" lon="2.00165">
        <ele>415.46</ele>
        <time>2019-09-02T09:10:21Z</time>
      </trkpt>
      <trkpt lat="43.13098" lon="2.00165">
        <ele>415.2</ele>
        <time>2019-09-02T09:11:00Z</time>
      </trkpt>
      <trkpt lat="43.13098" lon="2.00166">
        <ele>415.2</ele>
        <time>2019-09-02T09:12:09Z</time>
      </trkpt>
      <trkpt lat="43.13097" lon="2.00167">
        <ele>415.2</ele>
        <time>2019-09-02T09:12:39Z</time>
      </trkpt>
      <trkpt lat="43.13098" lon="2.00169">
        <ele>415.2</ele>
        <time>2019-09-02T09:13:11Z</time>
      </trkpt>
      <trkpt lat="43.13097" lon="2.00168">
        <ele>415.2</ele>
        <time>2019-09-02T09:13:43Z</time>
      </trkpt>
      <trkpt lat="43.13096" lon="2.00166">
        <ele>415.2</ele>
        <time>2019-09-02T09:14:14Z</time>
      </trkpt>
      <trkpt lat="43.13096" lon="2.00167">
        <ele>415.2</ele>
        <time>2019-09-02T09:14:51Z</time>
      </trkpt>
      <trkpt lat="43.13095" lon="2.00165">
        <ele>415.2</ele>
        <time>2019-09-02T09:15:20Z</time>
      </trkpt>
      <trkpt lat="43.13096" lon="2.00166">
        <ele>415.2</ele>
        <time>2019-09-02T09:15:56Z</time>
      </trkpt>
      <trkpt lat="43.13096" lon="2.00166">
        <ele>415.2</ele>
        <time>2019-09-02T09:16:26Z</time>
      </trkpt>
      <trkpt lat="43.13096" lon="2.00167">
        <ele>415.2</ele>
        <time>2019-09-02T09:17:01Z</time>
      </trkpt>
      <trkpt lat="43.13096" lon="2.00167">
        <ele>415.2</ele>
        <time>2019-09-02T09:17:34Z</time>
      </trkpt>
      <trkpt lat="43.13096" lon="2.00168">
        <ele>415.2</ele>
        <time>2019-09-02T09:18:08Z</time>
      </trkpt>
      <trkpt lat="43.13094" lon="2.00168">
        <ele>415.2</ele>
        <time>2019-09-02T09:18:35Z</time>
      </trkpt>
      <trkpt lat="43.13096" lon="2.00168">
        <ele>415.2</ele>
        <time>2019-09-02T09:19:04Z</time>
      </trkpt>
      <trkpt lat="43.13095" lon="2.00167">
        <ele>415.2</ele>
        <time>2019-09-02T09:19:37Z</time>
      </trkpt>
      <trkpt lat="43.131" lon="2.00163">
        <ele>415.2</ele>
        <time>2019-09-02T09:20:05Z</time>
      </trkpt>
      <trkpt lat="43.13085" lon="2.0016">
        <ele>415.77</ele>
        <time>2019-09-02T09:20:20Z</time>
      </trkpt>
      <trkpt lat="43.13057" lon="2.00154">
        <ele>414.59</ele>
        <time>2019-09-02T09:20:41Z</time>
      </trkpt>
      <trkpt lat="43.13031" lon="2.00155">
        <ele>411.58</ele>
        <time>2019-09-02T09:21:01Z</time>
      </trkpt>
      <trkpt lat="43.13023" lon="2.00156">
        <ele>411.02</ele>
        <time>2019-09-02T09:21:07Z</time>
      </trkpt>
      <trkpt lat="43.12997" lon="2.00165">
        <ele>410.54</ele>
        <time>2019-09-02T09:21:28Z</time>
      </trkpt>
      <trkpt lat="43.12975" lon="2.00164">
        <ele>410.05</ele>
        <time>2019-09-02T09:21:47Z</time>
      </trkpt>
      <trkpt lat="43.12958" lon="2.0015">
        <ele>411.08</ele>
        <time>2019-09-02T09:22:04Z</time>
      </trkpt>
      <trkpt lat="43.12952" lon="2.0014">
        <ele>411.51</ele>
        <time>2019-09-02T09:22:12Z</time>
      </trkpt>
      <trkpt lat="43.12949" lon="2.00136">
        <ele>412.43</ele>
        <time>2019-09-02T09:22:16Z</time>
      </trkpt>
      <trkpt lat="43.12948" lon="2.00134">
        <ele>412.56</ele>
        <time>2019-09-02T09:22:17Z</time>
      </trkpt>
      <trkpt lat="43.12935" lon="2.00118">
        <ele>414.12</ele>
        <time>2019-09-02T09:22:34Z</time>
      </trkpt>
      <trkpt lat="43.12915" lon="2.00109">
        <ele>415.7</ele>
        <time>2019-09-02T09:22:51Z</time>
      </trkpt>
      <trkpt lat="43.1291" lon="2.00107">
        <ele>411.73</ele>
        <time>2019-09-02T09:22:55Z</time>
      </trkpt>
      <trkpt lat="43.12903" lon="2.00107">
        <ele>417.66</ele>
        <time>2019-09-02T09:23:00Z</time>
      </trkpt>
      <trkpt lat="43.129" lon="2.00108">
        <ele>421.07</ele>
        <time>2019-09-02T09:23:03Z</time>
      </trkpt>
      <trkpt lat="43.12895" lon="2.00111">
        <ele>418.93</ele>
        <time>2019-09-02T09:23:08Z</time>
      </trkpt>
      <trkpt lat="43.12895" lon="2.00112">
        <ele>418.62</ele>
        <time>2019-09-02T09:23:09Z</time>
      </trkpt>
      <trkpt lat="43.12898" lon="2.0015">
        <ele>418.05</ele>
        <time>2019-09-02T09:23:31Z</time>
      </trkpt>
      <trkpt lat="43.12892" lon="2.00155">
        <ele>418.43</ele>
        <time>2019-09-02T09:23:39Z</time>
      </trkpt>
      <trkpt lat="43.1289" lon="2.00155">
        <ele>418.49</ele>
        <time>2019-09-02T09:23:40Z</time>
      </trkpt>
      <trkpt lat="43.12889" lon="2.00156">
        <ele>418.52</ele>
        <time>2019-09-02T09:23:41Z</time>
      </trkpt>
      <trkpt lat="43.12863" lon="2.00154">
        <ele>416.54</ele>
        <time>2019-09-02T09:24:02Z</time>
      </trkpt>
      <trkpt lat="43.12851" lon="2.00145">
        <ele>414.87</ele>
        <time>2019-09-02T09:24:14Z</time>
      </trkpt>
      <trkpt lat="43.1285" lon="2.00143">
        <ele>414.5</ele>
        <time>2019-09-02T09:24:15Z</time>
      </trkpt>
      <trkpt lat="43.12849" lon="2.00142">
        <ele>414.25</ele>
        <time>2019-09-02T09:24:16Z</time>
      </trkpt>
      <trkpt lat="43.12833" lon="2.00111">
        <ele>410.96</ele>
        <time>2019-09-02T09:24:39Z</time>
      </trkpt>
      <trkpt lat="43.12825" lon="2.00099">
        <ele>407.94</ele>
        <time>2019-09-02T09:24:54Z</time>
      </trkpt>
      <trkpt lat="43.1282" lon="2.00121">
        <ele>404.84</ele>
        <time>2019-09-02T09:25:11Z</time>
      </trkpt>
      <trkpt lat="43.12803" lon="2.00152">
        <ele>401.76</ele>
        <time>2019-09-02T09:25:33Z</time>
      </trkpt>
      <trkpt lat="43.12795" lon="2.00158">
        <ele>400.71</ele>
        <time>2019-09-02T09:25:40Z</time>
      </trkpt>
      <trkpt lat="43.12793" lon="2.00159">
        <ele>400.32</ele>
        <time>2019-09-02T09:25:42Z</time>
      </trkpt>
      <trkpt lat="43.12769" lon="2.00167">
        <ele>397.64</ele>
        <time>2019-09-02T09:25:59Z</time>
      </trkpt>
      <trkpt lat="43.12743" lon="2.00169">
        <ele>399.39</ele>
        <time>2019-09-02T09:26:19Z</time>
      </trkpt>
      <trkpt lat="43.12709" lon="2.00167">
        <ele>399.77</ele>
        <time>2019-09-02T09:26:46Z</time>
      </trkpt>
      <trkpt lat="43.12698" lon="2.0016">
        <ele>399.37</ele>
        <time>2019-09-02T09:26:57Z</time>
      </trkpt>
      <trkpt lat="43.12679" lon="2.00152">
        <ele>401.68</ele>
        <time>2019-09-02T09:27:15Z</time>
      </trkpt>
      <trkpt lat="43.12669" lon="2.00145">
        <ele>403.3</ele>
        <time>2019-09-02T09:27:31Z</time>
      </trkpt>
      <trkpt lat="43.12663" lon="2.00141">
        <ele>403.4</ele>
        <time>2019-09-02T09:27:37Z</time>
      </trkpt>
      <trkpt lat="43.12634" lon="2.00122">
        <ele>404.67</ele>
        <time>2019-09-02T09:28:04Z</time>
      </trkpt>
      <trkpt lat="43.12609" lon="2.0011">
        <ele>405.92</ele>
        <time>2019-09-02T09:28:27Z</time>
      </trkpt>
      <trkpt lat="43.12585" lon="2.00106">
        <ele>407.38</ele>
        <time>2019-09-02T09:28:48Z</time>
      </trkpt>
      <trkpt lat="43.12566" lon="2.001">
        <ele>408.74</ele>
        <time>2019-09-02T09:29:06Z</time>
      </trkpt>
      <trkpt lat="43.12539" lon="2.00092">
        <ele>409.28</ele>
        <time>2019-09-02T09:29:28Z</time>
      </trkpt>
      <trkpt lat="43.12514" lon="2.00099">
        <ele>407.81</ele>
        <time>2019-09-02T09:29:49Z</time>
      </trkpt>
      <trkpt lat="43.12489" lon="2.00115">
        <ele>406.69</ele>
        <time>2019-09-02T09:30:11Z</time>
      </trkpt>
      <trkpt lat="43.12462" lon="2.0012">
        <ele>404.23</ele>
        <time>2019-09-02T09:30:33Z</time>
      </trkpt>
      <trkpt lat="43.12435" lon="2.0013">
        <ele>403.29</ele>
        <time>2019-09-02T09:30:54Z</time>
      </trkpt>
      <trkpt lat="43.12426" lon="2.00131">
        <ele>402.51</ele>
        <time>2019-09-02T09:31:05Z</time>
      </trkpt>
      <trkpt lat="43.12423" lon="2.00131">
        <ele>402.43</ele>
        <time>2019-09-02T09:31:08Z</time>
      </trkpt>
      <trkpt lat="43.12421" lon="2.00131">
        <ele>402.43</ele>
        <time>2019-09-02T09:31:09Z</time>
      </trkpt>
      <trkpt lat="43.1242" lon="2.00132">
        <ele>402.43</ele>
        <time>2019-09-02T09:31:10Z</time>
      </trkpt>
      <trkpt lat="43.12419" lon="2.00132">
        <ele>402.42</ele>
        <time>2019-09-02T09:31:11Z</time>
      </trkpt>
      <trkpt lat="43.12418" lon="2.00133">
        <ele>402.41</ele>
        <time>2019-09-02T09:31:12Z</time>
      </trkpt>
      <trkpt lat="43.12418" lon="2.00134">
        <ele>402.39</ele>
        <time>2019-09-02T09:31:13Z</time>
      </trkpt>
      <trkpt lat="43.12397" lon="2.0015">
        <ele>399.34</ele>
        <time>2019-09-02T09:31:31Z</time>
      </trkpt>
      <trkpt lat="43.12374" lon="2.00152">
        <ele>397.31</ele>
        <time>2019-09-02T09:31:50Z</time>
      </trkpt>
      <trkpt lat="43.12356" lon="2.00131">
        <ele>394.19</ele>
        <time>2019-09-02T09:32:08Z</time>
      </trkpt>
      <trkpt lat="43.12355" lon="2.00129">
        <ele>393.4</ele>
        <time>2019-09-02T09:32:10Z</time>
      </trkpt>
      <trkpt lat="43.1234" lon="2.001">
        <ele>392.66</ele>
        <time>2019-09-02T09:32:30Z</time>
      </trkpt>
      <trkpt lat="43.12321" lon="2.0007">
        <ele>389.63</ele>
        <time>2019-09-02T09:32:53Z</time>
      </trkpt>
      <trkpt lat="43.12295" lon="2.00046">
        <ele>389.18</ele>
        <time>2019-09-02T09:33:18Z</time>
      </trkpt>
      <trkpt lat="43.1227" lon="2.00053">
        <ele>389.63</ele>
        <time>2019-09-02T09:33:39Z</time>
      </trkpt>
      <trkpt lat="43.12245" lon="2.00065">
        <ele>390.37</ele>
        <time>2019-09-02T09:34:00Z</time>
      </trkpt>
      <trkpt lat="43.12219" lon="2.00049">
        <ele>389.85</ele>
        <time>2019-09-02T09:34:22Z</time>
      </trkpt>
      <trkpt lat="43.12198" lon="2.00018">
        <ele>386.86</ele>
        <time>2019-09-02T09:34:45Z</time>
      </trkpt>
      <trkpt lat="43.12178" lon="1.99991">
        <ele>387.17</ele>
        <time>2019-09-02T09:35:09Z</time>
      </trkpt>
      <trkpt lat="43.12157" lon="1.99972">
        <ele>387.53</ele>
        <time>2019-09-02T09:35:29Z</time>
      </trkpt>
      <trkpt lat="43.12134" lon="1.99979">
        <ele>386.08</ele>
        <time>2019-09-02T09:35:50Z</time>
      </trkpt>
      <trkpt lat="43.12116" lon="1.99995">
        <ele>384.56</ele>
        <time>2019-09-02T09:36:07Z</time>
      </trkpt>
      <trkpt lat="43.1208" lon="2.00008">
        <ele>384.44</ele>
        <time>2019-09-02T09:36:35Z</time>
      </trkpt>
      <trkpt lat="43.12052" lon="2.00021">
        <ele>383.23</ele>
        <time>2019-09-02T09:36:57Z</time>
      </trkpt>
      <trkpt lat="43.12026" lon="2.0003">
        <ele>382.88</ele>
        <time>2019-09-02T09:37:18Z</time>
      </trkpt>
      <trkpt lat="43.12" lon="2.00023">
        <ele>382.35</ele>
        <time>2019-09-02T09:37:39Z</time>
      </trkpt>
      <trkpt lat="43.11973" lon="2.00016">
        <ele>379.24</ele>
        <time>2019-09-02T09:38:00Z</time>
      </trkpt>
      <trkpt lat="43.11941" lon="2.00004">
        <ele>377.35</ele>
        <time>2019-09-02T09:38:26Z</time>
      </trkpt>
      <trkpt lat="43.11915" lon="1.99996">
        <ele>376.65</ele>
        <time>2019-09-02T09:38:48Z</time>
      </trkpt>
      <trkpt lat="43.11887" lon="1.99986">
        <ele>377.78</ele>
        <time>2019-09-02T09:39:12Z</time>
      </trkpt>
      <trkpt lat="43.11871" lon="1.9998">
        <ele>377.98</ele>
        <time>2019-09-02T09:39:27Z</time>
      </trkpt>
      <trkpt lat="43.11844" lon="1.9997">
        <ele>379.58</ele>
        <time>2019-09-02T09:39:50Z</time>
      </trkpt>
      <trkpt lat="43.11813" lon="1.9996">
        <ele>381.36</ele>
        <time>2019-09-02T09:40:18Z</time>
      </trkpt>
      <trkpt lat="43.11795" lon="1.99953">
        <ele>383.03</ele>
        <time>2019-09-02T09:40:37Z</time>
      </trkpt>
      <trkpt lat="43.11772" lon="1.99947">
        <ele>386.04</ele>
        <time>2019-09-02T09:41:00Z</time>
      </trkpt>
      <trkpt lat="43.1175" lon="1.99938">
        <ele>388.43</ele>
        <time>2019-09-02T09:41:23Z</time>
      </trkpt>
      <trkpt lat="43.11741" lon="1.99936">
        <ele>389.05</ele>
        <time>2019-09-02T09:41:40Z</time>
      </trkpt>
      <trkpt lat="43.11726" lon="1.99938">
        <ele>390.62</ele>
        <time>2019-09-02T09:41:56Z</time>
      </trkpt>
      <trkpt lat="43.1171" lon="1.99937">
        <ele>393.64</ele>
        <time>2019-09-02T09:42:17Z</time>
      </trkpt>
      <trkpt lat="43.11696" lon="1.99928">
        <ele>396.77</ele>
        <time>2019-09-02T09:42:34Z</time>
      </trkpt>
      <trkpt lat="43.1168" lon="1.99909">
        <ele>399.84</ele>
        <time>2019-09-02T09:42:54Z</time>
      </trkpt>
      <trkpt lat="43.11667" lon="1.99895">
        <ele>402.68</ele>
        <time>2019-09-02T09:43:16Z</time>
      </trkpt>
      <trkpt lat="43.11659" lon="1.99881">
        <ele>405.73</ele>
        <time>2019-09-02T09:43:31Z</time>
      </trkpt>
      <trkpt lat="43.11643" lon="1.9987">
        <ele>408.51</ele>
        <time>2019-09-02T09:43:50Z</time>
      </trkpt>
      <trkpt lat="43.1163" lon="1.99863">
        <ele>408.45</ele>
        <time>2019-09-02T09:44:05Z</time>
      </trkpt>
      <trkpt lat="43.11615" lon="1.99857">
        <ele>410.78</ele>
        <time>2019-09-02T09:44:21Z</time>
      </trkpt>
      <trkpt lat="43.11601" lon="1.99854">
        <ele>413.94</ele>
        <time>2019-09-02T09:44:38Z</time>
      </trkpt>
      <trkpt lat="43.11584" lon="1.99851">
        <ele>417.02</ele>
        <time>2019-09-02T09:44:57Z</time>
      </trkpt>
      <trkpt lat="43.11566" lon="1.99851">
        <ele>419</ele>
        <time>2019-09-02T09:45:16Z</time>
      </trkpt>
      <trkpt lat="43.11552" lon="1.99851">
        <ele>422.05</ele>
        <time>2019-09-02T09:45:33Z</time>
      </trkpt>
      <trkpt lat="43.11535" lon="1.99855">
        <ele>425.05</ele>
        <time>2019-09-02T09:45:53Z</time>
      </trkpt>
      <trkpt lat="43.1152" lon="1.99862">
        <ele>428.13</ele>
        <time>2019-09-02T09:46:13Z</time>
      </trkpt>
      <trkpt lat="43.11503" lon="1.99874">
        <ele>431.27</ele>
        <time>2019-09-02T09:46:34Z</time>
      </trkpt>
      <trkpt lat="43.1149" lon="1.99886">
        <ele>433.87</ele>
        <time>2019-09-02T09:46:53Z</time>
      </trkpt>
      <trkpt lat="43.11485" lon="1.99892">
        <ele>434.92</ele>
        <time>2019-09-02T09:46:59Z</time>
      </trkpt>
      <trkpt lat="43.11481" lon="1.99897">
        <ele>435.11</ele>
        <time>2019-09-02T09:47:03Z</time>
      </trkpt>
      <trkpt lat="43.1148" lon="1.99898">
        <ele>435.12</ele>
        <time>2019-09-02T09:47:04Z</time>
      </trkpt>
      <trkpt lat="43.11479" lon="1.99899">
        <ele>435.12</ele>
        <time>2019-09-02T09:47:05Z</time>
      </trkpt>
      <trkpt lat="43.11459" lon="1.99911">
        <ele>436.76</ele>
        <time>2019-09-02T09:47:22Z</time>
      </trkpt>
      <trkpt lat="43.11434" lon="1.99908">
        <ele>438.12</ele>
        <time>2019-09-02T09:47:42Z</time>
      </trkpt>
      <trkpt lat="43.11397" lon="1.999">
        <ele>437.36</ele>
        <time>2019-09-02T09:48:11Z</time>
      </trkpt>
      <trkpt lat="43.11367" lon="1.99884">
        <ele>437.47</ele>
        <time>2019-09-02T09:48:36Z</time>
      </trkpt>
      <trkpt lat="43.11347" lon="1.99869">
        <ele>437.42</ele>
        <time>2019-09-02T09:48:57Z</time>
      </trkpt>
      <trkpt lat="43.11345" lon="1.99868">
        <ele>436.91</ele>
        <time>2019-09-02T09:49:16Z</time>
      </trkpt>
      <trkpt lat="43.11344" lon="1.99866">
        <ele>436.94</ele>
        <time>2019-09-02T09:49:18Z</time>
      </trkpt>
      <trkpt lat="43.11343" lon="1.99865">
        <ele>436.98</ele>
        <time>2019-09-02T09:49:19Z</time>
      </trkpt>
      <trkpt lat="43.11322" lon="1.99852">
        <ele>438.02</ele>
        <time>2019-09-02T09:49:38Z</time>
      </trkpt>
      <trkpt lat="43.11296" lon="1.99836">
        <ele>438.6</ele>
        <time>2019-09-02T09:50:00Z</time>
      </trkpt>
      <trkpt lat="43.11279" lon="1.9983">
        <ele>437.75</ele>
        <time>2019-09-02T09:50:17Z</time>
      </trkpt>
      <trkpt lat="43.11257" lon="1.99825">
        <ele>440.14</ele>
        <time>2019-09-02T09:50:37Z</time>
      </trkpt>
      <trkpt lat="43.11232" lon="1.99816">
        <ele>441.21</ele>
        <time>2019-09-02T09:50:57Z</time>
      </trkpt>
      <trkpt lat="43.11208" lon="1.99812">
        <ele>440.93</ele>
        <time>2019-09-02T09:51:17Z</time>
      </trkpt>
      <trkpt lat="43.11179" lon="1.9981">
        <ele>442.41</ele>
        <time>2019-09-02T09:51:42Z</time>
      </trkpt>
      <trkpt lat="43.11158" lon="1.99812">
        <ele>443.85</ele>
        <time>2019-09-02T09:52:01Z</time>
      </trkpt>
      <trkpt lat="43.11137" lon="1.99818">
        <ele>445.03</ele>
        <time>2019-09-02T09:52:19Z</time>
      </trkpt>
      <trkpt lat="43.11122" lon="1.99826">
        <ele>447</ele>
        <time>2019-09-02T09:52:35Z</time>
      </trkpt>
      <trkpt lat="43.11107" lon="1.99835">
        <ele>447.94</ele>
        <time>2019-09-02T09:52:51Z</time>
      </trkpt>
      <trkpt lat="43.11084" lon="1.99845">
        <ele>450.91</ele>
        <time>2019-09-02T09:53:12Z</time>
      </trkpt>
      <trkpt lat="43.11078" lon="1.99847">
        <ele>451.76</ele>
        <time>2019-09-02T09:53:18Z</time>
      </trkpt>
      <trkpt lat="43.11057" lon="1.9985">
        <ele>452.54</ele>
        <time>2019-09-02T09:53:37Z</time>
      </trkpt>
      <trkpt lat="43.11041" lon="1.99855">
        <ele>453.41</ele>
        <time>2019-09-02T09:53:53Z</time>
      </trkpt>
      <trkpt lat="43.11022" lon="1.99861">
        <ele>454.2</ele>
        <time>2019-09-02T09:54:10Z</time>
      </trkpt>
      <trkpt lat="43.11014" lon="1.99862">
        <ele>454.47</ele>
        <time>2019-09-02T09:54:16Z</time>
      </trkpt>
      <trkpt lat="43.10993" lon="1.9986">
        <ele>455.52</ele>
        <time>2019-09-02T09:54:36Z</time>
      </trkpt>
      <trkpt lat="43.10975" lon="1.99855">
        <ele>455.61</ele>
        <time>2019-09-02T09:54:50Z</time>
      </trkpt>
      <trkpt lat="43.10963" lon="1.99851">
        <ele>455.33</ele>
        <time>2019-09-02T09:54:59Z</time>
      </trkpt>
      <trkpt lat="43.1094" lon="1.9984">
        <ele>452.72</ele>
        <time>2019-09-02T09:55:16Z</time>
      </trkpt>
      <trkpt lat="43.10924" lon="1.99818">
        <ele>452.08</ele>
        <time>2019-09-02T09:55:35Z</time>
      </trkpt>
      <trkpt lat="43.10918" lon="1.99795">
        <ele>450.42</ele>
        <time>2019-09-02T09:55:50Z</time>
      </trkpt>
      <trkpt lat="43.10919" lon="1.9975">
        <ele>450.11</ele>
        <time>2019-09-02T09:56:15Z</time>
      </trkpt>
      <trkpt lat="43.10913" lon="1.99719">
        <ele>448.12</ele>
        <time>2019-09-02T09:56:34Z</time>
      </trkpt>
      <trkpt lat="43.10896" lon="1.99702">
        <ele>446.56</ele>
        <time>2019-09-02T09:56:50Z</time>
      </trkpt>
      <trkpt lat="43.10886" lon="1.99681">
        <ele>446.38</ele>
        <time>2019-09-02T09:57:04Z</time>
      </trkpt>
      <trkpt lat="43.10878" lon="1.99648">
        <ele>445.96</ele>
        <time>2019-09-02T09:57:25Z</time>
      </trkpt>
      <trkpt lat="43.10877" lon="1.99605">
        <ele>445.9</ele>
        <time>2019-09-02T09:57:51Z</time>
      </trkpt>
      <trkpt lat="43.10869" lon="1.99566">
        <ele>444.66</ele>
        <time>2019-09-02T09:58:14Z</time>
      </trkpt>
      <trkpt lat="43.10864" lon="1.99535">
        <ele>442.97</ele>
        <time>2019-09-02T09:58:34Z</time>
      </trkpt>
      <trkpt lat="43.10862" lon="1.99535">
        <ele>443.15</ele>
        <time>2019-09-02T09:58:56Z</time>
      </trkpt>
      <trkpt lat="43.10865" lon="1.99534">
        <ele>442.42</ele>
        <time>2019-09-02T09:59:20Z</time>
      </trkpt>
      <trkpt lat="43.10865" lon="1.99531">
        <ele>442.27</ele>
        <time>2019-09-02T09:59:22Z</time>
      </trkpt>
      <trkpt lat="43.10865" lon="1.99529">
        <ele>442.1</ele>
        <time>2019-09-02T09:59:23Z</time>
      </trkpt>
      <trkpt lat="43.10868" lon="1.99492">
        <ele>441.52</ele>
        <time>2019-09-02T09:59:44Z</time>
      </trkpt>
      <trkpt lat="43.1087" lon="1.99453">
        <ele>441.68</ele>
        <time>2019-09-02T10:00:07Z</time>
      </trkpt>
      <trkpt lat="43.10865" lon="1.99414">
        <ele>443.34</ele>
        <time>2019-09-02T10:00:31Z</time>
      </trkpt>
      <trkpt lat="43.10863" lon="1.99378">
        <ele>445.42</ele>
        <time>2019-09-02T10:00:54Z</time>
      </trkpt>
      <trkpt lat="43.10873" lon="1.99341">
        <ele>446.01</ele>
        <time>2019-09-02T10:01:17Z</time>
      </trkpt>
      <trkpt lat="43.10882" lon="1.99306">
        <ele>443.66</ele>
        <time>2019-09-02T10:01:39Z</time>
      </trkpt>
      <trkpt lat="43.1089" lon="1.9927">
        <ele>444.15</ele>
        <time>2019-09-02T10:02:00Z</time>
      </trkpt>
      <trkpt lat="43.10887" lon="1.99236">
        <ele>443.14</ele>
        <time>2019-09-02T10:02:20Z</time>
      </trkpt>
      <trkpt lat="43.10884" lon="1.99207">
        <ele>442.67</ele>
        <time>2019-09-02T10:02:37Z</time>
      </trkpt>
      <trkpt lat="43.1089" lon="1.99165">
        <ele>443.83</ele>
        <time>2019-09-02T10:03:03Z</time>
      </trkpt>
      <trkpt lat="43.10895" lon="1.99117">
        <ele>442.78</ele>
        <time>2019-09-02T10:03:30Z</time>
      </trkpt>
      <trkpt lat="43.10898" lon="1.99082">
        <ele>440.91</ele>
        <time>2019-09-02T10:03:50Z</time>
      </trkpt>
      <trkpt lat="43.10912" lon="1.99043">
        <ele>439.97</ele>
        <time>2019-09-02T10:04:15Z</time>
      </trkpt>
      <trkpt lat="43.10935" lon="1.9903">
        <ele>438.13</ele>
        <time>2019-09-02T10:04:35Z</time>
      </trkpt>
      <trkpt lat="43.10954" lon="1.99022">
        <ele>436.92</ele>
        <time>2019-09-02T10:04:52Z</time>
      </trkpt>
      <trkpt lat="43.10965" lon="1.98993">
        <ele>435.84</ele>
        <time>2019-09-02T10:05:11Z</time>
      </trkpt>
      <trkpt lat="43.10972" lon="1.98956">
        <ele>433.87</ele>
        <time>2019-09-02T10:05:30Z</time>
      </trkpt>
      <trkpt lat="43.1098" lon="1.9891">
        <ele>433.47</ele>
        <time>2019-09-02T10:05:56Z</time>
      </trkpt>
      <trkpt lat="43.1098" lon="1.9887">
        <ele>433.86</ele>
        <time>2019-09-02T10:06:19Z</time>
      </trkpt>
      <trkpt lat="43.10983" lon="1.98832">
        <ele>434.78</ele>
        <time>2019-09-02T10:06:41Z</time>
      </trkpt>
      <trkpt lat="43.10982" lon="1.98797">
        <ele>434.39</ele>
        <time>2019-09-02T10:07:02Z</time>
      </trkpt>
      <trkpt lat="43.10985" lon="1.98761">
        <ele>434.25</ele>
        <time>2019-09-02T10:07:23Z</time>
      </trkpt>
      <trkpt lat="43.10988" lon="1.98731">
        <ele>435.34</ele>
        <time>2019-09-02T10:07:41Z</time>
      </trkpt>
      <trkpt lat="43.10988" lon="1.9873">
        <ele>435.37</ele>
        <time>2019-09-02T10:07:42Z</time>
      </trkpt>
      <trkpt lat="43.10991" lon="1.98716">
        <ele>435.59</ele>
        <time>2019-09-02T10:07:52Z</time>
      </trkpt>
      <trkpt lat="43.10992" lon="1.98714">
        <ele>435.55</ele>
        <time>2019-09-02T10:07:53Z</time>
      </trkpt>
      <trkpt lat="43.10992" lon="1.98712">
        <ele>435.52</ele>
        <time>2019-09-02T10:07:54Z</time>
      </trkpt>
      <trkpt lat="43.10993" lon="1.98708">
        <ele>435.51</ele>
        <time>2019-09-02T10:07:56Z</time>
      </trkpt>
      <trkpt lat="43.10993" lon="1.98707">
        <ele>435.48</ele>
        <time>2019-09-02T10:07:57Z</time>
      </trkpt>
      <trkpt lat="43.10995" lon="1.98676">
        <ele>434.43</ele>
        <time>2019-09-02T10:08:15Z</time>
      </trkpt>
      <trkpt lat="43.10996" lon="1.98671">
        <ele>434.33</ele>
        <time>2019-09-02T10:08:18Z</time>
      </trkpt>
      <trkpt lat="43.10998" lon="1.98667">
        <ele>434.12</ele>
        <time>2019-09-02T10:08:21Z</time>
      </trkpt>
      <trkpt lat="43.11003" lon="1.98635">
        <ele>433.83</ele>
        <time>2019-09-02T10:08:40Z</time>
      </trkpt>
      <trkpt lat="43.11005" lon="1.9863">
        <ele>433.59</ele>
        <time>2019-09-02T10:08:43Z</time>
      </trkpt>
      <trkpt lat="43.1101" lon="1.9861">
        <ele>433.41</ele>
        <time>2019-09-02T10:08:57Z</time>
      </trkpt>
      <trkpt lat="43.11012" lon="1.98603">
        <ele>433.23</ele>
        <time>2019-09-02T10:09:01Z</time>
      </trkpt>
      <trkpt lat="43.1102" lon="1.98579">
        <ele>432.82</ele>
        <time>2019-09-02T10:09:17Z</time>
      </trkpt>
      <trkpt lat="43.11022" lon="1.9857">
        <ele>432.7</ele>
        <time>2019-09-02T10:09:22Z</time>
      </trkpt>
      <trkpt lat="43.11022" lon="1.98568">
        <ele>432.63</ele>
        <time>2019-09-02T10:09:23Z</time>
      </trkpt>
      <trkpt lat="43.11023" lon="1.98566">
        <ele>432.55</ele>
        <time>2019-09-02T10:09:24Z</time>
      </trkpt>
      <trkpt lat="43.11023" lon="1.98564">
        <ele>432.44</ele>
        <time>2019-09-02T10:09:25Z</time>
      </trkpt>
      <trkpt lat="43.11023" lon="1.98562">
        <ele>432.32</ele>
        <time>2019-09-02T10:09:26Z</time>
      </trkpt>
      <trkpt lat="43.11024" lon="1.9856">
        <ele>432.25</ele>
        <time>2019-09-02T10:09:27Z</time>
      </trkpt>
      <trkpt lat="43.11028" lon="1.98523">
        <ele>432.07</ele>
        <time>2019-09-02T10:09:47Z</time>
      </trkpt>
      <trkpt lat="43.11031" lon="1.98476">
        <ele>432.42</ele>
        <time>2019-09-02T10:10:13Z</time>
      </trkpt>
      <trkpt lat="43.11029" lon="1.98441">
        <ele>430.84</ele>
        <time>2019-09-02T10:10:33Z</time>
      </trkpt>
      <trkpt lat="43.11026" lon="1.98416">
        <ele>430.28</ele>
        <time>2019-09-02T10:10:48Z</time>
      </trkpt>
      <trkpt lat="43.11023" lon="1.98378">
        <ele>431.9</ele>
        <time>2019-09-02T10:11:10Z</time>
      </trkpt>
      <trkpt lat="43.11024" lon="1.98362">
        <ele>431.18</ele>
        <time>2019-09-02T10:11:20Z</time>
      </trkpt>
      <trkpt lat="43.1103" lon="1.98345">
        <ele>431.51</ele>
        <time>2019-09-02T10:11:33Z</time>
      </trkpt>
      <trkpt lat="43.11034" lon="1.98316">
        <ele>430.63</ele>
        <time>2019-09-02T10:11:51Z</time>
      </trkpt>
      <trkpt lat="43.11031" lon="1.98294">
        <ele>431.17</ele>
        <time>2019-09-02T10:12:06Z</time>
      </trkpt>
      <trkpt lat="43.11027" lon="1.98286">
        <ele>431.47</ele>
        <time>2019-09-02T10:12:11Z</time>
      </trkpt>
      <trkpt lat="43.11025" lon="1.98282">
        <ele>431.78</ele>
        <time>2019-09-02T10:12:13Z</time>
      </trkpt>
      <trkpt lat="43.11007" lon="1.98247">
        <ele>434.79</ele>
        <time>2019-09-02T10:12:36Z</time>
      </trkpt>
      <trkpt lat="43.11004" lon="1.98225">
        <ele>436.67</ele>
        <time>2019-09-02T10:12:52Z</time>
      </trkpt>
      <trkpt lat="43.11003" lon="1.98214">
        <ele>436.26</ele>
        <time>2019-09-02T10:13:00Z</time>
      </trkpt>
      <trkpt lat="43.11002" lon="1.98213">
        <ele>436.53</ele>
        <time>2019-09-02T10:13:01Z</time>
      </trkpt>
      <trkpt lat="43.10985" lon="1.98191">
        <ele>438.21</ele>
        <time>2019-09-02T10:13:20Z</time>
      </trkpt>
      <trkpt lat="43.1096" lon="1.98164">
        <ele>436.62</ele>
        <time>2019-09-02T10:13:45Z</time>
      </trkpt>
      <trkpt lat="43.10931" lon="1.98131">
        <ele>435.62</ele>
        <time>2019-09-02T10:14:15Z</time>
      </trkpt>
      <trkpt lat="43.10906" lon="1.98103">
        <ele>434.8</ele>
        <time>2019-09-02T10:14:41Z</time>
      </trkpt>
      <trkpt lat="43.10885" lon="1.98081">
        <ele>432.83</ele>
        <time>2019-09-02T10:15:02Z</time>
      </trkpt>
      <trkpt lat="43.10864" lon="1.98058">
        <ele>431.8</ele>
        <time>2019-09-02T10:15:25Z</time>
      </trkpt>
      <trkpt lat="43.10854" lon="1.98039">
        <ele>431.67</ele>
        <time>2019-09-02T10:15:39Z</time>
      </trkpt>
      <trkpt lat="43.10852" lon="1.98035">
        <ele>431.37</ele>
        <time>2019-09-02T10:15:42Z</time>
      </trkpt>
      <trkpt lat="43.10845" lon="1.98011">
        <ele>430.39</ele>
        <time>2019-09-02T10:15:58Z</time>
      </trkpt>
      <trkpt lat="43.1084" lon="1.97976">
        <ele>430.29</ele>
        <time>2019-09-02T10:16:18Z</time>
      </trkpt>
      <trkpt lat="43.10834" lon="1.97949">
        <ele>429.99</ele>
        <time>2019-09-02T10:16:35Z</time>
      </trkpt>
      <trkpt lat="43.10828" lon="1.97937">
        <ele>429.14</ele>
        <time>2019-09-02T10:16:43Z</time>
      </trkpt>
      <trkpt lat="43.1081" lon="1.97915">
        <ele>427.92</ele>
        <time>2019-09-02T10:17:02Z</time>
      </trkpt>
      <trkpt lat="43.10794" lon="1.97896">
        <ele>429.05</ele>
        <time>2019-09-02T10:17:20Z</time>
      </trkpt>
      <trkpt lat="43.10788" lon="1.9789">
        <ele>429.06</ele>
        <time>2019-09-02T10:17:26Z</time>
      </trkpt>
      <trkpt lat="43.10772" lon="1.97867">
        <ele>428.41</ele>
        <time>2019-09-02T10:17:42Z</time>
      </trkpt>
      <trkpt lat="43.10771" lon="1.97863">
        <ele>427.58</ele>
        <time>2019-09-02T10:17:45Z</time>
      </trkpt>
      <trkpt lat="43.10771" lon="1.97861">
        <ele>427.3</ele>
        <time>2019-09-02T10:17:46Z</time>
      </trkpt>
      <trkpt lat="43.10765" lon="1.97825">
        <ele>424.21</ele>
        <time>2019-09-02T10:18:05Z</time>
      </trkpt>
      <trkpt lat="43.10761" lon="1.97788">
        <ele>422.46</ele>
        <time>2019-09-02T10:18:25Z</time>
      </trkpt>
      <trkpt lat="43.10753" lon="1.97746">
        <ele>420.89</ele>
        <time>2019-09-02T10:18:49Z</time>
      </trkpt>
      <trkpt lat="43.10743" lon="1.97704">
        <ele>419.85</ele>
        <time>2019-09-02T10:19:14Z</time>
      </trkpt>
      <trkpt lat="43.10738" lon="1.97658">
        <ele>419.02</ele>
        <time>2019-09-02T10:19:40Z</time>
      </trkpt>
      <trkpt lat="43.10739" lon="1.97633">
        <ele>417</ele>
        <time>2019-09-02T10:19:58Z</time>
      </trkpt>
      <trkpt lat="43.10739" lon="1.97628">
        <ele>416.8</ele>
        <time>2019-09-02T10:20:01Z</time>
      </trkpt>
      <trkpt lat="43.10742" lon="1.9762">
        <ele>416.55</ele>
        <time>2019-09-02T10:20:19Z</time>
      </trkpt>
      <trkpt lat="43.10742" lon="1.9762">
        <ele>415.99</ele>
        <time>2019-09-02T10:20:44Z</time>
      </trkpt>
      <trkpt lat="43.10741" lon="1.97619">
        <ele>415.5</ele>
        <time>2019-09-02T10:21:28Z</time>
      </trkpt>
      <trkpt lat="43.10741" lon="1.97619">
        <ele>415.5</ele>
        <time>2019-09-02T10:22:12Z</time>
      </trkpt>
      <trkpt lat="43.1074" lon="1.97618">
        <ele>415.5</ele>
        <time>2019-09-02T10:22:52Z</time>
      </trkpt>
      <trkpt lat="43.1074" lon="1.97617">
        <ele>415.5</ele>
        <time>2019-09-02T10:23:28Z</time>
      </trkpt>
      <trkpt lat="43.10741" lon="1.97617">
        <ele>415.5</ele>
        <time>2019-09-02T10:24:07Z</time>
      </trkpt>
      <trkpt lat="43.10741" lon="1.97618">
        <ele>415.5</ele>
        <time>2019-09-02T10:24:44Z</time>
      </trkpt>
      <trkpt lat="43.10739" lon="1.97618">
        <ele>415.5</ele>
        <time>2019-09-02T10:25:04Z</time>
      </trkpt>
      <trkpt lat="43.10739" lon="1.97618">
        <ele>415.5</ele>
        <time>2019-09-02T10:25:32Z</time>
      </trkpt>
      <trkpt lat="43.10738" lon="1.97617">
        <ele>415.5</ele>
        <time>2019-09-02T10:25:57Z</time>
      </trkpt>
      <trkpt lat="43.10736" lon="1.97614">
        <ele>415.5</ele>
        <time>2019-09-02T10:26:14Z</time>
      </trkpt>
      <trkpt lat="43.10736" lon="1.97609">
        <ele>415.5</ele>
        <time>2019-09-02T10:26:17Z</time>
      </trkpt>
      <trkpt lat="43.10736" lon="1.97608">
        <ele>415.76</ele>
        <time>2019-09-02T10:26:18Z</time>
      </trkpt>
      <trkpt lat="43.10737" lon="1.97607">
        <ele>416.36</ele>
        <time>2019-09-02T10:26:19Z</time>
      </trkpt>
      <trkpt lat="43.10738" lon="1.97605">
        <ele>416.86</ele>
        <time>2019-09-02T10:26:20Z</time>
      </trkpt>
      <trkpt lat="43.10738" lon="1.97604">
        <ele>417.11</ele>
        <time>2019-09-02T10:26:21Z</time>
      </trkpt>
      <trkpt lat="43.10739" lon="1.97602">
        <ele>417.24</ele>
        <time>2019-09-02T10:26:22Z</time>
      </trkpt>
      <trkpt lat="43.10745" lon="1.97571">
        <ele>416.9</ele>
        <time>2019-09-02T10:26:41Z</time>
      </trkpt>
      <trkpt lat="43.10746" lon="1.97542">
        <ele>416.57</ele>
        <time>2019-09-02T10:26:59Z</time>
      </trkpt>
      <trkpt lat="43.10747" lon="1.97515">
        <ele>413.8</ele>
        <time>2019-09-02T10:27:16Z</time>
      </trkpt>
      <trkpt lat="43.10747" lon="1.97505">
        <ele>413.37</ele>
        <time>2019-09-02T10:27:22Z</time>
      </trkpt>
      <trkpt lat="43.10747" lon="1.97502">
        <ele>413.22</ele>
        <time>2019-09-02T10:27:24Z</time>
      </trkpt>
      <trkpt lat="43.10749" lon="1.97495">
        <ele>413.05</ele>
        <time>2019-09-02T10:27:28Z</time>
      </trkpt>
      <trkpt lat="43.1075" lon="1.97492">
        <ele>412.85</ele>
        <time>2019-09-02T10:27:30Z</time>
      </trkpt>
      <trkpt lat="43.1075" lon="1.97461">
        <ele>411.4</ele>
        <time>2019-09-02T10:27:46Z</time>
      </trkpt>
      <trkpt lat="43.10749" lon="1.97434">
        <ele>410.46</ele>
        <time>2019-09-02T10:28:00Z</time>
      </trkpt>
      <trkpt lat="43.1075" lon="1.97404">
        <ele>410.51</ele>
        <time>2019-09-02T10:28:19Z</time>
      </trkpt>
      <trkpt lat="43.10744" lon="1.97369">
        <ele>412.16</ele>
        <time>2019-09-02T10:28:41Z</time>
      </trkpt>
      <trkpt lat="43.10734" lon="1.97358">
        <ele>411.95</ele>
        <time>2019-09-02T10:28:53Z</time>
      </trkpt>
      <trkpt lat="43.10712" lon="1.97358">
        <ele>412.61</ele>
        <time>2019-09-02T10:29:11Z</time>
      </trkpt>
      <trkpt lat="43.10701" lon="1.97339">
        <ele>414.42</ele>
        <time>2019-09-02T10:29:28Z</time>
      </trkpt>
      <trkpt lat="43.10695" lon="1.97309">
        <ele>415.23</ele>
        <time>2019-09-02T10:29:48Z</time>
      </trkpt>
      <trkpt lat="43.10686" lon="1.97277">
        <ele>415.31</ele>
        <time>2019-09-02T10:30:08Z</time>
      </trkpt>
      <trkpt lat="43.10665" lon="1.97239">
        <ele>416.02</ele>
        <time>2019-09-02T10:30:34Z</time>
      </trkpt>
      <trkpt lat="43.1065" lon="1.97211">
        <ele>416.47</ele>
        <time>2019-09-02T10:30:56Z</time>
      </trkpt>
      <trkpt lat="43.10647" lon="1.97204">
        <ele>416.91</ele>
        <time>2019-09-02T10:31:02Z</time>
      </trkpt>
      <trkpt lat="43.10643" lon="1.9718">
        <ele>417.04</ele>
        <time>2019-09-02T10:31:19Z</time>
      </trkpt>
      <trkpt lat="43.10641" lon="1.97157">
        <ele>415.63</ele>
        <time>2019-09-02T10:31:33Z</time>
      </trkpt>
      <trkpt lat="43.10641" lon="1.97146">
        <ele>415.29</ele>
        <time>2019-09-02T10:31:39Z</time>
      </trkpt>
      <trkpt lat="43.1064" lon="1.97133">
        <ele>414.86</ele>
        <time>2019-09-02T10:31:47Z</time>
      </trkpt>
      <trkpt lat="43.1064" lon="1.9712">
        <ele>414.65</ele>
        <time>2019-09-02T10:31:54Z</time>
      </trkpt>
      <trkpt lat="43.10644" lon="1.97093">
        <ele>416.01</ele>
        <time>2019-09-02T10:32:11Z</time>
      </trkpt>
      <trkpt lat="43.10649" lon="1.97059">
        <ele>417.59</ele>
        <time>2019-09-02T10:32:31Z</time>
      </trkpt>
      <trkpt lat="43.10646" lon="1.97031">
        <ele>420.07</ele>
        <time>2019-09-02T10:32:49Z</time>
      </trkpt>
      <trkpt lat="43.10642" lon="1.97">
        <ele>423.15</ele>
        <time>2019-09-02T10:33:09Z</time>
      </trkpt>
      <trkpt lat="43.10641" lon="1.96959">
        <ele>422.53</ele>
        <time>2019-09-02T10:33:33Z</time>
      </trkpt>
      <trkpt lat="43.10647" lon="1.96915">
        <ele>421.25</ele>
        <time>2019-09-02T10:33:58Z</time>
      </trkpt>
      <trkpt lat="43.10655" lon="1.96879">
        <ele>420.8</ele>
        <time>2019-09-02T10:34:20Z</time>
      </trkpt>
      <trkpt lat="43.10668" lon="1.96844">
        <ele>419.42</ele>
        <time>2019-09-02T10:34:42Z</time>
      </trkpt>
      <trkpt lat="43.10675" lon="1.96807">
        <ele>418.68</ele>
        <time>2019-09-02T10:35:03Z</time>
      </trkpt>
      <trkpt lat="43.10674" lon="1.96771">
        <ele>417.83</ele>
        <time>2019-09-02T10:35:23Z</time>
      </trkpt>
      <trkpt lat="43.10668" lon="1.96718">
        <ele>417.04</ele>
        <time>2019-09-02T10:35:53Z</time>
      </trkpt>
      <trkpt lat="43.10662" lon="1.9668">
        <ele>417.06</ele>
        <time>2019-09-02T10:36:15Z</time>
      </trkpt>
      <trkpt lat="43.10659" lon="1.9664">
        <ele>417.07</ele>
        <time>2019-09-02T10:36:38Z</time>
      </trkpt>
      <trkpt lat="43.10654" lon="1.96601">
        <ele>418</ele>
        <time>2019-09-02T10:37:02Z</time>
      </trkpt>
      <trkpt lat="43.1065" lon="1.96559">
        <ele>419.95</ele>
        <time>2019-09-02T10:37:27Z</time>
      </trkpt>
      <trkpt lat="43.10641" lon="1.96517">
        <ele>418.9</ele>
        <time>2019-09-02T10:37:51Z</time>
      </trkpt>
      <trkpt lat="43.10638" lon="1.96474">
        <ele>417.09</ele>
        <time>2019-09-02T10:38:16Z</time>
      </trkpt>
      <trkpt lat="43.1064" lon="1.96426">
        <ele>414.85</ele>
        <time>2019-09-02T10:38:42Z</time>
      </trkpt>
      <trkpt lat="43.10638" lon="1.96379">
        <ele>413.23</ele>
        <time>2019-09-02T10:39:09Z</time>
      </trkpt>
      <trkpt lat="43.10633" lon="1.9634">
        <ele>412.47</ele>
        <time>2019-09-02T10:39:32Z</time>
      </trkpt>
      <trkpt lat="43.10625" lon="1.96312">
        <ele>409.44</ele>
        <time>2019-09-02T10:39:49Z</time>
      </trkpt>
      <trkpt lat="43.10611" lon="1.96268">
        <ele>407.87</ele>
        <time>2019-09-02T10:40:16Z</time>
      </trkpt>
      <trkpt lat="43.10595" lon="1.96247">
        <ele>406.41</ele>
        <time>2019-09-02T10:40:34Z</time>
      </trkpt>
      <trkpt lat="43.10572" lon="1.96218">
        <ele>407.63</ele>
        <time>2019-09-02T10:40:57Z</time>
      </trkpt>
      <trkpt lat="43.1055" lon="1.96191">
        <ele>408.94</ele>
        <time>2019-09-02T10:41:21Z</time>
      </trkpt>
      <trkpt lat="43.10517" lon="1.96178">
        <ele>408.98</ele>
        <time>2019-09-02T10:41:48Z</time>
      </trkpt>
      <trkpt lat="43.10496" lon="1.96167">
        <ele>410.59</ele>
        <time>2019-09-02T10:42:08Z</time>
      </trkpt>
      <trkpt lat="43.10479" lon="1.96158">
        <ele>413.6</ele>
        <time>2019-09-02T10:42:24Z</time>
      </trkpt>
      <trkpt lat="43.10458" lon="1.96147">
        <ele>414.4</ele>
        <time>2019-09-02T10:42:42Z</time>
      </trkpt>
      <trkpt lat="43.10438" lon="1.96141">
        <ele>411.37</ele>
        <time>2019-09-02T10:42:57Z</time>
      </trkpt>
      <trkpt lat="43.10421" lon="1.96143">
        <ele>408.94</ele>
        <time>2019-09-02T10:43:11Z</time>
      </trkpt>
      <trkpt lat="43.1042" lon="1.96142">
        <ele>408.8</ele>
        <time>2019-09-02T10:43:12Z</time>
      </trkpt>
      <trkpt lat="43.10419" lon="1.96141">
        <ele>408.66</ele>
        <time>2019-09-02T10:43:13Z</time>
      </trkpt>
      <trkpt lat="43.10419" lon="1.96139">
        <ele>408.52</ele>
        <time>2019-09-02T10:43:14Z</time>
      </trkpt>
      <trkpt lat="43.1042" lon="1.96138">
        <ele>408.36</ele>
        <time>2019-09-02T10:43:15Z</time>
      </trkpt>
      <trkpt lat="43.10421" lon="1.96136">
        <ele>408.18</ele>
        <time>2019-09-02T10:43:16Z</time>
      </trkpt>
      <trkpt lat="43.10422" lon="1.96135">
        <ele>408.04</ele>
        <time>2019-09-02T10:43:17Z</time>
      </trkpt>
      <trkpt lat="43.10423" lon="1.96134">
        <ele>407.93</ele>
        <time>2019-09-02T10:43:18Z</time>
      </trkpt>
      <trkpt lat="43.10424" lon="1.96133">
        <ele>407.85</ele>
        <time>2019-09-02T10:43:19Z</time>
      </trkpt>
      <trkpt lat="43.10425" lon="1.96132">
        <ele>407.76</ele>
        <time>2019-09-02T10:43:20Z</time>
      </trkpt>
      <trkpt lat="43.10426" lon="1.96131">
        <ele>407.68</ele>
        <time>2019-09-02T10:43:21Z</time>
      </trkpt>
      <trkpt lat="43.10427" lon="1.96131">
        <ele>407.58</ele>
        <time>2019-09-02T10:43:22Z</time>
      </trkpt>
      <trkpt lat="43.10428" lon="1.9613">
        <ele>407.51</ele>
        <time>2019-09-02T10:43:23Z</time>
      </trkpt>
      <trkpt lat="43.10429" lon="1.96129">
        <ele>407.48</ele>
        <time>2019-09-02T10:43:24Z</time>
      </trkpt>
      <trkpt lat="43.10452" lon="1.96112">
        <ele>408.3</ele>
        <time>2019-09-02T10:43:44Z</time>
      </trkpt>
      <trkpt lat="43.10471" lon="1.96095">
        <ele>408.87</ele>
        <time>2019-09-02T10:44:02Z</time>
      </trkpt>
      <trkpt lat="43.10487" lon="1.96079">
        <ele>407.61</ele>
        <time>2019-09-02T10:44:18Z</time>
      </trkpt>
      <trkpt lat="43.10488" lon="1.96078">
        <ele>407.61</ele>
        <time>2019-09-02T10:44:19Z</time>
      </trkpt>
      <trkpt lat="43.10509" lon="1.96053">
        <ele>409.13</ele>
        <time>2019-09-02T10:44:41Z</time>
      </trkpt>
      <trkpt lat="43.10528" lon="1.9603">
        <ele>411.09</ele>
        <time>2019-09-02T10:45:02Z</time>
      </trkpt>
      <trkpt lat="43.1055" lon="1.9601">
        <ele>410.27</ele>
        <time>2019-09-02T10:45:22Z</time>
      </trkpt>
      <trkpt lat="43.10575" lon="1.95985">
        <ele>409.41</ele>
        <time>2019-09-02T10:45:45Z</time>
      </trkpt>
      <trkpt lat="43.10591" lon="1.95966">
        <ele>408.13</ele>
        <time>2019-09-02T10:46:04Z</time>
      </trkpt>
      <trkpt lat="43.1061" lon="1.95948">
        <ele>407.34</ele>
        <time>2019-09-02T10:46:21Z</time>
      </trkpt>
      <trkpt lat="43.1062" lon="1.95938">
        <ele>406.48</ele>
        <time>2019-09-02T10:46:31Z</time>
      </trkpt>
      <trkpt lat="43.10624" lon="1.95935">
        <ele>406.44</ele>
        <time>2019-09-02T10:46:34Z</time>
      </trkpt>
      <trkpt lat="43.10626" lon="1.95934">
        <ele>406.38</ele>
        <time>2019-09-02T10:46:35Z</time>
      </trkpt>
      <trkpt lat="43.10627" lon="1.95933">
        <ele>406.31</ele>
        <time>2019-09-02T10:46:36Z</time>
      </trkpt>
      <trkpt lat="43.10639" lon="1.95919">
        <ele>404.85</ele>
        <time>2019-09-02T10:46:53Z</time>
      </trkpt>
      <trkpt lat="43.1066" lon="1.95887">
        <ele>403.62</ele>
        <time>2019-09-02T10:47:14Z</time>
      </trkpt>
      <trkpt lat="43.10661" lon="1.95884">
        <ele>403.44</ele>
        <time>2019-09-02T10:47:15Z</time>
      </trkpt>
      <trkpt lat="43.10661" lon="1.95882">
        <ele>403.25</ele>
        <time>2019-09-02T10:47:16Z</time>
      </trkpt>
      <trkpt lat="43.10662" lon="1.9588">
        <ele>403</ele>
        <time>2019-09-02T10:47:17Z</time>
      </trkpt>
      <trkpt lat="43.10662" lon="1.95878">
        <ele>402.66</ele>
        <time>2019-09-02T10:47:18Z</time>
      </trkpt>
      <trkpt lat="43.10661" lon="1.95876">
        <ele>402.3</ele>
        <time>2019-09-02T10:47:19Z</time>
      </trkpt>
      <trkpt lat="43.10662" lon="1.95874">
        <ele>402.06</ele>
        <time>2019-09-02T10:47:20Z</time>
      </trkpt>
      <trkpt lat="43.10662" lon="1.95872">
        <ele>401.95</ele>
        <time>2019-09-02T10:47:21Z</time>
      </trkpt>
      <trkpt lat="43.10662" lon="1.9587">
        <ele>401.9</ele>
        <time>2019-09-02T10:47:22Z</time>
      </trkpt>
      <trkpt lat="43.10662" lon="1.95868">
        <ele>401.93</ele>
        <time>2019-09-02T10:47:23Z</time>
      </trkpt>
      <trkpt lat="43.10662" lon="1.95866">
        <ele>401.95</ele>
        <time>2019-09-02T10:47:24Z</time>
      </trkpt>
      <trkpt lat="43.10663" lon="1.95846">
        <ele>403.17</ele>
        <time>2019-09-02T10:47:35Z</time>
      </trkpt>
      <trkpt lat="43.10662" lon="1.95845">
        <ele>403.04</ele>
        <time>2019-09-02T10:47:36Z</time>
      </trkpt>
      <trkpt lat="43.10661" lon="1.95843">
        <ele>402.81</ele>
        <time>2019-09-02T10:47:37Z</time>
      </trkpt>
      <trkpt lat="43.10661" lon="1.95841">
        <ele>402.53</ele>
        <time>2019-09-02T10:47:38Z</time>
      </trkpt>
      <trkpt lat="43.1066" lon="1.9584">
        <ele>402.25</ele>
        <time>2019-09-02T10:47:39Z</time>
      </trkpt>
      <trkpt lat="43.10659" lon="1.95835">
        <ele>401.43</ele>
        <time>2019-09-02T10:47:42Z</time>
      </trkpt>
      <trkpt lat="43.10664" lon="1.95802">
        <ele>398.56</ele>
        <time>2019-09-02T10:48:01Z</time>
      </trkpt>
      <trkpt lat="43.10665" lon="1.95776">
        <ele>395.93</ele>
        <time>2019-09-02T10:48:18Z</time>
      </trkpt>
      <trkpt lat="43.1067" lon="1.95746">
        <ele>393.18</ele>
        <time>2019-09-02T10:48:35Z</time>
      </trkpt>
      <trkpt lat="43.10671" lon="1.95716">
        <ele>391.1</ele>
        <time>2019-09-02T10:48:51Z</time>
      </trkpt>
      <trkpt lat="43.10671" lon="1.95692">
        <ele>388.66</ele>
        <time>2019-09-02T10:49:05Z</time>
      </trkpt>
      <trkpt lat="43.10676" lon="1.9566">
        <ele>386.26</ele>
        <time>2019-09-02T10:49:23Z</time>
      </trkpt>
      <trkpt lat="43.10678" lon="1.9564">
        <ele>384.31</ele>
        <time>2019-09-02T10:49:34Z</time>
      </trkpt>
      <trkpt lat="43.10678" lon="1.95638">
        <ele>384.03</ele>
        <time>2019-09-02T10:49:35Z</time>
      </trkpt>
      <trkpt lat="43.10679" lon="1.95636">
        <ele>383.73</ele>
        <time>2019-09-02T10:49:36Z</time>
      </trkpt>
      <trkpt lat="43.10679" lon="1.95634">
        <ele>383.47</ele>
        <time>2019-09-02T10:49:37Z</time>
      </trkpt>
      <trkpt lat="43.10681" lon="1.95632">
        <ele>383.29</ele>
        <time>2019-09-02T10:49:38Z</time>
      </trkpt>
      <trkpt lat="43.10681" lon="1.9563">
        <ele>383.16</ele>
        <time>2019-09-02T10:49:39Z</time>
      </trkpt>
      <trkpt lat="43.10682" lon="1.95628">
        <ele>383.04</ele>
        <time>2019-09-02T10:49:40Z</time>
      </trkpt>
      <trkpt lat="43.10694" lon="1.95592">
        <ele>380.26</ele>
        <time>2019-09-02T10:50:01Z</time>
      </trkpt>
      <trkpt lat="43.10707" lon="1.95576">
        <ele>379.05</ele>
        <time>2019-09-02T10:50:15Z</time>
      </trkpt>
      <trkpt lat="43.10726" lon="1.95552">
        <ele>376.95</ele>
        <time>2019-09-02T10:50:34Z</time>
      </trkpt>
      <trkpt lat="43.10744" lon="1.95524">
        <ele>374.15</ele>
        <time>2019-09-02T10:50:56Z</time>
      </trkpt>
      <trkpt lat="43.10748" lon="1.95516">
        <ele>372.93</ele>
        <time>2019-09-02T10:51:02Z</time>
      </trkpt>
      <trkpt lat="43.10749" lon="1.95515">
        <ele>372.75</ele>
        <time>2019-09-02T10:51:03Z</time>
      </trkpt>
      <trkpt lat="43.10749" lon="1.95513">
        <ele>372.58</ele>
        <time>2019-09-02T10:51:04Z</time>
      </trkpt>
      <trkpt lat="43.1075" lon="1.95511">
        <ele>372.42</ele>
        <time>2019-09-02T10:51:05Z</time>
      </trkpt>
      <trkpt lat="43.1075" lon="1.9551">
        <ele>372.25</ele>
        <time>2019-09-02T10:51:06Z</time>
      </trkpt>
      <trkpt lat="43.10751" lon="1.95508">
        <ele>372.09</ele>
        <time>2019-09-02T10:51:07Z</time>
      </trkpt>
      <trkpt lat="43.10765" lon="1.95482">
        <ele>371.3</ele>
        <time>2019-09-02T10:51:24Z</time>
      </trkpt>
      <trkpt lat="43.1078" lon="1.95451">
        <ele>370.39</ele>
        <time>2019-09-02T10:51:44Z</time>
      </trkpt>
      <trkpt lat="43.10792" lon="1.95438">
        <ele>369.63</ele>
        <time>2019-09-02T10:51:58Z</time>
      </trkpt>
      <trkpt lat="43.10804" lon="1.95429">
        <ele>368.94</ele>
        <time>2019-09-02T10:52:12Z</time>
      </trkpt>
      <trkpt lat="43.10817" lon="1.95423">
        <ele>368.57</ele>
        <time>2019-09-02T10:52:26Z</time>
      </trkpt>
      <trkpt lat="43.10843" lon="1.95412">
        <ele>368.42</ele>
        <time>2019-09-02T10:52:46Z</time>
      </trkpt>
      <trkpt lat="43.10871" lon="1.95392">
        <ele>367.49</ele>
        <time>2019-09-02T10:53:09Z</time>
      </trkpt>
      <trkpt lat="43.109" lon="1.95371">
        <ele>367.31</ele>
        <time>2019-09-02T10:53:32Z</time>
      </trkpt>
      <trkpt lat="43.10925" lon="1.95357">
        <ele>366.1</ele>
        <time>2019-09-02T10:53:53Z</time>
      </trkpt>
      <trkpt lat="43.10946" lon="1.95345">
        <ele>364.46</ele>
        <time>2019-09-02T10:54:10Z</time>
      </trkpt>
      <trkpt lat="43.1096" lon="1.95335">
        <ele>363.71</ele>
        <time>2019-09-02T10:54:21Z</time>
      </trkpt>
      <trkpt lat="43.10962" lon="1.95334">
        <ele>363.58</ele>
        <time>2019-09-02T10:54:22Z</time>
      </trkpt>
      <trkpt lat="43.10981" lon="1.95316">
        <ele>362.89</ele>
        <time>2019-09-02T10:54:37Z</time>
      </trkpt>
      <trkpt lat="43.10984" lon="1.95313">
        <ele>362.67</ele>
        <time>2019-09-02T10:54:39Z</time>
      </trkpt>
      <trkpt lat="43.10999" lon="1.95295">
        <ele>362.07</ele>
        <time>2019-09-02T10:54:54Z</time>
      </trkpt>
      <trkpt lat="43.11014" lon="1.95266">
        <ele>361.62</ele>
        <time>2019-09-02T10:55:11Z</time>
      </trkpt>
      <trkpt lat="43.11018" lon="1.95258">
        <ele>361.61</ele>
        <time>2019-09-02T10:55:17Z</time>
      </trkpt>
      <trkpt lat="43.11019" lon="1.95256">
        <ele>361.53</ele>
        <time>2019-09-02T10:55:18Z</time>
      </trkpt>
      <trkpt lat="43.11021" lon="1.9525">
        <ele>361.37</ele>
        <time>2019-09-02T10:55:22Z</time>
      </trkpt>
      <trkpt lat="43.11021" lon="1.95248">
        <ele>361.07</ele>
        <time>2019-09-02T10:55:23Z</time>
      </trkpt>
      <trkpt lat="43.11022" lon="1.95247">
        <ele>360.84</ele>
        <time>2019-09-02T10:55:24Z</time>
      </trkpt>
      <trkpt lat="43.11022" lon="1.95245">
        <ele>360.63</ele>
        <time>2019-09-02T10:55:25Z</time>
      </trkpt>
      <trkpt lat="43.11023" lon="1.95244">
        <ele>360.51</ele>
        <time>2019-09-02T10:55:26Z</time>
      </trkpt>
      <trkpt lat="43.11024" lon="1.95243">
        <ele>360.45</ele>
        <time>2019-09-02T10:55:27Z</time>
      </trkpt>
      <trkpt lat="43.11031" lon="1.95224">
        <ele>359.91</ele>
        <time>2019-09-02T10:55:41Z</time>
      </trkpt>
      <trkpt lat="43.11034" lon="1.95218">
        <ele>359.95</ele>
        <time>2019-09-02T10:55:45Z</time>
      </trkpt>
      <trkpt lat="43.11036" lon="1.95212">
        <ele>359.77</ele>
        <time>2019-09-02T10:55:48Z</time>
      </trkpt>
      <trkpt lat="43.11037" lon="1.9521">
        <ele>359.63</ele>
        <time>2019-09-02T10:55:49Z</time>
      </trkpt>
      <trkpt lat="43.11038" lon="1.95209">
        <ele>359.49</ele>
        <time>2019-09-02T10:55:50Z</time>
      </trkpt>
      <trkpt lat="43.11039" lon="1.95207">
        <ele>359.36</ele>
        <time>2019-09-02T10:55:51Z</time>
      </trkpt>
      <trkpt lat="43.1104" lon="1.95206">
        <ele>359.29</ele>
        <time>2019-09-02T10:55:52Z</time>
      </trkpt>
      <trkpt lat="43.11049" lon="1.95184">
        <ele>358.45</ele>
        <time>2019-09-02T10:56:07Z</time>
      </trkpt>
      <trkpt lat="43.11053" lon="1.95161">
        <ele>356.64</ele>
        <time>2019-09-02T10:56:22Z</time>
      </trkpt>
      <trkpt lat="43.11063" lon="1.95117">
        <ele>354.64</ele>
        <time>2019-09-02T10:56:48Z</time>
      </trkpt>
      <trkpt lat="43.11069" lon="1.95087">
        <ele>352.58</ele>
        <time>2019-09-02T10:57:04Z</time>
      </trkpt>
      <trkpt lat="43.1107" lon="1.95081">
        <ele>352.15</ele>
        <time>2019-09-02T10:57:07Z</time>
      </trkpt>
      <trkpt lat="43.11071" lon="1.95079">
        <ele>352.05</ele>
        <time>2019-09-02T10:57:08Z</time>
      </trkpt>
      <trkpt lat="43.11072" lon="1.95052">
        <ele>351.05</ele>
        <time>2019-09-02T10:57:23Z</time>
      </trkpt>
      <trkpt lat="43.11077" lon="1.95021">
        <ele>349.8</ele>
        <time>2019-09-02T10:57:40Z</time>
      </trkpt>
      <trkpt lat="43.11088" lon="1.94982">
        <ele>350.7</ele>
        <time>2019-09-02T10:58:04Z</time>
      </trkpt>
      <trkpt lat="43.11095" lon="1.94967">
        <ele>351.61</ele>
        <time>2019-09-02T10:58:16Z</time>
      </trkpt>
      <trkpt lat="43.11099" lon="1.94957">
        <ele>351.73</ele>
        <time>2019-09-02T10:58:23Z</time>
      </trkpt>
      <trkpt lat="43.111" lon="1.94955">
        <ele>351.74</ele>
        <time>2019-09-02T10:58:24Z</time>
      </trkpt>
      <trkpt lat="43.11101" lon="1.94954">
        <ele>351.75</ele>
        <time>2019-09-02T10:58:25Z</time>
      </trkpt>
      <trkpt lat="43.11102" lon="1.94952">
        <ele>351.76</ele>
        <time>2019-09-02T10:58:26Z</time>
      </trkpt>
      <trkpt lat="43.11103" lon="1.9495">
        <ele>351.82</ele>
        <time>2019-09-02T10:58:27Z</time>
      </trkpt>
      <trkpt lat="43.11118" lon="1.94921">
        <ele>351.32</ele>
        <time>2019-09-02T10:58:45Z</time>
      </trkpt>
      <trkpt lat="43.11134" lon="1.94895">
        <ele>350.87</ele>
        <time>2019-09-02T10:59:03Z</time>
      </trkpt>
      <trkpt lat="43.11143" lon="1.94874">
        <ele>350.67</ele>
        <time>2019-09-02T10:59:19Z</time>
      </trkpt>
      <trkpt lat="43.11154" lon="1.94847">
        <ele>350.12</ele>
        <time>2019-09-02T10:59:37Z</time>
      </trkpt>
      <trkpt lat="43.11165" lon="1.94829">
        <ele>350.15</ele>
        <time>2019-09-02T10:59:53Z</time>
      </trkpt>
      <trkpt lat="43.11167" lon="1.94823">
        <ele>349.87</ele>
        <time>2019-09-02T10:59:56Z</time>
      </trkpt>
      <trkpt lat="43.11168" lon="1.94821">
        <ele>349.55</ele>
        <time>2019-09-02T10:59:57Z</time>
      </trkpt>
      <trkpt lat="43.11168" lon="1.94819">
        <ele>349.29</ele>
        <time>2019-09-02T10:59:58Z</time>
      </trkpt>
      <trkpt lat="43.11176" lon="1.94796">
        <ele>347.65</ele>
        <time>2019-09-02T11:00:13Z</time>
      </trkpt>
      <trkpt lat="43.11178" lon="1.94783">
        <ele>347.56</ele>
        <time>2019-09-02T11:00:22Z</time>
      </trkpt>
      <trkpt lat="43.11181" lon="1.94767">
        <ele>346.92</ele>
        <time>2019-09-02T11:00:30Z</time>
      </trkpt>
      <trkpt lat="43.11186" lon="1.94736">
        <ele>346.27</ele>
        <time>2019-09-02T11:00:47Z</time>
      </trkpt>
      <trkpt lat="43.11188" lon="1.94728">
        <ele>345.77</ele>
        <time>2019-09-02T11:00:52Z</time>
      </trkpt>
      <trkpt lat="43.1119" lon="1.94713">
        <ele>345.01</ele>
        <time>2019-09-02T11:01:00Z</time>
      </trkpt>
      <trkpt lat="43.11195" lon="1.94685">
        <ele>344.29</ele>
        <time>2019-09-02T11:01:15Z</time>
      </trkpt>
      <trkpt lat="43.11197" lon="1.94664">
        <ele>343.23</ele>
        <time>2019-09-02T11:01:29Z</time>
      </trkpt>
      <trkpt lat="43.11201" lon="1.9463">
        <ele>342.75</ele>
        <time>2019-09-02T11:01:49Z</time>
      </trkpt>
      <trkpt lat="43.11201" lon="1.94594">
        <ele>342.44</ele>
        <time>2019-09-02T11:02:09Z</time>
      </trkpt>
      <trkpt lat="43.11199" lon="1.94574">
        <ele>342.01</ele>
        <time>2019-09-02T11:02:20Z</time>
      </trkpt>
      <trkpt lat="43.11195" lon="1.94554">
        <ele>341.11</ele>
        <time>2019-09-02T11:02:32Z</time>
      </trkpt>
      <trkpt lat="43.11188" lon="1.94525">
        <ele>341.39</ele>
        <time>2019-09-02T11:02:51Z</time>
      </trkpt>
      <trkpt lat="43.11185" lon="1.94516">
        <ele>341.54</ele>
        <time>2019-09-02T11:02:56Z</time>
      </trkpt>
      <trkpt lat="43.11174" lon="1.94479">
        <ele>342.8</ele>
        <time>2019-09-02T11:03:16Z</time>
      </trkpt>
      <trkpt lat="43.11172" lon="1.94461">
        <ele>342.86</ele>
        <time>2019-09-02T11:03:28Z</time>
      </trkpt>
      <trkpt lat="43.11167" lon="1.94441">
        <ele>342.16</ele>
        <time>2019-09-02T11:03:40Z</time>
      </trkpt>
      <trkpt lat="43.11165" lon="1.94433">
        <ele>342.09</ele>
        <time>2019-09-02T11:03:44Z</time>
      </trkpt>
      <trkpt lat="43.11165" lon="1.94431">
        <ele>342.09</ele>
        <time>2019-09-02T11:03:45Z</time>
      </trkpt>
      <trkpt lat="43.11165" lon="1.94429">
        <ele>342.08</ele>
        <time>2019-09-02T11:03:46Z</time>
      </trkpt>
      <trkpt lat="43.11165" lon="1.94427">
        <ele>342.06</ele>
        <time>2019-09-02T11:03:47Z</time>
      </trkpt>
      <trkpt lat="43.11165" lon="1.94425">
        <ele>342.02</ele>
        <time>2019-09-02T11:03:48Z</time>
      </trkpt>
      <trkpt lat="43.11164" lon="1.94423">
        <ele>341.97</ele>
        <time>2019-09-02T11:03:49Z</time>
      </trkpt>
      <trkpt lat="43.11164" lon="1.9442">
        <ele>341.93</ele>
        <time>2019-09-02T11:03:50Z</time>
      </trkpt>
      <trkpt lat="43.11163" lon="1.94416">
        <ele>341.81</ele>
        <time>2019-09-02T11:03:53Z</time>
      </trkpt>
      <trkpt lat="43.11161" lon="1.94395">
        <ele>341.01</ele>
        <time>2019-09-02T11:04:06Z</time>
      </trkpt>
      <trkpt lat="43.11158" lon="1.94365">
        <ele>340.11</ele>
        <time>2019-09-02T11:04:25Z</time>
      </trkpt>
      <trkpt lat="43.11156" lon="1.94359">
        <ele>339.92</ele>
        <time>2019-09-02T11:04:28Z</time>
      </trkpt>
      <trkpt lat="43.11156" lon="1.94352">
        <ele>339.68</ele>
        <time>2019-09-02T11:04:31Z</time>
      </trkpt>
      <trkpt lat="43.11151" lon="1.94325">
        <ele>339.73</ele>
        <time>2019-09-02T11:04:46Z</time>
      </trkpt>
      <trkpt lat="43.11149" lon="1.94302">
        <ele>338.99</ele>
        <time>2019-09-02T11:04:59Z</time>
      </trkpt>
      <trkpt lat="43.11145" lon="1.94276">
        <ele>337.99</ele>
        <time>2019-09-02T11:05:15Z</time>
      </trkpt>
      <trkpt lat="43.11143" lon="1.94265">
        <ele>337.88</ele>
        <time>2019-09-02T11:05:22Z</time>
      </trkpt>
      <trkpt lat="43.11139" lon="1.94243">
        <ele>337.28</ele>
        <time>2019-09-02T11:05:34Z</time>
      </trkpt>
      <trkpt lat="43.11138" lon="1.94235">
        <ele>337.08</ele>
        <time>2019-09-02T11:05:38Z</time>
      </trkpt>
      <trkpt lat="43.11137" lon="1.94234">
        <ele>337.08</ele>
        <time>2019-09-02T11:05:39Z</time>
      </trkpt>
      <trkpt lat="43.11137" lon="1.94232">
        <ele>337.08</ele>
        <time>2019-09-02T11:05:40Z</time>
      </trkpt>
      <trkpt lat="43.11131" lon="1.94204">
        <ele>336.44</ele>
        <time>2019-09-02T11:05:55Z</time>
      </trkpt>
      <trkpt lat="43.11129" lon="1.94179">
        <ele>335.07</ele>
        <time>2019-09-02T11:06:11Z</time>
      </trkpt>
      <trkpt lat="43.11128" lon="1.94177">
        <ele>335.01</ele>
        <time>2019-09-02T11:06:12Z</time>
      </trkpt>
      <trkpt lat="43.11126" lon="1.94171">
        <ele>334.76</ele>
        <time>2019-09-02T11:06:15Z</time>
      </trkpt>
      <trkpt lat="43.11126" lon="1.94169">
        <ele>334.7</ele>
        <time>2019-09-02T11:06:16Z</time>
      </trkpt>
      <trkpt lat="43.11123" lon="1.9414">
        <ele>334.41</ele>
        <time>2019-09-02T11:06:32Z</time>
      </trkpt>
      <trkpt lat="43.11119" lon="1.94115">
        <ele>333.85</ele>
        <time>2019-09-02T11:06:49Z</time>
      </trkpt>
      <trkpt lat="43.11117" lon="1.94093">
        <ele>333.04</ele>
        <time>2019-09-02T11:06:59Z</time>
      </trkpt>
      <trkpt lat="43.11117" lon="1.94073">
        <ele>332.55</ele>
        <time>2019-09-02T11:07:10Z</time>
      </trkpt>
      <trkpt lat="43.11113" lon="1.94039">
        <ele>332.06</ele>
        <time>2019-09-02T11:07:28Z</time>
      </trkpt>
      <trkpt lat="43.11103" lon="1.93996">
        <ele>332.05</ele>
        <time>2019-09-02T11:07:52Z</time>
      </trkpt>
      <trkpt lat="43.11092" lon="1.93969">
        <ele>332.55</ele>
        <time>2019-09-02T11:08:11Z</time>
      </trkpt>
      <trkpt lat="43.11092" lon="1.93944">
        <ele>332.42</ele>
        <time>2019-09-02T11:08:26Z</time>
      </trkpt>
      <trkpt lat="43.11091" lon="1.93915">
        <ele>331.82</ele>
        <time>2019-09-02T11:08:42Z</time>
      </trkpt>
      <trkpt lat="43.11083" lon="1.93886">
        <ele>330.68</ele>
        <time>2019-09-02T11:09:00Z</time>
      </trkpt>
      <trkpt lat="43.11075" lon="1.93857">
        <ele>329.93</ele>
        <time>2019-09-02T11:09:19Z</time>
      </trkpt>
      <trkpt lat="43.11067" lon="1.93833">
        <ele>330.11</ele>
        <time>2019-09-02T11:09:37Z</time>
      </trkpt>
      <trkpt lat="43.11056" lon="1.93797">
        <ele>329.63</ele>
        <time>2019-09-02T11:09:57Z</time>
      </trkpt>
      <trkpt lat="43.11047" lon="1.93762">
        <ele>330.28</ele>
        <time>2019-09-02T11:10:17Z</time>
      </trkpt>
      <trkpt lat="43.11042" lon="1.93734">
        <ele>329.53</ele>
        <time>2019-09-02T11:10:34Z</time>
      </trkpt>
      <trkpt lat="43.11038" lon="1.93713">
        <ele>329.92</ele>
        <time>2019-09-02T11:10:50Z</time>
      </trkpt>
      <trkpt lat="43.11038" lon="1.93708">
        <ele>330.1</ele>
        <time>2019-09-02T11:10:56Z</time>
      </trkpt>
      <trkpt lat="43.11037" lon="1.93705">
        <ele>330.11</ele>
        <time>2019-09-02T11:10:58Z</time>
      </trkpt>
      <trkpt lat="43.11035" lon="1.93691">
        <ele>330.28</ele>
        <time>2019-09-02T11:11:07Z</time>
      </trkpt>
      <trkpt lat="43.11032" lon="1.93675">
        <ele>331.52</ele>
        <time>2019-09-02T11:11:20Z</time>
      </trkpt>
      <trkpt lat="43.11022" lon="1.93646">
        <ele>333.12</ele>
        <time>2019-09-02T11:11:37Z</time>
      </trkpt>
      <trkpt lat="43.11017" lon="1.93631">
        <ele>333.46</ele>
        <time>2019-09-02T11:11:46Z</time>
      </trkpt>
      <trkpt lat="43.11016" lon="1.93628">
        <ele>333.37</ele>
        <time>2019-09-02T11:11:48Z</time>
      </trkpt>
      <trkpt lat="43.11015" lon="1.93626">
        <ele>333.3</ele>
        <time>2019-09-02T11:11:49Z</time>
      </trkpt>
      <trkpt lat="43.11014" lon="1.93625">
        <ele>333.2</ele>
        <time>2019-09-02T11:11:50Z</time>
      </trkpt>
      <trkpt lat="43.11013" lon="1.93623">
        <ele>333.11</ele>
        <time>2019-09-02T11:11:51Z</time>
      </trkpt>
      <trkpt lat="43.11013" lon="1.93621">
        <ele>333.01</ele>
        <time>2019-09-02T11:11:52Z</time>
      </trkpt>
      <trkpt lat="43.11002" lon="1.936">
        <ele>331.44</ele>
        <time>2019-09-02T11:12:08Z</time>
      </trkpt>
      <trkpt lat="43.10996" lon="1.93572">
        <ele>330.73</ele>
        <time>2019-09-02T11:12:27Z</time>
      </trkpt>
      <trkpt lat="43.10994" lon="1.93564">
        <ele>330.5</ele>
        <time>2019-09-02T11:12:31Z</time>
      </trkpt>
      <trkpt lat="43.10992" lon="1.93561">
        <ele>330.38</ele>
        <time>2019-09-02T11:12:33Z</time>
      </trkpt>
      <trkpt lat="43.1099" lon="1.93556">
        <ele>330.26</ele>
        <time>2019-09-02T11:12:36Z</time>
      </trkpt>
      <trkpt lat="43.10976" lon="1.9353">
        <ele>328.72</ele>
        <time>2019-09-02T11:12:54Z</time>
      </trkpt>
      <trkpt lat="43.10965" lon="1.93509">
        <ele>330.93</ele>
        <time>2019-09-02T11:13:11Z</time>
      </trkpt>
      <trkpt lat="43.10948" lon="1.93479">
        <ele>333.12</ele>
        <time>2019-09-02T11:13:33Z</time>
      </trkpt>
      <trkpt lat="43.10944" lon="1.93457">
        <ele>333.47</ele>
        <time>2019-09-02T11:13:46Z</time>
      </trkpt>
      <trkpt lat="43.1094" lon="1.93431">
        <ele>331.74</ele>
        <time>2019-09-02T11:14:02Z</time>
      </trkpt>
      <trkpt lat="43.10938" lon="1.93407">
        <ele>331.04</ele>
        <time>2019-09-02T11:14:18Z</time>
      </trkpt>
      <trkpt lat="43.10935" lon="1.93394">
        <ele>330.79</ele>
        <time>2019-09-02T11:14:26Z</time>
      </trkpt>
      <trkpt lat="43.10927" lon="1.93377">
        <ele>330.46</ele>
        <time>2019-09-02T11:14:43Z</time>
      </trkpt>
      <trkpt lat="43.10926" lon="1.93358">
        <ele>329.77</ele>
        <time>2019-09-02T11:15:00Z</time>
      </trkpt>
      <trkpt lat="43.10927" lon="1.9336">
        <ele>319.52</ele>
        <time>2019-09-02T11:15:08Z</time>
      </trkpt>
      <trkpt lat="43.10928" lon="1.9336">
        <ele>323.81</ele>
        <time>2019-09-02T11:15:09Z</time>
      </trkpt>
      <trkpt lat="43.10928" lon="1.9336">
        <ele>327.09</ele>
        <time>2019-09-02T11:15:11Z</time>
      </trkpt>
      <trkpt lat="43.10928" lon="1.9336">
        <ele>327.94</ele>
        <time>2019-09-02T11:15:13Z</time>
      </trkpt>
      <trkpt lat="43.10925" lon="1.93362">
        <ele>328.22</ele>
        <time>2019-09-02T11:15:43Z</time>
      </trkpt>
      <trkpt lat="43.1093" lon="1.93364">
        <ele>328.22</ele>
        <time>2019-09-02T11:16:08Z</time>
      </trkpt>
      <trkpt lat="43.10926" lon="1.93362">
        <ele>328.22</ele>
        <time>2019-09-02T11:16:32Z</time>
      </trkpt>
      <trkpt lat="43.10931" lon="1.93357">
        <ele>328.22</ele>
        <time>2019-09-02T11:16:58Z</time>
      </trkpt>
      <trkpt lat="43.10931" lon="1.93356">
        <ele>328.22</ele>
        <time>2019-09-02T11:17:16Z</time>
      </trkpt>
      <trkpt lat="43.10931" lon="1.93357">
        <ele>328.22</ele>
        <time>2019-09-02T11:17:37Z</time>
      </trkpt>
      <trkpt lat="43.10929" lon="1.93356">
        <ele>328.22</ele>
        <time>2019-09-02T11:17:59Z</time>
      </trkpt>
      <trkpt lat="43.10929" lon="1.93356">
        <ele>335.94</ele>
        <time>2019-09-02T11:18:11Z</time>
      </trkpt>
      <trkpt lat="43.10929" lon="1.93356">
        <ele>335.26</ele>
        <time>2019-09-02T11:18:12Z</time>
      </trkpt>
      <trkpt lat="43.10929" lon="1.93357">
        <ele>331.74</ele>
        <time>2019-09-02T11:18:15Z</time>
      </trkpt>
      <trkpt lat="43.10928" lon="1.9336">
        <ele>328.71</ele>
        <time>2019-09-02T11:18:26Z</time>
      </trkpt>
      <trkpt lat="43.10926" lon="1.93367">
        <ele>328.86</ele>
        <time>2019-09-02T11:18:44Z</time>
      </trkpt>
      <trkpt lat="43.10926" lon="1.93363">
        <ele>330.22</ele>
        <time>2019-09-02T11:19:00Z</time>
      </trkpt>
      <trkpt lat="43.10927" lon="1.93356">
        <ele>328.44</ele>
        <time>2019-09-02T11:19:48Z</time>
      </trkpt>
      <trkpt lat="43.10927" lon="1.93354">
        <ele>328.42</ele>
        <time>2019-09-02T11:20:13Z</time>
      </trkpt>
      <trkpt lat="43.10923" lon="1.93359">
        <ele>328.73</ele>
        <time>2019-09-02T11:20:56Z</time>
      </trkpt>
      <trkpt lat="43.10924" lon="1.93355">
        <ele>328.88</ele>
        <time>2019-09-02T11:24:22Z</time>
      </trkpt>
      <trkpt lat="43.10925" lon="1.93357">
        <ele>329.23</ele>
        <time>2019-09-02T11:24:53Z</time>
      </trkpt>
      <trkpt lat="43.10925" lon="1.93354">
        <ele>325.71</ele>
        <time>2019-09-02T11:26:18Z</time>
      </trkpt>
      <trkpt lat="43.10922" lon="1.93361">
        <ele>328.89</ele>
        <time>2019-09-02T11:26:48Z</time>
      </trkpt>
      <trkpt lat="43.10924" lon="1.93357">
        <ele>329.11</ele>
        <time>2019-09-02T11:28:13Z</time>
      </trkpt>
      <trkpt lat="43.10929" lon="1.93353">
        <ele>326.24</ele>
        <time>2019-09-02T11:30:56Z</time>
      </trkpt>
      <trkpt lat="43.10926" lon="1.93354">
        <ele>328.71</ele>
        <time>2019-09-02T11:31:17Z</time>
      </trkpt>
      <trkpt lat="43.10913" lon="1.93351">
        <ele>328.25</ele>
        <time>2019-09-02T11:33:53Z</time>
      </trkpt>
      <trkpt lat="43.10918" lon="1.93355">
        <ele>329.08</ele>
        <time>2019-09-02T11:37:41Z</time>
      </trkpt>
      <trkpt lat="43.10919" lon="1.93355">
        <ele>329.72</ele>
        <time>2019-09-02T11:37:51Z</time>
      </trkpt>
      <trkpt lat="43.10922" lon="1.93359">
        <ele>329.77</ele>
        <time>2019-09-02T11:42:38Z</time>
      </trkpt>
      <trkpt lat="43.1092" lon="1.93354">
        <ele>326.23</ele>
        <time>2019-09-02T11:44:14Z</time>
      </trkpt>
      <trkpt lat="43.10921" lon="1.93356">
        <ele>328.82</ele>
        <time>2019-09-02T11:44:20Z</time>
      </trkpt>
      <trkpt lat="43.10921" lon="1.93356">
        <ele>332.24</ele>
        <time>2019-09-02T11:44:22Z</time>
      </trkpt>
      <trkpt lat="43.10921" lon="1.93356">
        <ele>332.9</ele>
        <time>2019-09-02T11:44:24Z</time>
      </trkpt>
      <trkpt lat="43.10923" lon="1.93358">
        <ele>329.98</ele>
        <time>2019-09-02T11:44:54Z</time>
      </trkpt>
      <trkpt lat="43.10923" lon="1.93358">
        <ele>330.25</ele>
        <time>2019-09-02T11:45:27Z</time>
      </trkpt>
      <trkpt lat="43.10925" lon="1.93358">
        <ele>330.63</ele>
        <time>2019-09-02T11:45:56Z</time>
      </trkpt>
      <trkpt lat="43.10926" lon="1.9336">
        <ele>330.63</ele>
        <time>2019-09-02T11:46:26Z</time>
      </trkpt>
      <trkpt lat="43.10925" lon="1.93361">
        <ele>330.63</ele>
        <time>2019-09-02T11:46:58Z</time>
      </trkpt>
      <trkpt lat="43.10921" lon="1.93362">
        <ele>330.63</ele>
        <time>2019-09-02T11:47:29Z</time>
      </trkpt>
      <trkpt lat="43.10921" lon="1.93361">
        <ele>330.63</ele>
        <time>2019-09-02T11:48:03Z</time>
      </trkpt>
      <trkpt lat="43.10921" lon="1.93361">
        <ele>330.63</ele>
        <time>2019-09-02T11:48:30Z</time>
      </trkpt>
      <trkpt lat="43.10922" lon="1.9336">
        <ele>330.63</ele>
        <time>2019-09-02T11:49:03Z</time>
      </trkpt>
      <trkpt lat="43.10927" lon="1.93359">
        <ele>330.63</ele>
        <time>2019-09-02T11:49:38Z</time>
      </trkpt>
      <trkpt lat="43.10925" lon="1.93357">
        <ele>332.98</ele>
        <time>2019-09-02T11:49:49Z</time>
      </trkpt>
      <trkpt lat="43.10925" lon="1.93357">
        <ele>329.3</ele>
        <time>2019-09-02T11:49:50Z</time>
      </trkpt>
      <trkpt lat="43.10924" lon="1.93357">
        <ele>330.38</ele>
        <time>2019-09-02T11:49:51Z</time>
      </trkpt>
      <trkpt lat="43.10921" lon="1.93357">
        <ele>332.29</ele>
        <time>2019-09-02T11:49:54Z</time>
      </trkpt>
      <trkpt lat="43.1092" lon="1.93357">
        <ele>330.52</ele>
        <time>2019-09-02T11:50:02Z</time>
      </trkpt>
      <trkpt lat="43.10926" lon="1.93358">
        <ele>328.49</ele>
        <time>2019-09-02T11:50:16Z</time>
      </trkpt>
      <trkpt lat="43.10926" lon="1.93358">
        <ele>332.53</ele>
        <time>2019-09-02T11:50:19Z</time>
      </trkpt>
      <trkpt lat="43.10925" lon="1.93358">
        <ele>332.14</ele>
        <time>2019-09-02T11:50:31Z</time>
      </trkpt>
      <trkpt lat="43.10924" lon="1.93358">
        <ele>329.04</ele>
        <time>2019-09-02T11:50:40Z</time>
      </trkpt>
      <trkpt lat="43.10923" lon="1.93357">
        <ele>332.09</ele>
        <time>2019-09-02T11:50:54Z</time>
      </trkpt>
      <trkpt lat="43.10923" lon="1.93356">
        <ele>330.65</ele>
        <time>2019-09-02T11:51:38Z</time>
      </trkpt>
      <trkpt lat="43.10924" lon="1.93361">
        <ele>326.27</ele>
        <time>2019-09-02T11:52:09Z</time>
      </trkpt>
      <trkpt lat="43.10925" lon="1.9336">
        <ele>329.39</ele>
        <time>2019-09-02T11:52:17Z</time>
      </trkpt>
      <trkpt lat="43.10924" lon="1.93359">
        <ele>333.2</ele>
        <time>2019-09-02T11:52:20Z</time>
      </trkpt>
      <trkpt lat="43.10924" lon="1.93359">
        <ele>333.88</ele>
        <time>2019-09-02T11:52:22Z</time>
      </trkpt>
      <trkpt lat="43.10923" lon="1.93358">
        <ele>330.7</ele>
        <time>2019-09-02T11:52:29Z</time>
      </trkpt>
      <trkpt lat="43.10923" lon="1.9336">
        <ele>327.46</ele>
        <time>2019-09-02T11:52:42Z</time>
      </trkpt>
      <trkpt lat="43.10922" lon="1.93362">
        <ele>331.39</ele>
        <time>2019-09-02T11:52:46Z</time>
      </trkpt>
      <trkpt lat="43.10922" lon="1.93361">
        <ele>330.23</ele>
        <time>2019-09-02T11:52:57Z</time>
      </trkpt>
      <trkpt lat="43.10922" lon="1.9336">
        <ele>331.27</ele>
        <time>2019-09-02T11:53:06Z</time>
      </trkpt>
      <trkpt lat="43.10923" lon="1.93363">
        <ele>330.76</ele>
        <time>2019-09-02T11:54:05Z</time>
      </trkpt>
      <trkpt lat="43.10926" lon="1.93356">
        <ele>330.76</ele>
        <time>2019-09-02T11:54:49Z</time>
      </trkpt>
      <trkpt lat="43.10926" lon="1.93356">
        <ele>325.24</ele>
        <time>2019-09-02T11:54:50Z</time>
      </trkpt>
      <trkpt lat="43.10926" lon="1.93357">
        <ele>325.3</ele>
        <time>2019-09-02T11:54:51Z</time>
      </trkpt>
      <trkpt lat="43.10926" lon="1.93359">
        <ele>328.32</ele>
        <time>2019-09-02T11:54:54Z</time>
      </trkpt>
      <trkpt lat="43.10925" lon="1.93359">
        <ele>330.47</ele>
        <time>2019-09-02T11:54:59Z</time>
      </trkpt>
      <trkpt lat="43.10925" lon="1.93358">
        <ele>332.35</ele>
        <time>2019-09-02T11:55:25Z</time>
      </trkpt>
      <trkpt lat="43.10928" lon="1.93363">
        <ele>331.09</ele>
        <time>2019-09-02T11:55:56Z</time>
      </trkpt>
      <trkpt lat="43.10928" lon="1.93365">
        <ele>333.12</ele>
        <time>2019-09-02T11:56:02Z</time>
      </trkpt>
      <trkpt lat="43.10927" lon="1.93362">
        <ele>332.42</ele>
        <time>2019-09-02T11:56:29Z</time>
      </trkpt>
      <trkpt lat="43.1093" lon="1.93359">
        <ele>332.19</ele>
        <time>2019-09-02T11:56:53Z</time>
      </trkpt>
      <trkpt lat="43.1093" lon="1.93359">
        <ele>331.96</ele>
        <time>2019-09-02T11:57:15Z</time>
      </trkpt>
      <trkpt lat="43.10931" lon="1.93358">
        <ele>332.9</ele>
        <time>2019-09-02T11:57:35Z</time>
      </trkpt>
      <trkpt lat="43.10924" lon="1.93358">
        <ele>331.56</ele>
        <time>2019-09-02T11:58:01Z</time>
      </trkpt>
      <trkpt lat="43.1092" lon="1.93345">
        <ele>331.54</ele>
        <time>2019-09-02T11:58:14Z</time>
      </trkpt>
      <trkpt lat="43.1093" lon="1.93326">
        <ele>329.18</ele>
        <time>2019-09-02T11:58:30Z</time>
      </trkpt>
      <trkpt lat="43.10934" lon="1.93321">
        <ele>328.27</ele>
        <time>2019-09-02T11:58:34Z</time>
      </trkpt>
      <trkpt lat="43.10947" lon="1.93301">
        <ele>326.26</ele>
        <time>2019-09-02T11:58:50Z</time>
      </trkpt>
      <trkpt lat="43.10961" lon="1.93282">
        <ele>324.64</ele>
        <time>2019-09-02T11:59:07Z</time>
      </trkpt>
      <trkpt lat="43.10975" lon="1.93259">
        <ele>323.14</ele>
        <time>2019-09-02T11:59:24Z</time>
      </trkpt>
      <trkpt lat="43.10986" lon="1.93227">
        <ele>322.15</ele>
        <time>2019-09-02T11:59:47Z</time>
      </trkpt>
      <trkpt lat="43.10989" lon="1.93197">
        <ele>322.64</ele>
        <time>2019-09-02T12:00:08Z</time>
      </trkpt>
      <trkpt lat="43.10993" lon="1.9317">
        <ele>323.22</ele>
        <time>2019-09-02T12:00:25Z</time>
      </trkpt>
      <trkpt lat="43.11014" lon="1.9314">
        <ele>324.4</ele>
        <time>2019-09-02T12:00:48Z</time>
      </trkpt>
      <trkpt lat="43.11039" lon="1.93124">
        <ele>325.77</ele>
        <time>2019-09-02T12:01:10Z</time>
      </trkpt>
      <trkpt lat="43.11055" lon="1.93117">
        <ele>326.46</ele>
        <time>2019-09-02T12:01:30Z</time>
      </trkpt>
      <trkpt lat="43.11065" lon="1.93112">
        <ele>327.63</ele>
        <time>2019-09-02T12:01:46Z</time>
      </trkpt>
      <trkpt lat="43.1108" lon="1.931">
        <ele>327.97</ele>
        <time>2019-09-02T12:02:07Z</time>
      </trkpt>
      <trkpt lat="43.11082" lon="1.93099">
        <ele>327.97</ele>
        <time>2019-09-02T12:02:09Z</time>
      </trkpt>
      <trkpt lat="43.11088" lon="1.93083">
        <ele>328.98</ele>
        <time>2019-09-02T12:02:25Z</time>
      </trkpt>
      <trkpt lat="43.11079" lon="1.93055">
        <ele>330.49</ele>
        <time>2019-09-02T12:02:44Z</time>
      </trkpt>
      <trkpt lat="43.11078" lon="1.93051">
        <ele>330.97</ele>
        <time>2019-09-02T12:02:47Z</time>
      </trkpt>
      <trkpt lat="43.11071" lon="1.93027">
        <ele>333.06</ele>
        <time>2019-09-02T12:03:05Z</time>
      </trkpt>
      <trkpt lat="43.11059" lon="1.93">
        <ele>334.31</ele>
        <time>2019-09-02T12:03:27Z</time>
      </trkpt>
      <trkpt lat="43.11054" lon="1.92991">
        <ele>336.68</ele>
        <time>2019-09-02T12:03:42Z</time>
      </trkpt>
      <trkpt lat="43.11054" lon="1.9299">
        <ele>336.88</ele>
        <time>2019-09-02T12:04:03Z</time>
      </trkpt>
      <trkpt lat="43.11055" lon="1.92993">
        <ele>336.64</ele>
        <time>2019-09-02T12:04:05Z</time>
      </trkpt>
      <trkpt lat="43.11056" lon="1.92995">
        <ele>336.42</ele>
        <time>2019-09-02T12:04:07Z</time>
      </trkpt>
      <trkpt lat="43.11057" lon="1.92997">
        <ele>336.3</ele>
        <time>2019-09-02T12:04:08Z</time>
      </trkpt>
      <trkpt lat="43.11057" lon="1.92998">
        <ele>336.19</ele>
        <time>2019-09-02T12:04:09Z</time>
      </trkpt>
      <trkpt lat="43.11057" lon="1.93">
        <ele>336.1</ele>
        <time>2019-09-02T12:04:10Z</time>
      </trkpt>
      <trkpt lat="43.11056" lon="1.93001">
        <ele>336.02</ele>
        <time>2019-09-02T12:04:11Z</time>
      </trkpt>
      <trkpt lat="43.11055" lon="1.93002">
        <ele>335.97</ele>
        <time>2019-09-02T12:04:12Z</time>
      </trkpt>
      <trkpt lat="43.11045" lon="1.93015">
        <ele>335.92</ele>
        <time>2019-09-02T12:04:29Z</time>
      </trkpt>
      <trkpt lat="43.11038" lon="1.9302">
        <ele>336.05</ele>
        <time>2019-09-02T12:06:25Z</time>
      </trkpt>
      <trkpt lat="43.11035" lon="1.93029">
        <ele>336.84</ele>
        <time>2019-09-02T12:06:41Z</time>
      </trkpt>
      <trkpt lat="43.11039" lon="1.9302">
        <ele>336.5</ele>
        <time>2019-09-02T12:06:50Z</time>
      </trkpt>
      <trkpt lat="43.11055" lon="1.92996">
        <ele>337.06</ele>
        <time>2019-09-02T12:07:09Z</time>
      </trkpt>
      <trkpt lat="43.11055" lon="1.92995">
        <ele>337.08</ele>
        <time>2019-09-02T12:07:10Z</time>
      </trkpt>
      <trkpt lat="43.11055" lon="1.92994">
        <ele>337.08</ele>
        <time>2019-09-02T12:07:11Z</time>
      </trkpt>
      <trkpt lat="43.11054" lon="1.92992">
        <ele>337.07</ele>
        <time>2019-09-02T12:07:12Z</time>
      </trkpt>
      <trkpt lat="43.11053" lon="1.92991">
        <ele>336.8</ele>
        <time>2019-09-02T12:07:13Z</time>
      </trkpt>
      <trkpt lat="43.11053" lon="1.9299">
        <ele>336.62</ele>
        <time>2019-09-02T12:07:14Z</time>
      </trkpt>
      <trkpt lat="43.11052" lon="1.92988">
        <ele>336.47</ele>
        <time>2019-09-02T12:07:15Z</time>
      </trkpt>
      <trkpt lat="43.11052" lon="1.92987">
        <ele>336.38</ele>
        <time>2019-09-02T12:07:16Z</time>
      </trkpt>
      <trkpt lat="43.11051" lon="1.92985">
        <ele>336.31</ele>
        <time>2019-09-02T12:07:17Z</time>
      </trkpt>
      <trkpt lat="43.11034" lon="1.92947">
        <ele>336.35</ele>
        <time>2019-09-02T12:07:43Z</time>
      </trkpt>
      <trkpt lat="43.11027" lon="1.92914">
        <ele>335.88</ele>
        <time>2019-09-02T12:08:02Z</time>
      </trkpt>
      <trkpt lat="43.11026" lon="1.92873">
        <ele>333.43</ele>
        <time>2019-09-02T12:08:27Z</time>
      </trkpt>
      <trkpt lat="43.11031" lon="1.92822">
        <ele>330.33</ele>
        <time>2019-09-02T12:08:54Z</time>
      </trkpt>
      <trkpt lat="43.11034" lon="1.92773">
        <ele>329.18</ele>
        <time>2019-09-02T12:09:22Z</time>
      </trkpt>
      <trkpt lat="43.11038" lon="1.92719">
        <ele>328.52</ele>
        <time>2019-09-02T12:09:52Z</time>
      </trkpt>
      <trkpt lat="43.11039" lon="1.9271">
        <ele>328.2</ele>
        <time>2019-09-02T12:10:00Z</time>
      </trkpt>
      <trkpt lat="43.1104" lon="1.92704">
        <ele>328.14</ele>
        <time>2019-09-02T12:10:03Z</time>
      </trkpt>
      <trkpt lat="43.1104" lon="1.92703">
        <ele>328.13</ele>
        <time>2019-09-02T12:10:04Z</time>
      </trkpt>
      <trkpt lat="43.11039" lon="1.92651">
        <ele>328.45</ele>
        <time>2019-09-02T12:10:34Z</time>
      </trkpt>
      <trkpt lat="43.11017" lon="1.92628">
        <ele>327.62</ele>
        <time>2019-09-02T12:10:55Z</time>
      </trkpt>
      <trkpt lat="43.10995" lon="1.92607">
        <ele>326.14</ele>
        <time>2019-09-02T12:11:15Z</time>
      </trkpt>
      <trkpt lat="43.10975" lon="1.92587">
        <ele>325.51</ele>
        <time>2019-09-02T12:11:34Z</time>
      </trkpt>
      <trkpt lat="43.10952" lon="1.92568">
        <ele>325.12</ele>
        <time>2019-09-02T12:11:54Z</time>
      </trkpt>
      <trkpt lat="43.10941" lon="1.92558">
        <ele>324.82</ele>
        <time>2019-09-02T12:12:04Z</time>
      </trkpt>
      <trkpt lat="43.1094" lon="1.92557">
        <ele>324.79</ele>
        <time>2019-09-02T12:12:05Z</time>
      </trkpt>
      <trkpt lat="43.10924" lon="1.92526">
        <ele>324.3</ele>
        <time>2019-09-02T12:12:25Z</time>
      </trkpt>
      <trkpt lat="43.10917" lon="1.92491">
        <ele>324.34</ele>
        <time>2019-09-02T12:12:44Z</time>
      </trkpt>
      <trkpt lat="43.10899" lon="1.92474">
        <ele>325.38</ele>
        <time>2019-09-02T12:13:04Z</time>
      </trkpt>
      <trkpt lat="43.10881" lon="1.92452">
        <ele>327.56</ele>
        <time>2019-09-02T12:13:26Z</time>
      </trkpt>
      <trkpt lat="43.10873" lon="1.92422">
        <ele>329.22</ele>
        <time>2019-09-02T12:13:48Z</time>
      </trkpt>
      <trkpt lat="43.10872" lon="1.924">
        <ele>330.97</ele>
        <time>2019-09-02T12:14:05Z</time>
      </trkpt>
      <trkpt lat="43.10874" lon="1.92391">
        <ele>331.67</ele>
        <time>2019-09-02T12:14:11Z</time>
      </trkpt>
      <trkpt lat="43.10887" lon="1.92372">
        <ele>333.53</ele>
        <time>2019-09-02T12:14:29Z</time>
      </trkpt>
      <trkpt lat="43.1091" lon="1.92352">
        <ele>336.03</ele>
        <time>2019-09-02T12:14:53Z</time>
      </trkpt>
      <trkpt lat="43.10935" lon="1.9233">
        <ele>337.66</ele>
        <time>2019-09-02T12:15:18Z</time>
      </trkpt>
      <trkpt lat="43.10961" lon="1.92308">
        <ele>339.4</ele>
        <time>2019-09-02T12:15:44Z</time>
      </trkpt>
      <trkpt lat="43.10983" lon="1.9229">
        <ele>340.34</ele>
        <time>2019-09-02T12:16:05Z</time>
      </trkpt>
      <trkpt lat="43.11003" lon="1.92269">
        <ele>341.38</ele>
        <time>2019-09-02T12:16:26Z</time>
      </trkpt>
      <trkpt lat="43.11018" lon="1.92257">
        <ele>343.35</ele>
        <time>2019-09-02T12:16:43Z</time>
      </trkpt>
      <trkpt lat="43.11025" lon="1.92254">
        <ele>343.91</ele>
        <time>2019-09-02T12:16:51Z</time>
      </trkpt>
      <trkpt lat="43.11041" lon="1.92252">
        <ele>346.33</ele>
        <time>2019-09-02T12:17:07Z</time>
      </trkpt>
      <trkpt lat="43.11057" lon="1.92258">
        <ele>348.08</ele>
        <time>2019-09-02T12:17:24Z</time>
      </trkpt>
      <trkpt lat="43.11078" lon="1.92269">
        <ele>349.01</ele>
        <time>2019-09-02T12:17:43Z</time>
      </trkpt>
      <trkpt lat="43.11091" lon="1.92271">
        <ele>349.4</ele>
        <time>2019-09-02T12:17:54Z</time>
      </trkpt>
      <trkpt lat="43.11107" lon="1.92252">
        <ele>349.21</ele>
        <time>2019-09-02T12:18:12Z</time>
      </trkpt>
      <trkpt lat="43.1111" lon="1.92246">
        <ele>349.61</ele>
        <time>2019-09-02T12:18:18Z</time>
      </trkpt>
      <trkpt lat="43.11123" lon="1.92228">
        <ele>351.35</ele>
        <time>2019-09-02T12:18:36Z</time>
      </trkpt>
      <trkpt lat="43.11137" lon="1.92207">
        <ele>352.35</ele>
        <time>2019-09-02T12:18:55Z</time>
      </trkpt>
      <trkpt lat="43.1115" lon="1.92189">
        <ele>352.97</ele>
        <time>2019-09-02T12:19:11Z</time>
      </trkpt>
      <trkpt lat="43.11163" lon="1.92164">
        <ele>353.96</ele>
        <time>2019-09-02T12:19:30Z</time>
      </trkpt>
      <trkpt lat="43.11173" lon="1.92141">
        <ele>355.01</ele>
        <time>2019-09-02T12:19:46Z</time>
      </trkpt>
      <trkpt lat="43.11184" lon="1.92112">
        <ele>354.73</ele>
        <time>2019-09-02T12:20:04Z</time>
      </trkpt>
      <trkpt lat="43.11197" lon="1.9208">
        <ele>353.84</ele>
        <time>2019-09-02T12:20:25Z</time>
      </trkpt>
      <trkpt lat="43.11211" lon="1.9206">
        <ele>353.48</ele>
        <time>2019-09-02T12:20:41Z</time>
      </trkpt>
      <trkpt lat="43.11223" lon="1.92039">
        <ele>352.28</ele>
        <time>2019-09-02T12:20:57Z</time>
      </trkpt>
      <trkpt lat="43.11238" lon="1.92013">
        <ele>351.26</ele>
        <time>2019-09-02T12:21:15Z</time>
      </trkpt>
      <trkpt lat="43.1125" lon="1.91993">
        <ele>349.77</ele>
        <time>2019-09-02T12:21:31Z</time>
      </trkpt>
      <trkpt lat="43.11262" lon="1.91972">
        <ele>348.52</ele>
        <time>2019-09-02T12:21:47Z</time>
      </trkpt>
      <trkpt lat="43.11273" lon="1.91951">
        <ele>346.92</ele>
        <time>2019-09-02T12:22:03Z</time>
      </trkpt>
      <trkpt lat="43.1128" lon="1.91932">
        <ele>346.46</ele>
        <time>2019-09-02T12:22:15Z</time>
      </trkpt>
      <trkpt lat="43.11287" lon="1.91902">
        <ele>347.87</ele>
        <time>2019-09-02T12:22:32Z</time>
      </trkpt>
      <trkpt lat="43.11292" lon="1.91876">
        <ele>349.48</ele>
        <time>2019-09-02T12:22:49Z</time>
      </trkpt>
      <trkpt lat="43.113" lon="1.91846">
        <ele>351.95</ele>
        <time>2019-09-02T12:23:10Z</time>
      </trkpt>
      <trkpt lat="43.11306" lon="1.91813">
        <ele>352.7</ele>
        <time>2019-09-02T12:23:34Z</time>
      </trkpt>
      <trkpt lat="43.11303" lon="1.91771">
        <ele>354.58</ele>
        <time>2019-09-02T12:23:59Z</time>
      </trkpt>
      <trkpt lat="43.11308" lon="1.91731">
        <ele>352.12</ele>
        <time>2019-09-02T12:24:22Z</time>
      </trkpt>
      <trkpt lat="43.11311" lon="1.917">
        <ele>348.95</ele>
        <time>2019-09-02T12:24:40Z</time>
      </trkpt>
      <trkpt lat="43.11316" lon="1.91661">
        <ele>346.57</ele>
        <time>2019-09-02T12:25:03Z</time>
      </trkpt>
      <trkpt lat="43.11321" lon="1.91619">
        <ele>345.43</ele>
        <time>2019-09-02T12:25:26Z</time>
      </trkpt>
      <trkpt lat="43.11325" lon="1.91585">
        <ele>342.37</ele>
        <time>2019-09-02T12:25:44Z</time>
      </trkpt>
      <trkpt lat="43.11332" lon="1.91537">
        <ele>339.2</ele>
        <time>2019-09-02T12:26:12Z</time>
      </trkpt>
      <trkpt lat="43.11337" lon="1.91505">
        <ele>336.16</ele>
        <time>2019-09-02T12:26:30Z</time>
      </trkpt>
      <trkpt lat="43.11353" lon="1.91464">
        <ele>334.31</ele>
        <time>2019-09-02T12:26:56Z</time>
      </trkpt>
      <trkpt lat="43.11366" lon="1.91435">
        <ele>333.81</ele>
        <time>2019-09-02T12:27:16Z</time>
      </trkpt>
      <trkpt lat="43.11378" lon="1.91402">
        <ele>331.52</ele>
        <time>2019-09-02T12:27:37Z</time>
      </trkpt>
      <trkpt lat="43.1139" lon="1.91371">
        <ele>329.72</ele>
        <time>2019-09-02T12:27:57Z</time>
      </trkpt>
      <trkpt lat="43.11397" lon="1.91356">
        <ele>328.95</ele>
        <time>2019-09-02T12:28:09Z</time>
      </trkpt>
      <trkpt lat="43.11403" lon="1.91342">
        <ele>327.66</ele>
        <time>2019-09-02T12:28:19Z</time>
      </trkpt>
      <trkpt lat="43.11408" lon="1.91332">
        <ele>327.02</ele>
        <time>2019-09-02T12:28:29Z</time>
      </trkpt>
      <trkpt lat="43.11409" lon="1.91331">
        <ele>326.96</ele>
        <time>2019-09-02T12:28:30Z</time>
      </trkpt>
      <trkpt lat="43.11426" lon="1.91334">
        <ele>327.94</ele>
        <time>2019-09-02T12:28:45Z</time>
      </trkpt>
      <trkpt lat="43.11439" lon="1.91312">
        <ele>329.21</ele>
        <time>2019-09-02T12:29:05Z</time>
      </trkpt>
      <trkpt lat="43.11443" lon="1.91301">
        <ele>329.58</ele>
        <time>2019-09-02T12:29:13Z</time>
      </trkpt>
      <trkpt lat="43.11452" lon="1.91277">
        <ele>330.11</ele>
        <time>2019-09-02T12:29:31Z</time>
      </trkpt>
      <trkpt lat="43.1146" lon="1.9125">
        <ele>331.16</ele>
        <time>2019-09-02T12:29:50Z</time>
      </trkpt>
      <trkpt lat="43.11469" lon="1.91227">
        <ele>331.88</ele>
        <time>2019-09-02T12:30:07Z</time>
      </trkpt>
      <trkpt lat="43.11478" lon="1.91206">
        <ele>333.18</ele>
        <time>2019-09-02T12:30:24Z</time>
      </trkpt>
      <trkpt lat="43.11489" lon="1.9118">
        <ele>335.83</ele>
        <time>2019-09-02T12:30:42Z</time>
      </trkpt>
      <trkpt lat="43.11492" lon="1.91173">
        <ele>336.19</ele>
        <time>2019-09-02T12:30:47Z</time>
      </trkpt>
      <trkpt lat="43.11493" lon="1.91171">
        <ele>336.21</ele>
        <time>2019-09-02T12:30:48Z</time>
      </trkpt>
      <trkpt lat="43.11504" lon="1.91143">
        <ele>338.06</ele>
        <time>2019-09-02T12:31:09Z</time>
      </trkpt>
      <trkpt lat="43.11513" lon="1.91114">
        <ele>340.24</ele>
        <time>2019-09-02T12:31:30Z</time>
      </trkpt>
      <trkpt lat="43.11524" lon="1.91087">
        <ele>343.1</ele>
        <time>2019-09-02T12:31:53Z</time>
      </trkpt>
      <trkpt lat="43.11528" lon="1.91067">
        <ele>346.13</ele>
        <time>2019-09-02T12:32:12Z</time>
      </trkpt>
      <trkpt lat="43.1154" lon="1.91043">
        <ele>348.57</ele>
        <time>2019-09-02T12:32:30Z</time>
      </trkpt>
      <trkpt lat="43.1154" lon="1.91041">
        <ele>348.68</ele>
        <time>2019-09-02T12:32:31Z</time>
      </trkpt>
      <trkpt lat="43.11541" lon="1.91039">
        <ele>348.75</ele>
        <time>2019-09-02T12:32:32Z</time>
      </trkpt>
      <trkpt lat="43.11551" lon="1.91004">
        <ele>351.29</ele>
        <time>2019-09-02T12:32:55Z</time>
      </trkpt>
      <trkpt lat="43.11556" lon="1.90975">
        <ele>352.7</ele>
        <time>2019-09-02T12:33:14Z</time>
      </trkpt>
      <trkpt lat="43.11565" lon="1.90944">
        <ele>354.79</ele>
        <time>2019-09-02T12:33:36Z</time>
      </trkpt>
      <trkpt lat="43.11577" lon="1.90917">
        <ele>356.46</ele>
        <time>2019-09-02T12:33:56Z</time>
      </trkpt>
      <trkpt lat="43.11589" lon="1.90887">
        <ele>357.83</ele>
        <time>2019-09-02T12:34:18Z</time>
      </trkpt>
      <trkpt lat="43.11601" lon="1.90858">
        <ele>360.8</ele>
        <time>2019-09-02T12:34:41Z</time>
      </trkpt>
      <trkpt lat="43.11619" lon="1.90841">
        <ele>363.91</ele>
        <time>2019-09-02T12:35:01Z</time>
      </trkpt>
      <trkpt lat="43.11631" lon="1.90822">
        <ele>365.67</ele>
        <time>2019-09-02T12:35:18Z</time>
      </trkpt>
      <trkpt lat="43.11637" lon="1.90799">
        <ele>368.01</ele>
        <time>2019-09-02T12:35:34Z</time>
      </trkpt>
      <trkpt lat="43.11643" lon="1.90775">
        <ele>369.57</ele>
        <time>2019-09-02T12:35:52Z</time>
      </trkpt>
      <trkpt lat="43.11651" lon="1.90753">
        <ele>372.63</ele>
        <time>2019-09-02T12:36:10Z</time>
      </trkpt>
      <trkpt lat="43.11656" lon="1.9073">
        <ele>375</ele>
        <time>2019-09-02T12:36:26Z</time>
      </trkpt>
      <trkpt lat="43.1166" lon="1.90708">
        <ele>376.21</ele>
        <time>2019-09-02T12:36:45Z</time>
      </trkpt>
      <trkpt lat="43.11663" lon="1.90701">
        <ele>376.21</ele>
        <time>2019-09-02T12:37:18Z</time>
      </trkpt>
      <trkpt lat="43.11671" lon="1.90676">
        <ele>378.43</ele>
        <time>2019-09-02T12:37:36Z</time>
      </trkpt>
      <trkpt lat="43.11671" lon="1.90675">
        <ele>378.66</ele>
        <time>2019-09-02T12:37:37Z</time>
      </trkpt>
      <trkpt lat="43.11681" lon="1.90636">
        <ele>378.44</ele>
        <time>2019-09-02T12:38:00Z</time>
      </trkpt>
      <trkpt lat="43.11681" lon="1.90609">
        <ele>379.03</ele>
        <time>2019-09-02T12:38:18Z</time>
      </trkpt>
      <trkpt lat="43.11685" lon="1.90578">
        <ele>381.65</ele>
        <time>2019-09-02T12:38:39Z</time>
      </trkpt>
      <trkpt lat="43.1169" lon="1.90547">
        <ele>383.94</ele>
        <time>2019-09-02T12:39:00Z</time>
      </trkpt>
      <trkpt lat="43.11693" lon="1.90518">
        <ele>385.41</ele>
        <time>2019-09-02T12:39:19Z</time>
      </trkpt>
      <trkpt lat="43.11693" lon="1.90497">
        <ele>386.71</ele>
        <time>2019-09-02T12:39:32Z</time>
      </trkpt>
      <trkpt lat="43.1169" lon="1.90471">
        <ele>387.53</ele>
        <time>2019-09-02T12:39:49Z</time>
      </trkpt>
      <trkpt lat="43.11674" lon="1.90442">
        <ele>388.44</ele>
        <time>2019-09-02T12:40:10Z</time>
      </trkpt>
      <trkpt lat="43.11656" lon="1.9043">
        <ele>389.93</ele>
        <time>2019-09-02T12:40:29Z</time>
      </trkpt>
      <trkpt lat="43.11635" lon="1.90417">
        <ele>391.56</ele>
        <time>2019-09-02T12:40:49Z</time>
      </trkpt>
      <trkpt lat="43.11609" lon="1.90414">
        <ele>394.68</ele>
        <time>2019-09-02T12:41:11Z</time>
      </trkpt>
      <trkpt lat="43.11602" lon="1.90415">
        <ele>395.4</ele>
        <time>2019-09-02T12:41:17Z</time>
      </trkpt>
      <trkpt lat="43.11581" lon="1.90417">
        <ele>397.18</ele>
        <time>2019-09-02T12:41:34Z</time>
      </trkpt>
      <trkpt lat="43.1156" lon="1.90421">
        <ele>398.45</ele>
        <time>2019-09-02T12:41:53Z</time>
      </trkpt>
      <trkpt lat="43.11553" lon="1.90419">
        <ele>398.66</ele>
        <time>2019-09-02T12:41:59Z</time>
      </trkpt>
      <trkpt lat="43.11553" lon="1.90417">
        <ele>398.72</ele>
        <time>2019-09-02T12:42:00Z</time>
      </trkpt>
      <trkpt lat="43.11552" lon="1.90416">
        <ele>398.77</ele>
        <time>2019-09-02T12:42:01Z</time>
      </trkpt>
      <trkpt lat="43.11552" lon="1.90414">
        <ele>398.79</ele>
        <time>2019-09-02T12:42:02Z</time>
      </trkpt>
      <trkpt lat="43.11552" lon="1.90413">
        <ele>398.8</ele>
        <time>2019-09-02T12:42:03Z</time>
      </trkpt>
      <trkpt lat="43.11548" lon="1.90387">
        <ele>396.53</ele>
        <time>2019-09-02T12:42:20Z</time>
      </trkpt>
      <trkpt lat="43.11535" lon="1.90357">
        <ele>394.53</ele>
        <time>2019-09-02T12:42:39Z</time>
      </trkpt>
      <trkpt lat="43.11523" lon="1.90333">
        <ele>391.37</ele>
        <time>2019-09-02T12:42:56Z</time>
      </trkpt>
      <trkpt lat="43.11515" lon="1.90315">
        <ele>388.18</ele>
        <time>2019-09-02T12:43:09Z</time>
      </trkpt>
      <trkpt lat="43.11505" lon="1.90296">
        <ele>385.97</ele>
        <time>2019-09-02T12:43:23Z</time>
      </trkpt>
      <trkpt lat="43.1149" lon="1.90272">
        <ele>383.38</ele>
        <time>2019-09-02T12:43:39Z</time>
      </trkpt>
      <trkpt lat="43.11473" lon="1.90241">
        <ele>380.27</ele>
        <time>2019-09-02T12:43:59Z</time>
      </trkpt>
      <trkpt lat="43.11456" lon="1.90214">
        <ele>377.31</ele>
        <time>2019-09-02T12:44:20Z</time>
      </trkpt>
      <trkpt lat="43.11436" lon="1.90197">
        <ele>374.15</ele>
        <time>2019-09-02T12:44:38Z</time>
      </trkpt>
      <trkpt lat="43.11425" lon="1.90184">
        <ele>371.25</ele>
        <time>2019-09-02T12:44:53Z</time>
      </trkpt>
      <trkpt lat="43.11425" lon="1.90182">
        <ele>371.04</ele>
        <time>2019-09-02T12:44:54Z</time>
      </trkpt>
      <trkpt lat="43.11418" lon="1.90169">
        <ele>370.14</ele>
        <time>2019-09-02T12:45:04Z</time>
      </trkpt>
      <trkpt lat="43.11412" lon="1.90153">
        <ele>369.97</ele>
        <time>2019-09-02T12:45:14Z</time>
      </trkpt>
      <trkpt lat="43.11406" lon="1.90141">
        <ele>370.71</ele>
        <time>2019-09-02T12:45:22Z</time>
      </trkpt>
      <trkpt lat="43.11405" lon="1.9014">
        <ele>370.81</ele>
        <time>2019-09-02T12:45:23Z</time>
      </trkpt>
      <trkpt lat="43.11405" lon="1.90137">
        <ele>370.89</ele>
        <time>2019-09-02T12:45:24Z</time>
      </trkpt>
      <trkpt lat="43.11398" lon="1.90125">
        <ele>371.88</ele>
        <time>2019-09-02T12:45:34Z</time>
      </trkpt>
      <trkpt lat="43.1139" lon="1.90107">
        <ele>373.66</ele>
        <time>2019-09-02T12:45:49Z</time>
      </trkpt>
      <trkpt lat="43.11384" lon="1.90089">
        <ele>376.81</ele>
        <time>2019-09-02T12:46:04Z</time>
      </trkpt>
      <trkpt lat="43.11378" lon="1.90072">
        <ele>379.92</ele>
        <time>2019-09-02T12:46:18Z</time>
      </trkpt>
      <trkpt lat="43.11369" lon="1.90048">
        <ele>382.92</ele>
        <time>2019-09-02T12:46:37Z</time>
      </trkpt>
      <trkpt lat="43.11358" lon="1.90023">
        <ele>385.14</ele>
        <time>2019-09-02T12:46:57Z</time>
      </trkpt>
      <trkpt lat="43.11347" lon="1.89997">
        <ele>386.88</ele>
        <time>2019-09-02T12:47:17Z</time>
      </trkpt>
      <trkpt lat="43.11337" lon="1.89966">
        <ele>387.38</ele>
        <time>2019-09-02T12:47:37Z</time>
      </trkpt>
      <trkpt lat="43.11333" lon="1.89954">
        <ele>387.34</ele>
        <time>2019-09-02T12:47:44Z</time>
      </trkpt>
      <trkpt lat="43.11319" lon="1.89928">
        <ele>386.15</ele>
        <time>2019-09-02T12:48:01Z</time>
      </trkpt>
      <trkpt lat="43.11292" lon="1.89915">
        <ele>383.78</ele>
        <time>2019-09-02T12:48:21Z</time>
      </trkpt>
      <trkpt lat="43.11274" lon="1.89909">
        <ele>382.01</ele>
        <time>2019-09-02T12:48:36Z</time>
      </trkpt>
      <trkpt lat="43.11254" lon="1.89901">
        <ele>382.1</ele>
        <time>2019-09-02T12:48:52Z</time>
      </trkpt>
      <trkpt lat="43.11235" lon="1.89889">
        <ele>381.77</ele>
        <time>2019-09-02T12:49:11Z</time>
      </trkpt>
      <trkpt lat="43.11225" lon="1.89883">
        <ele>383.34</ele>
        <time>2019-09-02T12:49:20Z</time>
      </trkpt>
      <trkpt lat="43.11222" lon="1.89881">
        <ele>383.46</ele>
        <time>2019-09-02T12:49:22Z</time>
      </trkpt>
      <trkpt lat="43.11207" lon="1.89875">
        <ele>381.96</ele>
        <time>2019-09-02T12:49:34Z</time>
      </trkpt>
      <trkpt lat="43.11206" lon="1.89875">
        <ele>381.68</ele>
        <time>2019-09-02T12:49:35Z</time>
      </trkpt>
      <trkpt lat="43.11192" lon="1.89881">
        <ele>378.39</ele>
        <time>2019-09-02T12:49:47Z</time>
      </trkpt>
      <trkpt lat="43.11182" lon="1.89864">
        <ele>375.21</ele>
        <time>2019-09-02T12:50:02Z</time>
      </trkpt>
      <trkpt lat="43.11184" lon="1.89855">
        <ele>372.08</ele>
        <time>2019-09-02T12:50:13Z</time>
      </trkpt>
      <trkpt lat="43.11184" lon="1.89847">
        <ele>371.8</ele>
        <time>2019-09-02T12:50:34Z</time>
      </trkpt>
      <trkpt lat="43.11183" lon="1.89845">
        <ele>371.8</ele>
        <time>2019-09-02T12:50:35Z</time>
      </trkpt>
      <trkpt lat="43.11184" lon="1.89844">
        <ele>371.56</ele>
        <time>2019-09-02T12:50:36Z</time>
      </trkpt>
      <trkpt lat="43.11184" lon="1.89841">
        <ele>371.08</ele>
        <time>2019-09-02T12:50:37Z</time>
      </trkpt>
      <trkpt lat="43.11183" lon="1.8984">
        <ele>370.43</ele>
        <time>2019-09-02T12:50:38Z</time>
      </trkpt>
      <trkpt lat="43.11182" lon="1.89824">
        <ele>367.28</ele>
        <time>2019-09-02T12:50:46Z</time>
      </trkpt>
      <trkpt lat="43.11187" lon="1.898">
        <ele>364.85</ele>
        <time>2019-09-02T12:51:00Z</time>
      </trkpt>
      <trkpt lat="43.11196" lon="1.89778">
        <ele>361.75</ele>
        <time>2019-09-02T12:51:14Z</time>
      </trkpt>
      <trkpt lat="43.11213" lon="1.89743">
        <ele>359.04</ele>
        <time>2019-09-02T12:51:36Z</time>
      </trkpt>
      <trkpt lat="43.11225" lon="1.89718">
        <ele>355.97</ele>
        <time>2019-09-02T12:51:53Z</time>
      </trkpt>
      <trkpt lat="43.11235" lon="1.8969">
        <ele>353.66</ele>
        <time>2019-09-02T12:52:10Z</time>
      </trkpt>
      <trkpt lat="43.11241" lon="1.89674">
        <ele>350.43</ele>
        <time>2019-09-02T12:52:22Z</time>
      </trkpt>
      <trkpt lat="43.11245" lon="1.89654">
        <ele>347.33</ele>
        <time>2019-09-02T12:52:35Z</time>
      </trkpt>
      <trkpt lat="43.11236" lon="1.89649">
        <ele>345.61</ele>
        <time>2019-09-02T12:52:49Z</time>
      </trkpt>
      <trkpt lat="43.11221" lon="1.89665">
        <ele>347.64</ele>
        <time>2019-09-02T12:53:05Z</time>
      </trkpt>
      <trkpt lat="43.1122" lon="1.89666">
        <ele>347.78</ele>
        <time>2019-09-02T12:53:06Z</time>
      </trkpt>
      <trkpt lat="43.11202" lon="1.89668">
        <ele>346.95</ele>
        <time>2019-09-02T12:53:21Z</time>
      </trkpt>
      <trkpt lat="43.1118" lon="1.89661">
        <ele>344.57</ele>
        <time>2019-09-02T12:53:41Z</time>
      </trkpt>
      <trkpt lat="43.11153" lon="1.8965">
        <ele>346.18</ele>
        <time>2019-09-02T12:54:01Z</time>
      </trkpt>
      <trkpt lat="43.11132" lon="1.89645">
        <ele>347.13</ele>
        <time>2019-09-02T12:54:19Z</time>
      </trkpt>
      <trkpt lat="43.11112" lon="1.89655">
        <ele>348.72</ele>
        <time>2019-09-02T12:54:37Z</time>
      </trkpt>
      <trkpt lat="43.11097" lon="1.8969">
        <ele>348.6</ele>
        <time>2019-09-02T12:54:59Z</time>
      </trkpt>
      <trkpt lat="43.11086" lon="1.89712">
        <ele>347.38</ele>
        <time>2019-09-02T12:55:17Z</time>
      </trkpt>
      <trkpt lat="43.11076" lon="1.89718">
        <ele>344.29</ele>
        <time>2019-09-02T12:55:28Z</time>
      </trkpt>
      <trkpt lat="43.11062" lon="1.89724">
        <ele>341.57</ele>
        <time>2019-09-02T12:55:40Z</time>
      </trkpt>
      <trkpt lat="43.1104" lon="1.89722">
        <ele>338.74</ele>
        <time>2019-09-02T12:55:58Z</time>
      </trkpt>
      <trkpt lat="43.11023" lon="1.89724">
        <ele>337.82</ele>
        <time>2019-09-02T12:56:13Z</time>
      </trkpt>
      <trkpt lat="43.11019" lon="1.89725">
        <ele>338.23</ele>
        <time>2019-09-02T12:56:16Z</time>
      </trkpt>
      <trkpt lat="43.11017" lon="1.89726">
        <ele>338.37</ele>
        <time>2019-09-02T12:56:17Z</time>
      </trkpt>
      <trkpt lat="43.10991" lon="1.89729">
        <ele>340.17</ele>
        <time>2019-09-02T12:56:37Z</time>
      </trkpt>
      <trkpt lat="43.10969" lon="1.89729">
        <ele>337.1</ele>
        <time>2019-09-02T12:56:55Z</time>
      </trkpt>
      <trkpt lat="43.10953" lon="1.89728">
        <ele>333.67</ele>
        <time>2019-09-02T12:57:07Z</time>
      </trkpt>
      <trkpt lat="43.10939" lon="1.89728">
        <ele>330.59</ele>
        <time>2019-09-02T12:57:20Z</time>
      </trkpt>
      <trkpt lat="43.10937" lon="1.89727">
        <ele>330.42</ele>
        <time>2019-09-02T12:57:21Z</time>
      </trkpt>
      <trkpt lat="43.10928" lon="1.8971">
        <ele>329.68</ele>
        <time>2019-09-02T12:57:34Z</time>
      </trkpt>
      <trkpt lat="43.10924" lon="1.897">
        <ele>328.75</ele>
        <time>2019-09-02T12:57:41Z</time>
      </trkpt>
      <trkpt lat="43.10916" lon="1.89681">
        <ele>327.44</ele>
        <time>2019-09-02T12:57:54Z</time>
      </trkpt>
      <trkpt lat="43.10912" lon="1.89675">
        <ele>327.18</ele>
        <time>2019-09-02T12:57:58Z</time>
      </trkpt>
      <trkpt lat="43.10907" lon="1.8967">
        <ele>326.8</ele>
        <time>2019-09-02T12:58:01Z</time>
      </trkpt>
      <trkpt lat="43.10905" lon="1.8967">
        <ele>326.67</ele>
        <time>2019-09-02T12:58:02Z</time>
      </trkpt>
      <trkpt lat="43.10904" lon="1.89669">
        <ele>326.55</ele>
        <time>2019-09-02T12:58:03Z</time>
      </trkpt>
      <trkpt lat="43.10894" lon="1.89667">
        <ele>325.91</ele>
        <time>2019-09-02T12:58:11Z</time>
      </trkpt>
      <trkpt lat="43.1089" lon="1.89667">
        <ele>325.79</ele>
        <time>2019-09-02T12:58:14Z</time>
      </trkpt>
      <trkpt lat="43.10874" lon="1.89659">
        <ele>324.04</ele>
        <time>2019-09-02T12:58:29Z</time>
      </trkpt>
      <trkpt lat="43.10872" lon="1.89653">
        <ele>323.2</ele>
        <time>2019-09-02T12:58:34Z</time>
      </trkpt>
      <trkpt lat="43.10866" lon="1.89634">
        <ele>322.75</ele>
        <time>2019-09-02T12:58:47Z</time>
      </trkpt>
      <trkpt lat="43.10854" lon="1.89618">
        <ele>321.99</ele>
        <time>2019-09-02T12:58:59Z</time>
      </trkpt>
      <trkpt lat="43.10846" lon="1.89612">
        <ele>321.61</ele>
        <time>2019-09-02T12:59:07Z</time>
      </trkpt>
      <trkpt lat="43.10845" lon="1.8961">
        <ele>321.61</ele>
        <time>2019-09-02T12:59:08Z</time>
      </trkpt>
      <trkpt lat="43.10844" lon="1.89609">
        <ele>321.61</ele>
        <time>2019-09-02T12:59:09Z</time>
      </trkpt>
      <trkpt lat="43.10843" lon="1.89607">
        <ele>321.61</ele>
        <time>2019-09-02T12:59:10Z</time>
      </trkpt>
      <trkpt lat="43.10842" lon="1.89605">
        <ele>321.57</ele>
        <time>2019-09-02T12:59:11Z</time>
      </trkpt>
      <trkpt lat="43.10831" lon="1.89586">
        <ele>322.67</ele>
        <time>2019-09-02T12:59:27Z</time>
      </trkpt>
      <trkpt lat="43.10821" lon="1.89581">
        <ele>322.24</ele>
        <time>2019-09-02T12:59:35Z</time>
      </trkpt>
      <trkpt lat="43.108" lon="1.89579">
        <ele>324.24</ele>
        <time>2019-09-02T12:59:55Z</time>
      </trkpt>
      <trkpt lat="43.1078" lon="1.89584">
        <ele>325.86</ele>
        <time>2019-09-02T13:00:12Z</time>
      </trkpt>
      <trkpt lat="43.10756" lon="1.89575">
        <ele>325.89</ele>
        <time>2019-09-02T13:00:31Z</time>
      </trkpt>
      <trkpt lat="43.1075" lon="1.89572">
        <ele>326.08</ele>
        <time>2019-09-02T13:00:35Z</time>
      </trkpt>
      <trkpt lat="43.10733" lon="1.89569">
        <ele>326.04</ele>
        <time>2019-09-02T13:00:50Z</time>
      </trkpt>
      <trkpt lat="43.10727" lon="1.89568">
        <ele>325.96</ele>
        <time>2019-09-02T13:00:55Z</time>
      </trkpt>
      <trkpt lat="43.10705" lon="1.89566">
        <ele>325.98</ele>
        <time>2019-09-02T13:01:13Z</time>
      </trkpt>
      <trkpt lat="43.10683" lon="1.89556">
        <ele>327.58</ele>
        <time>2019-09-02T13:01:33Z</time>
      </trkpt>
      <trkpt lat="43.10671" lon="1.89538">
        <ele>329.14</ele>
        <time>2019-09-02T13:01:49Z</time>
      </trkpt>
      <trkpt lat="43.10656" lon="1.89518">
        <ele>328.75</ele>
        <time>2019-09-02T13:02:07Z</time>
      </trkpt>
      <trkpt lat="43.10648" lon="1.89511">
        <ele>328.2</ele>
        <time>2019-09-02T13:02:13Z</time>
      </trkpt>
      <trkpt lat="43.10646" lon="1.8951">
        <ele>328.12</ele>
        <time>2019-09-02T13:02:14Z</time>
      </trkpt>
      <trkpt lat="43.10644" lon="1.89509">
        <ele>327.99</ele>
        <time>2019-09-02T13:02:15Z</time>
      </trkpt>
      <trkpt lat="43.10635" lon="1.89506">
        <ele>327.48</ele>
        <time>2019-09-02T13:02:21Z</time>
      </trkpt>
      <trkpt lat="43.10634" lon="1.89507">
        <ele>327.46</ele>
        <time>2019-09-02T13:02:22Z</time>
      </trkpt>
      <trkpt lat="43.10633" lon="1.89507">
        <ele>327.48</ele>
        <time>2019-09-02T13:02:23Z</time>
      </trkpt>
      <trkpt lat="43.10631" lon="1.89507">
        <ele>327.49</ele>
        <time>2019-09-02T13:02:24Z</time>
      </trkpt>
      <trkpt lat="43.1063" lon="1.89508">
        <ele>327.56</ele>
        <time>2019-09-02T13:02:25Z</time>
      </trkpt>
      <trkpt lat="43.10628" lon="1.89508">
        <ele>327.73</ele>
        <time>2019-09-02T13:02:26Z</time>
      </trkpt>
      <trkpt lat="43.10627" lon="1.89508">
        <ele>327.91</ele>
        <time>2019-09-02T13:02:27Z</time>
      </trkpt>
      <trkpt lat="43.10623" lon="1.8951">
        <ele>327.92</ele>
        <time>2019-09-02T13:02:31Z</time>
      </trkpt>
      <trkpt lat="43.10597" lon="1.89524">
        <ele>327.15</ele>
        <time>2019-09-02T13:02:51Z</time>
      </trkpt>
      <trkpt lat="43.10573" lon="1.89529">
        <ele>327.19</ele>
        <time>2019-09-02T13:03:11Z</time>
      </trkpt>
      <trkpt lat="43.10554" lon="1.89519">
        <ele>329.92</ele>
        <time>2019-09-02T13:03:29Z</time>
      </trkpt>
      <trkpt lat="43.10536" lon="1.89501">
        <ele>332.45</ele>
        <time>2019-09-02T13:03:49Z</time>
      </trkpt>
      <trkpt lat="43.10514" lon="1.89481">
        <ele>334.92</ele>
        <time>2019-09-02T13:04:11Z</time>
      </trkpt>
      <trkpt lat="43.10495" lon="1.89483">
        <ele>335.99</ele>
        <time>2019-09-02T13:04:27Z</time>
      </trkpt>
      <trkpt lat="43.1049" lon="1.89486">
        <ele>335.91</ele>
        <time>2019-09-02T13:04:31Z</time>
      </trkpt>
      <trkpt lat="43.10489" lon="1.89486">
        <ele>335.89</ele>
        <time>2019-09-02T13:04:32Z</time>
      </trkpt>
      <trkpt lat="43.10488" lon="1.89486">
        <ele>335.89</ele>
        <time>2019-09-02T13:04:33Z</time>
      </trkpt>
      <trkpt lat="43.10483" lon="1.89486">
        <ele>336.83</ele>
        <time>2019-09-02T13:04:38Z</time>
      </trkpt>
      <trkpt lat="43.10466" lon="1.89494">
        <ele>338.22</ele>
        <time>2019-09-02T13:04:56Z</time>
      </trkpt>
      <trkpt lat="43.10445" lon="1.89506">
        <ele>340.5</ele>
        <time>2019-09-02T13:05:17Z</time>
      </trkpt>
      <trkpt lat="43.10423" lon="1.89516">
        <ele>342.73</ele>
        <time>2019-09-02T13:05:37Z</time>
      </trkpt>
      <trkpt lat="43.10422" lon="1.89509">
        <ele>344.54</ele>
        <time>2019-09-02T13:05:48Z</time>
      </trkpt>
      <trkpt lat="43.10427" lon="1.89483">
        <ele>347.26</ele>
        <time>2019-09-02T13:06:10Z</time>
      </trkpt>
      <trkpt lat="43.10428" lon="1.8946">
        <ele>348.58</ele>
        <time>2019-09-02T13:06:27Z</time>
      </trkpt>
      <trkpt lat="43.1043" lon="1.89442">
        <ele>350.02</ele>
        <time>2019-09-02T13:06:39Z</time>
      </trkpt>
      <trkpt lat="43.10433" lon="1.89412">
        <ele>351.35</ele>
        <time>2019-09-02T13:06:58Z</time>
      </trkpt>
      <trkpt lat="43.10438" lon="1.89383">
        <ele>353.51</ele>
        <time>2019-09-02T13:07:18Z</time>
      </trkpt>
      <trkpt lat="43.10444" lon="1.89353">
        <ele>356.05</ele>
        <time>2019-09-02T13:07:37Z</time>
      </trkpt>
      <trkpt lat="43.10457" lon="1.89326">
        <ele>357.44</ele>
        <time>2019-09-02T13:07:56Z</time>
      </trkpt>
      <trkpt lat="43.10468" lon="1.89308">
        <ele>358.34</ele>
        <time>2019-09-02T13:08:14Z</time>
      </trkpt>
      <trkpt lat="43.10485" lon="1.89292">
        <ele>360.52</ele>
        <time>2019-09-02T13:08:33Z</time>
      </trkpt>
      <trkpt lat="43.10506" lon="1.89269">
        <ele>362.71</ele>
        <time>2019-09-02T13:08:54Z</time>
      </trkpt>
      <trkpt lat="43.1052" lon="1.8924">
        <ele>363.85</ele>
        <time>2019-09-02T13:09:15Z</time>
      </trkpt>
      <trkpt lat="43.10529" lon="1.89215">
        <ele>364.15</ele>
        <time>2019-09-02T13:09:32Z</time>
      </trkpt>
      <trkpt lat="43.10539" lon="1.89189">
        <ele>362.9</ele>
        <time>2019-09-02T13:09:49Z</time>
      </trkpt>
      <trkpt lat="43.10552" lon="1.89166">
        <ele>361.49</ele>
        <time>2019-09-02T13:10:05Z</time>
      </trkpt>
      <trkpt lat="43.10567" lon="1.89149">
        <ele>360.13</ele>
        <time>2019-09-02T13:10:22Z</time>
      </trkpt>
      <trkpt lat="43.10585" lon="1.89129">
        <ele>359.41</ele>
        <time>2019-09-02T13:10:38Z</time>
      </trkpt>
      <trkpt lat="43.10586" lon="1.89128">
        <ele>359.38</ele>
        <time>2019-09-02T13:10:39Z</time>
      </trkpt>
      <trkpt lat="43.10587" lon="1.89126">
        <ele>359.36</ele>
        <time>2019-09-02T13:10:40Z</time>
      </trkpt>
      <trkpt lat="43.10588" lon="1.89125">
        <ele>359.34</ele>
        <time>2019-09-02T13:10:41Z</time>
      </trkpt>
      <trkpt lat="43.10589" lon="1.89124">
        <ele>359.31</ele>
        <time>2019-09-02T13:10:42Z</time>
      </trkpt>
      <trkpt lat="43.10607" lon="1.89109">
        <ele>358.87</ele>
        <time>2019-09-02T13:11:00Z</time>
      </trkpt>
      <trkpt lat="43.10619" lon="1.89094">
        <ele>357.24</ele>
        <time>2019-09-02T13:11:16Z</time>
      </trkpt>
      <trkpt lat="43.10626" lon="1.89088">
        <ele>354.21</ele>
        <time>2019-09-02T13:11:28Z</time>
      </trkpt>
      <trkpt lat="43.10641" lon="1.8907">
        <ele>351.9</ele>
        <time>2019-09-02T13:11:47Z</time>
      </trkpt>
      <trkpt lat="43.1065" lon="1.89045">
        <ele>348.85</ele>
        <time>2019-09-02T13:12:02Z</time>
      </trkpt>
      <trkpt lat="43.10655" lon="1.8902">
        <ele>345.71</ele>
        <time>2019-09-02T13:12:18Z</time>
      </trkpt>
      <trkpt lat="43.10655" lon="1.89016">
        <ele>345.26</ele>
        <time>2019-09-02T13:12:20Z</time>
      </trkpt>
      <trkpt lat="43.10653" lon="1.88995">
        <ele>342.74</ele>
        <time>2019-09-02T13:12:34Z</time>
      </trkpt>
      <trkpt lat="43.10642" lon="1.88985">
        <ele>340.52</ele>
        <time>2019-09-02T13:12:44Z</time>
      </trkpt>
      <trkpt lat="43.10627" lon="1.88983">
        <ele>339.31</ele>
        <time>2019-09-02T13:12:56Z</time>
      </trkpt>
      <trkpt lat="43.10625" lon="1.88983">
        <ele>339.16</ele>
        <time>2019-09-02T13:12:57Z</time>
      </trkpt>
      <trkpt lat="43.10603" lon="1.88983">
        <ele>336.57</ele>
        <time>2019-09-02T13:13:14Z</time>
      </trkpt>
      <trkpt lat="43.10583" lon="1.8898">
        <ele>334.94</ele>
        <time>2019-09-02T13:13:31Z</time>
      </trkpt>
      <trkpt lat="43.10558" lon="1.88977">
        <ele>334.25</ele>
        <time>2019-09-02T13:13:50Z</time>
      </trkpt>
      <trkpt lat="43.10542" lon="1.88972">
        <ele>333.66</ele>
        <time>2019-09-02T13:14:04Z</time>
      </trkpt>
      <trkpt lat="43.1053" lon="1.88961">
        <ele>332.9</ele>
        <time>2019-09-02T13:14:19Z</time>
      </trkpt>
      <trkpt lat="43.10534" lon="1.8896">
        <ele>332.98</ele>
        <time>2019-09-02T13:14:23Z</time>
      </trkpt>
      <trkpt lat="43.10551" lon="1.8894">
        <ele>333.33</ele>
        <time>2019-09-02T13:14:42Z</time>
      </trkpt>
      <trkpt lat="43.10565" lon="1.88914">
        <ele>332.53</ele>
        <time>2019-09-02T13:15:02Z</time>
      </trkpt>
      <trkpt lat="43.10579" lon="1.88893">
        <ele>332.47</ele>
        <time>2019-09-02T13:15:19Z</time>
      </trkpt>
      <trkpt lat="43.10592" lon="1.8887">
        <ele>333.04</ele>
        <time>2019-09-02T13:15:36Z</time>
      </trkpt>
      <trkpt lat="43.10608" lon="1.88845">
        <ele>334.59</ele>
        <time>2019-09-02T13:15:55Z</time>
      </trkpt>
      <trkpt lat="43.10618" lon="1.88822">
        <ele>336.01</ele>
        <time>2019-09-02T13:16:14Z</time>
      </trkpt>
      <trkpt lat="43.10629" lon="1.88795">
        <ele>338.9</ele>
        <time>2019-09-02T13:16:33Z</time>
      </trkpt>
      <trkpt lat="43.10642" lon="1.88762">
        <ele>341.24</ele>
        <time>2019-09-02T13:16:58Z</time>
      </trkpt>
      <trkpt lat="43.10657" lon="1.88731">
        <ele>343.9</ele>
        <time>2019-09-02T13:17:23Z</time>
      </trkpt>
      <trkpt lat="43.10671" lon="1.88708">
        <ele>346.42</ele>
        <time>2019-09-02T13:17:44Z</time>
      </trkpt>
      <trkpt lat="43.10684" lon="1.88686">
        <ele>348.36</ele>
        <time>2019-09-02T13:18:03Z</time>
      </trkpt>
      <trkpt lat="43.10697" lon="1.88663">
        <ele>351.13</ele>
        <time>2019-09-02T13:18:21Z</time>
      </trkpt>
      <trkpt lat="43.10697" lon="1.88661">
        <ele>351.29</ele>
        <time>2019-09-02T13:18:22Z</time>
      </trkpt>
      <trkpt lat="43.10699" lon="1.88653">
        <ele>352.5</ele>
        <time>2019-09-02T13:18:36Z</time>
      </trkpt>
      <trkpt lat="43.10702" lon="1.88645">
        <ele>352.33</ele>
        <time>2019-09-02T13:18:56Z</time>
      </trkpt>
      <trkpt lat="43.10701" lon="1.88641">
        <ele>354.14</ele>
        <time>2019-09-02T13:19:18Z</time>
      </trkpt>
      <trkpt lat="43.10701" lon="1.88627">
        <ele>354.11</ele>
        <time>2019-09-02T13:19:36Z</time>
      </trkpt>
      <trkpt lat="43.10701" lon="1.8861">
        <ele>355.44</ele>
        <time>2019-09-02T13:19:55Z</time>
      </trkpt>
      <trkpt lat="43.10704" lon="1.88585">
        <ele>356.99</ele>
        <time>2019-09-02T13:20:16Z</time>
      </trkpt>
      <trkpt lat="43.10708" lon="1.88571">
        <ele>357.71</ele>
        <time>2019-09-02T13:20:27Z</time>
      </trkpt>
      <trkpt lat="43.1072" lon="1.88542">
        <ele>359.96</ele>
        <time>2019-09-02T13:20:48Z</time>
      </trkpt>
      <trkpt lat="43.10733" lon="1.88523">
        <ele>361.41</ele>
        <time>2019-09-02T13:21:06Z</time>
      </trkpt>
      <trkpt lat="43.1075" lon="1.88524">
        <ele>362.91</ele>
        <time>2019-09-02T13:21:24Z</time>
      </trkpt>
      <trkpt lat="43.10754" lon="1.88525">
        <ele>362.86</ele>
        <time>2019-09-02T13:21:27Z</time>
      </trkpt>
      <trkpt lat="43.10756" lon="1.88525">
        <ele>362.85</ele>
        <time>2019-09-02T13:21:28Z</time>
      </trkpt>
      <trkpt lat="43.10757" lon="1.88526">
        <ele>362.85</ele>
        <time>2019-09-02T13:21:29Z</time>
      </trkpt>
      <trkpt lat="43.10774" lon="1.88515">
        <ele>362.38</ele>
        <time>2019-09-02T13:21:44Z</time>
      </trkpt>
      <trkpt lat="43.1079" lon="1.88498">
        <ele>362.62</ele>
        <time>2019-09-02T13:22:01Z</time>
      </trkpt>
      <trkpt lat="43.1081" lon="1.88478">
        <ele>362.76</ele>
        <time>2019-09-02T13:22:19Z</time>
      </trkpt>
      <trkpt lat="43.10823" lon="1.88458">
        <ele>363.85</ele>
        <time>2019-09-02T13:22:36Z</time>
      </trkpt>
      <trkpt lat="43.10843" lon="1.88439">
        <ele>363.66</ele>
        <time>2019-09-02T13:22:54Z</time>
      </trkpt>
      <trkpt lat="43.10865" lon="1.88414">
        <ele>363.82</ele>
        <time>2019-09-02T13:23:16Z</time>
      </trkpt>
      <trkpt lat="43.10879" lon="1.88398">
        <ele>364.3</ele>
        <time>2019-09-02T13:23:31Z</time>
      </trkpt>
      <trkpt lat="43.10894" lon="1.88381">
        <ele>364.55</ele>
        <time>2019-09-02T13:23:47Z</time>
      </trkpt>
      <trkpt lat="43.10909" lon="1.88362">
        <ele>364.39</ele>
        <time>2019-09-02T13:24:05Z</time>
      </trkpt>
      <trkpt lat="43.1091" lon="1.8836">
        <ele>364.27</ele>
        <time>2019-09-02T13:24:23Z</time>
      </trkpt>
      <trkpt lat="43.10909" lon="1.88358">
        <ele>364.33</ele>
        <time>2019-09-02T13:24:26Z</time>
      </trkpt>
      <trkpt lat="43.10905" lon="1.88354">
        <ele>364.21</ele>
        <time>2019-09-02T13:24:30Z</time>
      </trkpt>
      <trkpt lat="43.10905" lon="1.88353">
        <ele>364.15</ele>
        <time>2019-09-02T13:24:31Z</time>
      </trkpt>
      <trkpt lat="43.10885" lon="1.88335">
        <ele>363.17</ele>
        <time>2019-09-02T13:24:49Z</time>
      </trkpt>
      <trkpt lat="43.10858" lon="1.88315">
        <ele>360.13</ele>
        <time>2019-09-02T13:25:13Z</time>
      </trkpt>
      <trkpt lat="43.1084" lon="1.88303">
        <ele>357.02</ele>
        <time>2019-09-02T13:25:28Z</time>
      </trkpt>
      <trkpt lat="43.10818" lon="1.8829">
        <ele>354.01</ele>
        <time>2019-09-02T13:25:47Z</time>
      </trkpt>
      <trkpt lat="43.10802" lon="1.88282">
        <ele>350.96</ele>
        <time>2019-09-02T13:26:00Z</time>
      </trkpt>
      <trkpt lat="43.10777" lon="1.88267">
        <ele>347.88</ele>
        <time>2019-09-02T13:26:20Z</time>
      </trkpt>
      <trkpt lat="43.10751" lon="1.88254">
        <ele>346.58</ele>
        <time>2019-09-02T13:26:42Z</time>
      </trkpt>
      <trkpt lat="43.10721" lon="1.88238">
        <ele>345.14</ele>
        <time>2019-09-02T13:27:07Z</time>
      </trkpt>
      <trkpt lat="43.10696" lon="1.88225">
        <ele>343.82</ele>
        <time>2019-09-02T13:27:28Z</time>
      </trkpt>
      <trkpt lat="43.10674" lon="1.88217">
        <ele>343.36</ele>
        <time>2019-09-02T13:27:47Z</time>
      </trkpt>
      <trkpt lat="43.10663" lon="1.88212">
        <ele>342.22</ele>
        <time>2019-09-02T13:27:57Z</time>
      </trkpt>
      <trkpt lat="43.10662" lon="1.88211">
        <ele>342.1</ele>
        <time>2019-09-02T13:27:58Z</time>
      </trkpt>
      <trkpt lat="43.10645" lon="1.88203">
        <ele>340.76</ele>
        <time>2019-09-02T13:28:14Z</time>
      </trkpt>
      <trkpt lat="43.10641" lon="1.88199">
        <ele>340.58</ele>
        <time>2019-09-02T13:28:17Z</time>
      </trkpt>
      <trkpt lat="43.10639" lon="1.88198">
        <ele>340.52</ele>
        <time>2019-09-02T13:28:18Z</time>
      </trkpt>
      <trkpt lat="43.1061" lon="1.88182">
        <ele>338.67</ele>
        <time>2019-09-02T13:28:40Z</time>
      </trkpt>
      <trkpt lat="43.10584" lon="1.88166">
        <ele>335.48</ele>
        <time>2019-09-02T13:29:01Z</time>
      </trkpt>
      <trkpt lat="43.10555" lon="1.88149">
        <ele>334.28</ele>
        <time>2019-09-02T13:29:25Z</time>
      </trkpt>
      <trkpt lat="43.10529" lon="1.88132">
        <ele>332.62</ele>
        <time>2019-09-02T13:29:49Z</time>
      </trkpt>
      <trkpt lat="43.10526" lon="1.88132">
        <ele>332.41</ele>
        <time>2019-09-02T13:29:52Z</time>
      </trkpt>
      <trkpt lat="43.10517" lon="1.88138">
        <ele>332.34</ele>
        <time>2019-09-02T13:30:03Z</time>
      </trkpt>
      <trkpt lat="43.10507" lon="1.88154">
        <ele>331.98</ele>
        <time>2019-09-02T13:30:17Z</time>
      </trkpt>
      <trkpt lat="43.10489" lon="1.88172">
        <ele>331.53</ele>
        <time>2019-09-02T13:30:34Z</time>
      </trkpt>
      <trkpt lat="43.10482" lon="1.88168">
        <ele>330.92</ele>
        <time>2019-09-02T13:30:45Z</time>
      </trkpt>
      <trkpt lat="43.10476" lon="1.88163">
        <ele>330.82</ele>
        <time>2019-09-02T13:31:03Z</time>
      </trkpt>
      <trkpt lat="43.10475" lon="1.88162">
        <ele>330.82</ele>
        <time>2019-09-02T13:31:04Z</time>
      </trkpt>
      <trkpt lat="43.10472" lon="1.88159">
        <ele>330.57</ele>
        <time>2019-09-02T13:31:08Z</time>
      </trkpt>
      <trkpt lat="43.10471" lon="1.88158">
        <ele>330.98</ele>
        <time>2019-09-02T13:31:09Z</time>
      </trkpt>
      <trkpt lat="43.1047" lon="1.88157">
        <ele>331.53</ele>
        <time>2019-09-02T13:31:10Z</time>
      </trkpt>
      <trkpt lat="43.10458" lon="1.88143">
        <ele>332.25</ele>
        <time>2019-09-02T13:31:27Z</time>
      </trkpt>
      <trkpt lat="43.1044" lon="1.88127">
        <ele>333.87</ele>
        <time>2019-09-02T13:31:47Z</time>
      </trkpt>
      <trkpt lat="43.10418" lon="1.88115">
        <ele>336.36</ele>
        <time>2019-09-02T13:32:11Z</time>
      </trkpt>
      <trkpt lat="43.104" lon="1.88104">
        <ele>338.19</ele>
        <time>2019-09-02T13:32:30Z</time>
      </trkpt>
      <trkpt lat="43.10387" lon="1.88094">
        <ele>340.76</ele>
        <time>2019-09-02T13:32:47Z</time>
      </trkpt>
      <trkpt lat="43.10371" lon="1.88085">
        <ele>343.8</ele>
        <time>2019-09-02T13:33:03Z</time>
      </trkpt>
      <trkpt lat="43.10346" lon="1.88077">
        <ele>346.18</ele>
        <time>2019-09-02T13:33:27Z</time>
      </trkpt>
      <trkpt lat="43.10322" lon="1.88068">
        <ele>348.66</ele>
        <time>2019-09-02T13:33:51Z</time>
      </trkpt>
      <trkpt lat="43.10302" lon="1.88062">
        <ele>351.61</ele>
        <time>2019-09-02T13:34:13Z</time>
      </trkpt>
      <trkpt lat="43.10289" lon="1.88055">
        <ele>354.57</ele>
        <time>2019-09-02T13:34:31Z</time>
      </trkpt>
      <trkpt lat="43.10275" lon="1.88047">
        <ele>357.61</ele>
        <time>2019-09-02T13:34:47Z</time>
      </trkpt>
      <trkpt lat="43.10257" lon="1.88033">
        <ele>355.88</ele>
        <time>2019-09-02T13:35:08Z</time>
      </trkpt>
      <trkpt lat="43.10253" lon="1.8803">
        <ele>355.22</ele>
        <time>2019-09-02T13:35:13Z</time>
      </trkpt>
      <trkpt lat="43.1025" lon="1.88026">
        <ele>355.02</ele>
        <time>2019-09-02T13:35:17Z</time>
      </trkpt>
      <trkpt lat="43.10247" lon="1.88022">
        <ele>354.84</ele>
        <time>2019-09-02T13:35:37Z</time>
      </trkpt>
      <trkpt lat="43.10246" lon="1.88022">
        <ele>354.42</ele>
        <time>2019-09-02T13:36:39Z</time>
      </trkpt>
      <trkpt lat="43.10253" lon="1.88023">
        <ele>354.42</ele>
        <time>2019-09-02T13:37:09Z</time>
      </trkpt>
      <trkpt lat="43.10255" lon="1.88025">
        <ele>354.42</ele>
        <time>2019-09-02T13:37:34Z</time>
      </trkpt>
      <trkpt lat="43.10255" lon="1.88029">
        <ele>354.42</ele>
        <time>2019-09-02T13:37:59Z</time>
      </trkpt>
      <trkpt lat="43.10255" lon="1.88028">
        <ele>354.42</ele>
        <time>2019-09-02T13:38:28Z</time>
      </trkpt>
      <trkpt lat="43.10255" lon="1.88027">
        <ele>354.42</ele>
        <time>2019-09-02T13:38:55Z</time>
      </trkpt>
      <trkpt lat="43.10254" lon="1.88025">
        <ele>354.42</ele>
        <time>2019-09-02T13:39:20Z</time>
      </trkpt>
      <trkpt lat="43.10254" lon="1.88025">
        <ele>354.42</ele>
        <time>2019-09-02T13:39:47Z</time>
      </trkpt>
      <trkpt lat="43.10253" lon="1.88024">
        <ele>354.42</ele>
        <time>2019-09-02T13:40:41Z</time>
      </trkpt>
      <trkpt lat="43.10254" lon="1.88023">
        <ele>354.42</ele>
        <time>2019-09-02T13:42:14Z</time>
      </trkpt>
      <trkpt lat="43.10256" lon="1.88026">
        <ele>354.42</ele>
        <time>2019-09-02T13:43:20Z</time>
      </trkpt>
      <trkpt lat="43.10255" lon="1.88025">
        <ele>354.42</ele>
        <time>2019-09-02T13:44:07Z</time>
      </trkpt>
      <trkpt lat="43.10255" lon="1.88027">
        <ele>354.42</ele>
        <time>2019-09-02T13:45:10Z</time>
      </trkpt>
      <trkpt lat="43.10255" lon="1.88027">
        <ele>354.42</ele>
        <time>2019-09-02T13:45:51Z</time>
      </trkpt>
      <trkpt lat="43.10255" lon="1.88027">
        <ele>354.42</ele>
        <time>2019-09-02T13:46:48Z</time>
      </trkpt>
      <trkpt lat="43.10255" lon="1.88027">
        <ele>354.42</ele>
        <time>2019-09-02T13:47:34Z</time>
      </trkpt>
      <trkpt lat="43.10255" lon="1.88025">
        <ele>354.42</ele>
        <time>2019-09-02T13:48:09Z</time>
      </trkpt>
      <trkpt lat="43.10254" lon="1.88023">
        <ele>354.42</ele>
        <time>2019-09-02T13:49:01Z</time>
      </trkpt>
      <trkpt lat="43.10254" lon="1.88025">
        <ele>354.42</ele>
        <time>2019-09-02T13:49:25Z</time>
      </trkpt>
      <trkpt lat="43.10254" lon="1.88025">
        <ele>354.42</ele>
        <time>2019-09-02T13:49:55Z</time>
      </trkpt>
      <trkpt lat="43.10254" lon="1.88025">
        <ele>354.42</ele>
        <time>2019-09-02T13:50:29Z</time>
      </trkpt>
      <trkpt lat="43.10253" lon="1.88023">
        <ele>354.42</ele>
        <time>2019-09-02T13:50:59Z</time>
      </trkpt>
      <trkpt lat="43.10253" lon="1.88023">
        <ele>354.42</ele>
        <time>2019-09-02T13:51:31Z</time>
      </trkpt>
      <trkpt lat="43.10253" lon="1.88022">
        <ele>354.42</ele>
        <time>2019-09-02T13:52:07Z</time>
      </trkpt>
      <trkpt lat="43.10255" lon="1.88025">
        <ele>354.42</ele>
        <time>2019-09-02T13:52:36Z</time>
      </trkpt>
      <trkpt lat="43.10257" lon="1.88026">
        <ele>354.42</ele>
        <time>2019-09-02T13:53:12Z</time>
      </trkpt>
      <trkpt lat="43.10258" lon="1.88026">
        <ele>354.42</ele>
        <time>2019-09-02T13:53:30Z</time>
      </trkpt>
      <trkpt lat="43.10258" lon="1.88025">
        <ele>354.42</ele>
        <time>2019-09-02T13:53:44Z</time>
      </trkpt>
      <trkpt lat="43.10256" lon="1.88027">
        <ele>354.42</ele>
        <time>2019-09-02T13:54:11Z</time>
      </trkpt>
      <trkpt lat="43.10254" lon="1.88029">
        <ele>354.42</ele>
        <time>2019-09-02T13:54:44Z</time>
      </trkpt>
      <trkpt lat="43.10255" lon="1.88028">
        <ele>354.42</ele>
        <time>2019-09-02T13:55:33Z</time>
      </trkpt>
      <trkpt lat="43.10255" lon="1.88026">
        <ele>354.42</ele>
        <time>2019-09-02T13:55:56Z</time>
      </trkpt>
      <trkpt lat="43.10248" lon="1.88019">
        <ele>354.42</ele>
        <time>2019-09-02T13:56:12Z</time>
      </trkpt>
      <trkpt lat="43.10249" lon="1.88019">
        <ele>354.42</ele>
        <time>2019-09-02T13:57:04Z</time>
      </trkpt>
      <trkpt lat="43.10248" lon="1.88017">
        <ele>354.42</ele>
        <time>2019-09-02T13:57:46Z</time>
      </trkpt>
      <trkpt lat="43.10245" lon="1.88023">
        <ele>354.42</ele>
        <time>2019-09-02T13:58:13Z</time>
      </trkpt>
      <trkpt lat="43.10244" lon="1.88024">
        <ele>354.42</ele>
        <time>2019-09-02T13:58:14Z</time>
      </trkpt>
      <trkpt lat="43.10242" lon="1.88024">
        <ele>354.51</ele>
        <time>2019-09-02T13:58:15Z</time>
      </trkpt>
      <trkpt lat="43.10237" lon="1.88026">
        <ele>354.92</ele>
        <time>2019-09-02T13:58:20Z</time>
      </trkpt>
      <trkpt lat="43.10235" lon="1.88027">
        <ele>354.73</ele>
        <time>2019-09-02T13:58:21Z</time>
      </trkpt>
      <trkpt lat="43.10213" lon="1.88032">
        <ele>353.55</ele>
        <time>2019-09-02T13:58:40Z</time>
      </trkpt>
      <trkpt lat="43.10199" lon="1.88032">
        <ele>352.34</ele>
        <time>2019-09-02T13:58:54Z</time>
      </trkpt>
      <trkpt lat="43.10178" lon="1.88027">
        <ele>352.03</ele>
        <time>2019-09-02T13:59:12Z</time>
      </trkpt>
      <trkpt lat="43.1016" lon="1.88018">
        <ele>350.88</ele>
        <time>2019-09-02T13:59:27Z</time>
      </trkpt>
      <trkpt lat="43.10136" lon="1.88004">
        <ele>348.56</ele>
        <time>2019-09-02T13:59:46Z</time>
      </trkpt>
      <trkpt lat="43.10115" lon="1.88006">
        <ele>346.34</ele>
        <time>2019-09-02T14:00:03Z</time>
      </trkpt>
      <trkpt lat="43.10098" lon="1.88009">
        <ele>344.86</ele>
        <time>2019-09-02T14:00:16Z</time>
      </trkpt>
      <trkpt lat="43.10096" lon="1.88008">
        <ele>344.68</ele>
        <time>2019-09-02T14:00:17Z</time>
      </trkpt>
      <trkpt lat="43.10095" lon="1.88007">
        <ele>344.5</ele>
        <time>2019-09-02T14:00:18Z</time>
      </trkpt>
      <trkpt lat="43.10094" lon="1.88004">
        <ele>343.88</ele>
        <time>2019-09-02T14:00:21Z</time>
      </trkpt>
      <trkpt lat="43.10094" lon="1.88003">
        <ele>343.67</ele>
        <time>2019-09-02T14:00:22Z</time>
      </trkpt>
      <trkpt lat="43.10094" lon="1.88002">
        <ele>343.48</ele>
        <time>2019-09-02T14:00:23Z</time>
      </trkpt>
      <trkpt lat="43.101" lon="1.8799">
        <ele>340.28</ele>
        <time>2019-09-02T14:00:34Z</time>
      </trkpt>
      <trkpt lat="43.1011" lon="1.87975">
        <ele>337.12</ele>
        <time>2019-09-02T14:00:46Z</time>
      </trkpt>
      <trkpt lat="43.10121" lon="1.8796">
        <ele>334.92</ele>
        <time>2019-09-02T14:00:57Z</time>
      </trkpt>
      <trkpt lat="43.10122" lon="1.87959">
        <ele>334.73</ele>
        <time>2019-09-02T14:00:58Z</time>
      </trkpt>
      <trkpt lat="43.10136" lon="1.8794">
        <ele>331.56</ele>
        <time>2019-09-02T14:01:12Z</time>
      </trkpt>
      <trkpt lat="43.10152" lon="1.87908">
        <ele>328.42</ele>
        <time>2019-09-02T14:01:32Z</time>
      </trkpt>
      <trkpt lat="43.1015" lon="1.87888">
        <ele>326.85</ele>
        <time>2019-09-02T14:01:45Z</time>
      </trkpt>
      <trkpt lat="43.10134" lon="1.87865">
        <ele>324.34</ele>
        <time>2019-09-02T14:02:02Z</time>
      </trkpt>
      <trkpt lat="43.10117" lon="1.8784">
        <ele>322.06</ele>
        <time>2019-09-02T14:02:21Z</time>
      </trkpt>
      <trkpt lat="43.10103" lon="1.87818">
        <ele>320.49</ele>
        <time>2019-09-02T14:02:39Z</time>
      </trkpt>
      <trkpt lat="43.10089" lon="1.878">
        <ele>319.06</ele>
        <time>2019-09-02T14:02:53Z</time>
      </trkpt>
      <trkpt lat="43.10083" lon="1.87794">
        <ele>318.84</ele>
        <time>2019-09-02T14:02:58Z</time>
      </trkpt>
      <trkpt lat="43.10081" lon="1.87792">
        <ele>318.76</ele>
        <time>2019-09-02T14:02:59Z</time>
      </trkpt>
      <trkpt lat="43.10061" lon="1.87776">
        <ele>316.87</ele>
        <time>2019-09-02T14:03:16Z</time>
      </trkpt>
      <trkpt lat="43.10038" lon="1.87762">
        <ele>314.53</ele>
        <time>2019-09-02T14:03:35Z</time>
      </trkpt>
      <trkpt lat="43.10016" lon="1.87752">
        <ele>311.48</ele>
        <time>2019-09-02T14:03:53Z</time>
      </trkpt>
      <trkpt lat="43.09997" lon="1.87743">
        <ele>309.42</ele>
        <time>2019-09-02T14:04:11Z</time>
      </trkpt>
      <trkpt lat="43.09976" lon="1.87729">
        <ele>308.17</ele>
        <time>2019-09-02T14:04:30Z</time>
      </trkpt>
      <trkpt lat="43.09952" lon="1.87723">
        <ele>306.74</ele>
        <time>2019-09-02T14:04:49Z</time>
      </trkpt>
      <trkpt lat="43.09929" lon="1.87711">
        <ele>305.52</ele>
        <time>2019-09-02T14:05:07Z</time>
      </trkpt>
      <trkpt lat="43.09914" lon="1.87692">
        <ele>302.86</ele>
        <time>2019-09-02T14:05:25Z</time>
      </trkpt>
      <trkpt lat="43.09912" lon="1.87686">
        <ele>302.3</ele>
        <time>2019-09-02T14:05:28Z</time>
      </trkpt>
      <trkpt lat="43.09912" lon="1.87661">
        <ele>302</ele>
        <time>2019-09-02T14:05:44Z</time>
      </trkpt>
      <trkpt lat="43.09907" lon="1.87649">
        <ele>300.83</ele>
        <time>2019-09-02T14:05:52Z</time>
      </trkpt>
      <trkpt lat="43.09905" lon="1.87646">
        <ele>300.77</ele>
        <time>2019-09-02T14:05:54Z</time>
      </trkpt>
      <trkpt lat="43.09904" lon="1.87645">
        <ele>300.7</ele>
        <time>2019-09-02T14:05:55Z</time>
      </trkpt>
      <trkpt lat="43.09886" lon="1.87614">
        <ele>299.17</ele>
        <time>2019-09-02T14:06:15Z</time>
      </trkpt>
      <trkpt lat="43.09865" lon="1.87588">
        <ele>299.02</ele>
        <time>2019-09-02T14:06:34Z</time>
      </trkpt>
      <trkpt lat="43.09848" lon="1.87573">
        <ele>298.66</ele>
        <time>2019-09-02T14:06:52Z</time>
      </trkpt>
      <trkpt lat="43.0982" lon="1.87547">
        <ele>298.76</ele>
        <time>2019-09-02T14:07:14Z</time>
      </trkpt>
      <trkpt lat="43.09802" lon="1.8753">
        <ele>298.61</ele>
        <time>2019-09-02T14:07:32Z</time>
      </trkpt>
      <trkpt lat="43.09777" lon="1.87506">
        <ele>298.7</ele>
        <time>2019-09-02T14:07:53Z</time>
      </trkpt>
      <trkpt lat="43.09754" lon="1.87496">
        <ele>297.64</ele>
        <time>2019-09-02T14:08:12Z</time>
      </trkpt>
      <trkpt lat="43.09722" lon="1.87486">
        <ele>296.99</ele>
        <time>2019-09-02T14:08:34Z</time>
      </trkpt>
      <trkpt lat="43.09694" lon="1.87475">
        <ele>296.61</ele>
        <time>2019-09-02T14:08:55Z</time>
      </trkpt>
      <trkpt lat="43.09672" lon="1.87466">
        <ele>296.96</ele>
        <time>2019-09-02T14:09:12Z</time>
      </trkpt>
      <trkpt lat="43.09652" lon="1.87467">
        <ele>297.92</ele>
        <time>2019-09-02T14:09:28Z</time>
      </trkpt>
      <trkpt lat="43.09648" lon="1.87492">
        <ele>298.17</ele>
        <time>2019-09-02T14:09:44Z</time>
      </trkpt>
      <trkpt lat="43.09648" lon="1.87496">
        <ele>298.28</ele>
        <time>2019-09-02T14:09:46Z</time>
      </trkpt>
      <trkpt lat="43.09648" lon="1.87521">
        <ele>298.98</ele>
        <time>2019-09-02T14:10:01Z</time>
      </trkpt>
      <trkpt lat="43.09647" lon="1.87542">
        <ele>299.17</ele>
        <time>2019-09-02T14:10:11Z</time>
      </trkpt>
      <trkpt lat="43.09646" lon="1.87544">
        <ele>299.18</ele>
        <time>2019-09-02T14:10:12Z</time>
      </trkpt>
      <trkpt lat="43.09645" lon="1.87572">
        <ele>299.33</ele>
        <time>2019-09-02T14:10:28Z</time>
      </trkpt>
      <trkpt lat="43.09642" lon="1.87591">
        <ele>300.36</ele>
        <time>2019-09-02T14:10:40Z</time>
      </trkpt>
      <trkpt lat="43.09642" lon="1.87593">
        <ele>300.33</ele>
        <time>2019-09-02T14:10:41Z</time>
      </trkpt>
      <trkpt lat="43.09617" lon="1.87615">
        <ele>300.43</ele>
        <time>2019-09-02T14:11:02Z</time>
      </trkpt>
      <trkpt lat="43.09596" lon="1.87616">
        <ele>300.82</ele>
        <time>2019-09-02T14:11:19Z</time>
      </trkpt>
      <trkpt lat="43.09574" lon="1.87617">
        <ele>301.5</ele>
        <time>2019-09-02T14:11:35Z</time>
      </trkpt>
      <trkpt lat="43.09548" lon="1.87617">
        <ele>301.91</ele>
        <time>2019-09-02T14:11:54Z</time>
      </trkpt>
      <trkpt lat="43.0952" lon="1.87616">
        <ele>302.23</ele>
        <time>2019-09-02T14:12:16Z</time>
      </trkpt>
      <trkpt lat="43.09498" lon="1.87616">
        <ele>302.41</ele>
        <time>2019-09-02T14:12:32Z</time>
      </trkpt>
      <trkpt lat="43.09465" lon="1.87616">
        <ele>302.62</ele>
        <time>2019-09-02T14:12:56Z</time>
      </trkpt>
      <trkpt lat="43.09435" lon="1.87615">
        <ele>302.37</ele>
        <time>2019-09-02T14:13:19Z</time>
      </trkpt>
      <trkpt lat="43.09401" lon="1.87615">
        <ele>303.63</ele>
        <time>2019-09-02T14:13:45Z</time>
      </trkpt>
      <trkpt lat="43.09364" lon="1.87616">
        <ele>303.09</ele>
        <time>2019-09-02T14:14:13Z</time>
      </trkpt>
      <trkpt lat="43.09325" lon="1.87616">
        <ele>302.97</ele>
        <time>2019-09-02T14:14:42Z</time>
      </trkpt>
      <trkpt lat="43.09283" lon="1.87615">
        <ele>302.7</ele>
        <time>2019-09-02T14:15:13Z</time>
      </trkpt>
      <trkpt lat="43.0925" lon="1.87613">
        <ele>302.79</ele>
        <time>2019-09-02T14:15:37Z</time>
      </trkpt>
      <trkpt lat="43.09231" lon="1.87612">
        <ele>302.96</ele>
        <time>2019-09-02T14:15:52Z</time>
      </trkpt>
      <trkpt lat="43.0921" lon="1.87612">
        <ele>302.81</ele>
        <time>2019-09-02T14:16:10Z</time>
      </trkpt>
      <trkpt lat="43.09185" lon="1.8761">
        <ele>303.05</ele>
        <time>2019-09-02T14:16:28Z</time>
      </trkpt>
      <trkpt lat="43.09159" lon="1.87614">
        <ele>303.65</ele>
        <time>2019-09-02T14:16:47Z</time>
      </trkpt>
      <trkpt lat="43.09131" lon="1.87612">
        <ele>303.73</ele>
        <time>2019-09-02T14:17:09Z</time>
      </trkpt>
      <trkpt lat="43.091" lon="1.87611">
        <ele>304.6</ele>
        <time>2019-09-02T14:17:33Z</time>
      </trkpt>
      <trkpt lat="43.09071" lon="1.87614">
        <ele>304.16</ele>
        <time>2019-09-02T14:17:55Z</time>
      </trkpt>
      <trkpt lat="43.09047" lon="1.87614">
        <ele>304.17</ele>
        <time>2019-09-02T14:18:15Z</time>
      </trkpt>
      <trkpt lat="43.09044" lon="1.87614">
        <ele>304.26</ele>
        <time>2019-09-02T14:18:17Z</time>
      </trkpt>
      <trkpt lat="43.09025" lon="1.87614">
        <ele>304.18</ele>
        <time>2019-09-02T14:18:31Z</time>
      </trkpt>
      <trkpt lat="43.08998" lon="1.87613">
        <ele>304.64</ele>
        <time>2019-09-02T14:18:53Z</time>
      </trkpt>
      <trkpt lat="43.08981" lon="1.87613">
        <ele>304.86</ele>
        <time>2019-09-02T14:19:10Z</time>
      </trkpt>
      <trkpt lat="43.08974" lon="1.87613">
        <ele>304.58</ele>
        <time>2019-09-02T14:19:35Z</time>
      </trkpt>
      <trkpt lat="43.08973" lon="1.87613">
        <ele>305.24</ele>
        <time>2019-09-02T14:20:17Z</time>
      </trkpt>
      <trkpt lat="43.08977" lon="1.87612">
        <ele>305.04</ele>
        <time>2019-09-02T14:20:34Z</time>
      </trkpt>
      <trkpt lat="43.08977" lon="1.87612">
        <ele>305.56</ele>
        <time>2019-09-02T14:20:37Z</time>
      </trkpt>
      <trkpt lat="43.08953" lon="1.8757">
        <ele>304.3</ele>
        <time>2019-09-02T14:24:21Z</time>
      </trkpt>
      <trkpt lat="43.0895" lon="1.8757">
        <ele>304.3</ele>
        <time>2019-09-02T14:24:23Z</time>
      </trkpt>
      <trkpt lat="43.08937" lon="1.8756">
        <ele>304.3</ele>
        <time>2019-09-02T14:24:29Z</time>
      </trkpt>
      <trkpt lat="43.08861" lon="1.87484">
        <ele>303.28</ele>
        <time>2019-09-02T14:24:59Z</time>
      </trkpt>
      <trkpt lat="43.08996" lon="1.87663">
        <ele>303.21</ele>
        <time>2019-09-02T14:25:07Z</time>
      </trkpt>
      <trkpt lat="43.08969" lon="1.87647">
        <ele>303.68</ele>
        <time>2019-09-02T14:25:10Z</time>
      </trkpt>
    </trkseg>
  </trk>
</gpx>